GFSSE_con_mlcape_000.txt.gz
CAPE
24 50 536 669 363 277 375 112 42 8 0 0 0 0 11 18 1 0 3 20 4 3 16 24 37 50 40 36 35 23 28 15 2 0 0 0 0 0 8 4 0 1 4
64 117 563 650 385 410 278 99 16 0 0 0 0 0 0 0 0 0 0 3 5 5 2 12 16 15 24 23 10 15 16 4 1 0 0 0 0 0 1 2 0 1 36
47 126 388 632 330 362 260 68 10 0 0 0 0 5 0 4 6 0 0 4 7 10 4 0 0 0 0 7 23 22 18 6 0 0 0 0 0 0 0 0 0 0 17
66 145 293 678 299 307 255 70 33 16 0 0 0 11 30 16 20 16 5 5 7 5 0 0 0 0 0 3 22 19 21 13 3 0 0 0 0 8 0 0 0 0 0
17 296 640 276 223 313 112 36 31 37 8 0 0 4 25 39 70 19 15 8 11 0 0 0 0 0 0 0 0 6 4 14 5 0 0 0 0 0 6 0 0 0 0
18 545 525 411 392 253 139 106 40 29 33 26 0 5 14 54 117 128 23 17 3 2 0 0 0 0 0 0 0 0 0 0 0 0 0 0 0 0 0 5 2 0 0
63 718 738 682 469 260 250 203 73 54 22 12 1 0 17 59 118 171 72 19 1 0 0 0 0 0 0 5 0 0 0 0 0 0 0 0 0 0 0 0 1 1 0
96 320 629 775 409 310 224 114 84 87 55 33 1 0 2 31 77 110 145 31 0 0 0 0 0 0 0 0 6 2 0 0 0 0 0 0 0 0 0 0 0 0 0
131 216 243 400 309 372 363 346 169 87 110 77 49 2 12 4 0 23 58 5 0 0 0 0 0 0 0 0 0 0 0 0 0 0 0 0 0 0 0 0 0 0 0
193 239 227 322 344 386 139 185 175 152 158 79 58 26 0 0 0 0 0 0 0 0 0 0 0 0 0 0 0 0 0 0 0 0 0 0 0 0 0 0 0 0 0
243 288 307 348 475 405 370 282 163 124 124 100 59 23 5 0 0 0 0 0 0 0 0 0 0 0 0 0 0 0 0 0 0 0 0 0 0 0 0 0 0 0 0
222 311 393 393 464 409 312 362 262 138 123 99 93 80 23 0 0 0 0 0 0 0 0 0 0 0 0 0 0 0 0 0 0 0 0 0 0 0 0 0 0 0 0
102 257 399 455 461 464 392 262 270 229 165 125 89 40 21 1 0 0 0 0 0 0 0 0 0 0 0 0 0 0 0 0 0 0 0 0 0 0 0 0 0 0 1
27 166 294 417 519 535 503 360 295 162 141 104 76 58 26 19 8 4 4 3 1 3 3 2 8 8 9 11 5 7 9 8 3 0 0 0 0 0 0 0 4 9 10
3 14 123 266 466 557 558 446 332 229 152 124 117 131 98 90 99 113 124 126 95 41 27 13 6 7 4 4 9 11 6 5 9 13 10 6 2 0 0 2 4 12 22
6 18 21 66 275 442 507 443 354 275 184 157 145 146 126 108 102 123 92 25 7 1 3 6 9 2 1 0 0 0 0 0 0 0 0 0 0 0 7 14 27 22 22
0 0 0 3 49 258 326 371 256 187 155 146 114 94 82 75 36 44 5 0 0 0 0 0 0 0 0 0 0 0 0 0 0 0 0 0 0 1 29 37 30 19 59
0 0 0 0 0 98 250 229 180 104 85 52 59 39 0 0 0 0 0 0 0 0 0 0 0 0 0 0 0 0 0 0 0 0 0 0 4 5 19 79 86 74 37
0 0 0 0 0 93 164 32 9 5 0 0 0 0 0 0 0 0 0 0 0 0 0 0 0 0 0 0 0 0 0 0 0 0 0 0 0 0 0 0 2 4 50
0 0 0 7 40 62 5 0 0 0 0 0 0 0 0 0 0 0 0 0 0 0 0 0 0 0 0 0 0 0 0 0 0 0 0 0 0 0 0 0 0 1 0
0 0 0 0 0 0 0 0 0 0 0 0 0 0 0 0 0 0 0 0 0 0 0 0 0 0 0 0 0 0 0 0 0 0 0 0 0 0 0 0 0 0 0
0 0 0 0 0 0 0 0 0 0 0 0 0 0 0 0 0 0 0 0 0 0 0 0 0 0 0 0 0 0 0 0 0 0 0 0 0 0 0 0 0 0 0
0 0 0 0 0 0 0 0 0 0 0 0 0 0 0 0 0 0 0 0 0 0 0 0 0 0 0 0 0 0 0 0 0 0 0 0 0 0 0 0 0 0 0
0 0 0 0 0 0 0 0 0 0 0 0 0 0 0 0 0 0 0 0 0 0 0 0 0 0 0 0 0 0 0 0 0 0 0 0 0 0 0 0 0 0 0
0 0 0 0 0 0 0 0 0 0 0 0 0 0 0 0 0 0 0 0 0 0 0 0 0 0 0 0 0 0 0 0 0 0 0 0 0 0 0 0 0 0 0
0 0 0 0 0 0 0 0 0 0 0 0 0 0 0 0 0 0 0 0 0 0 0 0 0 0 0 0 0 0 0 0 0 0 0 0 0 0 0 0 0 0 0

GFSSE_con_mlcape_003.txt.gz
CAPE
32 513 952 808 698 680 328 229 34 17 0 0 0 4 54 20 1 0 8 3 4 3 1 18 18 42 55 55 47 25 31 8 4 0 0 0 0 0 7 14 0 3 1
73 531 831 672 664 510 425 179 49 3 0 0 0 0 1 5 0 2 7 1 0 0 0 0 13 18 17 21 13 12 19 13 6 0 0 0 0 0 4 0 0 0 20
99 505 711 725 518 541 402 56 10 0 0 0 0 4 5 7 12 14 8 1 0 1 0 0 0 0 0 0 5 14 25 8 0 0 0 0 0 0 4 0 0 0 1
116 234 589 634 665 407 331 52 14 3 0 0 0 10 6 16 10 9 10 10 11 0 0 0 0 0 0 0 0 1 11 14 0 0 0 0 0 0 7 4 0 0 0
205 172 482 848 223 455 302 48 29 23 0 0 0 0 10 29 45 49 21 2 5 0 0 0 0 0 0 0 0 0 0 0 0 0 0 0 0 0 5 1 0 0 0
374 670 675 240 596 582 105 56 37 29 16 0 0 0 6 56 104 185 56 15 3 0 0 0 0 0 0 0 0 0 0 0 0 0 0 0 0 0 0 2 0 0 0
570 910 723 712 644 404 232 183 80 58 48 11 0 0 12 51 86 169 107 32 0 0 0 0 0 0 0 1 8 0 0 0 0 0 0 0 0 0 0 0 0 2 1
605 896 1044 963 570 368 389 266 154 124 72 50 1 0 5 8 26 124 205 68 11 2 0 0 0 0 0 0 5 10 4 0 0 0 0 0 0 0 0 1 0 0 2
669 735 682 912 635 276 294 252 147 156 113 64 31 3 9 0 0 20 193 80 26 8 0 8 1 0 0 0 0 0 0 0 0 0 0 0 0 0 0 0 1 1 0
328 405 462 328 340 380 374 353 274 172 180 127 67 40 3 0 0 0 2 4 13 20 8 0 0 0 0 0 0 0 0 0 0 0 0 0 0 0 0 0 0 1 1
233 307 343 442 362 318 151 222 231 134 171 112 74 36 10 0 0 0 13 11 0 0 0 0 0 0 0 0 0 0 0 0 0 0 0 0 0 0 0 0 0 0 0
195 299 315 436 587 519 471 367 189 144 116 80 64 59 42 5 0 7 0 0 0 1 1 0 0 0 0 0 0 0 0 0 0 0 0 0 0 0 0 1 1 0 0
92 257 380 391 585 488 449 379 223 181 151 115 107 67 44 5 11 7 7 7 0 6 5 0 0 0 4 6 6 2 4 8 0 0 0 0 0 3 8 13 18 13 15
84 252 387 440 508 466 308 250 226 154 132 62 72 42 38 41 36 42 50 47 48 77 60 26 14 16 12 22 17 12 0 0 0 0 0 1 7 20 35 39 51 27 60
33 260 342 441 469 473 423 330 270 116 99 91 88 91 80 90 122 135 145 110 84 45 24 8 1 1 0 0 0 0 0 0 0 0 0 0 0 0 8 10 28 41 67
11 175 319 337 477 482 425 347 255 143 77 71 90 104 119 113 116 145 87 4 0 0 0 0 0 0 0 0 0 0 0 0 0 0 0 0 0 0 5 27 33 34 49
0 1 52 244 441 438 412 311 186 84 64 64 34 43 55 62 54 4 0 0 0 0 0 0 0 0 0 0 0 0 0 0 0 0 0 0 0 0 0 4 43 20 22
0 0 0 129 376 341 280 189 88 29 3 0 0 0 0 0 0 0 0 0 0 0 0 0 0 0 0 0 0 0 0 0 0 0 0 0 0 0 0 0 0 1 33
0 0 0 18 248 206 88 12 0 0 0 0 0 0 0 0 0 0 0 0 0 0 0 0 0 0 0 0 0 0 0 0 0 0 0 0 0 0 0 0 0 0 0
0 0 0 20 88 3 0 0 0 0 0 0 0 0 0 0 0 0 0 0 0 0 0 0 0 0 0 0 0 0 0 0 0 0 0 0 0 0 0 0 0 0 0
0 0 0 19 0 0 0 0 0 0 0 0 0 0 0 0 0 0 0 0 0 0 0 0 0 0 0 0 0 0 0 0 0 0 0 0 0 0 0 0 0 0 0
0 0 0 0 0 0 0 0 0 0 0 0 0 0 0 0 0 0 0 0 0 0 0 0 0 0 0 0 0 0 0 0 0 0 0 0 0 0 0 0 0 0 0
0 0 0 0 0 0 0 0 0 0 0 0 0 0 0 0 0 0 0 0 0 0 0 0 0 0 0 0 0 0 0 0 0 0 0 0 0 0 0 0 0 0 0
0 0 0 0 0 0 0 0 0 0 0 0 0 0 0 0 0 0 0 0 0 0 0 0 0 0 0 0 0 0 0 0 0 0 0 0 0 0 0 0 0 0 0
0 0 0 0 0 0 0 0 0 0 0 0 0 0 0 0 0 0 0 0 0 0 0 0 0 0 0 0 0 0 0 0 0 0 0 0 0 0 0 0 0 0 0
0 0 0 0 0 0 0 0 0 0 0 0 0 0 0 0 0 0 0 0 0 0 0 0 0 0 0 0 0 0 0 0 0 0 0 0 0 0 0 0 0 0 0

GFSSE_con_mlcape_006.txt.gz
CAPE
27 484 982 962 808 565 371 62 21 0 0 0 0 2 34 24 9 16 23 1 0 0 0 7 20 34 55 87 47 26 13 4 0 0 0 0 0 0 0 12 4 0 0
57 694 1059 918 954 552 365 75 17 0 0 0 0 0 19 15 3 7 7 3 0 0 0 0 0 7 11 5 7 1 6 2 0 0 0 0 0 0 0 10 0 0 15
118 760 778 721 572 658 487 74 12 0 0 0 0 1 0 5 20 18 6 0 0 0 0 0 0 0 0 0 0 0 4 1 0 0 0 0 0 0 0 7 0 0 0
109 687 757 736 583 731 317 46 10 0 0 0 0 0 5 3 8 2 11 9 0 0 0 0 0 0 0 0 0 0 0 3 0 0 0 0 0 0 0 5 4 0 0
93 462 618 791 734 763 254 52 14 0 0 0 0 0 9 24 13 21 19 4 0 0 0 0 0 0 0 0 0 0 0 0 0 0 0 0 0 0 10 12 10 5 0
91 313 668 910 795 750 260 74 42 21 0 0 0 0 8 21 32 101 23 3 0 0 0 0 0 0 0 0 0 0 0 0 0 0 0 0 0 0 0 12 13 8 0
186 334 929 737 613 675 120 78 70 47 35 0 0 0 1 15 33 70 61 35 0 0 0 0 0 0 0 1 8 37 9 4 0 0 0 0 0 0 0 5 8 15 12
443 729 841 685 680 396 185 160 128 79 49 7 1 0 14 0 4 98 132 58 7 6 0 10 11 13 1 0 0 3 5 4 0 0 0 0 0 0 0 2 14 11 10
753 1001 857 948 634 417 351 230 131 100 67 24 4 2 9 5 0 14 245 113 60 8 14 18 18 1 1 1 0 0 0 0 0 0 0 0 0 0 0 0 6 11 14
807 873 844 757 610 326 372 197 160 154 97 74 36 21 7 0 0 0 21 26 22 22 10 0 0 0 3 3 0 0 0 0 0 0 0 0 0 0 0 1 1 7 8
748 636 646 503 595 258 263 246 202 150 147 106 49 25 5 0 0 0 12 17 10 0 2 15 21 30 22 6 0 0 0 0 0 0 0 0 0 4 9 15 19 13 2
310 425 450 364 228 229 281 165 229 109 139 71 39 19 9 0 0 0 5 6 6 20 44 56 75 84 60 9 1 3 7 3 0 1 1 0 0 15 29 48 60 47 53
114 289 408 405 362 411 291 223 154 104 75 46 39 36 40 0 0 0 0 9 11 13 31 48 24 11 14 11 0 0 0 0 0 0 0 0 0 10 45 84 43 35 42
52 239 343 430 456 518 430 381 202 128 95 61 87 73 46 5 30 23 35 62 66 94 103 54 0 0 0 0 0 0 0 0 0 0 0 0 0 0 11 2 0 21 38
0 164 359 393 507 466 391 277 165 116 119 29 47 18 25 59 99 85 58 21 0 0 0 0 0 0 0 0 0 0 0 0 0 0 0 0 0 0 0 0 3 14 27
0 93 346 433 516 385 325 261 201 57 37 50 68 78 71 73 75 11 0 0 0 0 0 0 0 0 0 0 0 0 0 0 0 0 0 0 0 0 0 0 0 2 13
0 102 346 455 479 480 389 303 192 88 52 39 40 5 3 1 0 0 0 0 0 0 0 0 0 0 0 0 0 0 0 0 0 0 0 0 0 0 0 0 0 0 0
0 87 282 429 456 453 398 254 91 15 1 0 0 0 0 0 0 0 0 0 0 0 0 0 0 0 0 0 0 0 0 0 0 0 0 0 0 0 0 0 0 0 0
0 0 48 323 421 335 186 20 0 0 0 0 0 0 0 0 0 0 0 0 0 0 0 0 0 0 0 0 0 0 0 0 0 0 0 0 0 0 0 0 0 0 0
0 0 0 260 180 7 0 0 0 0 0 0 0 0 0 0 0 0 0 0 0 0 0 0 0 0 0 0 0 0 0 0 0 0 0 0 0 0 0 0 0 0 0
0 0 0 83 0 0 0 0 0 0 0 0 0 0 0 0 0 0 0 0 0 0 0 0 0 0 0 0 0 0 0 0 0 0 0 0 0 0 0 0 0 0 0
0 0 0 0 0 0 0 0 0 0 0 0 0 0 0 0 0 0 0 0 0 0 0 0 0 0 0 0 0 0 0 0 0 0 0 0 0 0 0 0 0 0 0
0 0 0 0 0 0 0 0 0 0 0 0 0 0 0 0 0 0 0 0 0 0 0 0 0 0 0 0 0 0 0 0 0 0 0 0 0 0 0 0 0 0 0
0 0 0 0 0 0 0 0 0 0 0 0 0 0 0 0 0 0 0 0 0 0 0 0 0 0 0 0 0 0 0 0 0 0 0 0 0 0 0 0 0 0 0
0 0 0 0 0 0 0 0 0 0 0 0 0 0 0 0 0 0 0 0 0 0 0 0 0 0 0 0 0 0 0 0 0 0 0 0 0 0 0 0 0 0 0
0 0 0 0 0 0 0 0 0 0 0 0 0 0 0 0 0 0 0 0 0 0 0 0 0 0 0 0 0 0 0 0 0 0 0 0 0 0 0 0 0 0 0

GFSSE_con_mlcape_009.txt.gz
CAPE
20 112 579 662 771 597 405 41 5 0 0 0 0 4 10 40 28 24 10 0 0 0 0 2 10 17 46 64 58 19 2 0 0 0 0 0 0 0 1 0 7 0 0
32 278 904 946 1014 732 371 67 7 0 0 0 0 24 32 25 12 4 0 0 0 0 0 0 0 0 4 11 7 1 3 4 0 0 0 0 0 0 0 14 1 0 8
79 722 1101 799 1056 621 393 76 5 0 0 0 0 11 12 6 20 15 7 0 0 0 0 0 0 0 0 0 0 0 0 1 0 0 0 0 0 0 0 12 4 0 0
178 868 871 907 836 831 441 75 16 0 0 0 0 0 0 7 16 13 11 0 0 0 0 0 0 0 0 0 0 0 0 0 0 0 0 0 0 0 1 16 11 5 1
168 778 694 796 776 895 416 81 19 0 0 0 0 3 15 13 12 9 17 0 0 0 0 0 0 0 0 0 0 0 0 0 0 0 0 0 0 0 4 9 24 15 12
91 570 655 858 840 791 372 104 41 1 0 0 0 0 5 19 34 47 23 1 0 0 0 0 0 0 0 0 3 18 1 3 0 0 0 0 0 0 0 5 5 19 4
78 363 654 868 972 826 408 101 81 22 0 0 0 0 9 16 19 55 58 44 0 0 0 0 0 0 0 0 1 6 32 15 5 0 0 0 0 0 0 5 7 11 10
132 321 753 1121 996 892 384 155 127 71 57 0 0 0 11 0 1 60 54 27 2 0 0 0 4 7 13 5 4 2 2 0 0 0 0 0 0 0 0 0 3 13 16
289 496 790 1018 908 810 262 223 155 74 56 8 0 0 7 6 0 17 184 82 44 13 0 4 15 1 0 6 25 19 6 0 0 0 0 0 0 0 11 16 9 11 12
628 804 789 664 843 646 381 276 155 106 79 28 3 0 0 0 0 0 49 36 22 19 23 10 4 18 34 37 29 21 8 0 0 0 0 0 0 6 76 103 95 52 29
780 992 903 803 689 522 414 374 234 200 118 58 24 6 0 0 0 0 0 3 10 25 23 45 86 94 78 62 61 41 19 11 4 0 1 0 5 23 136 201 153 110 118
654 882 944 805 606 477 393 323 247 190 154 107 34 1 0 0 0 0 0 4 17 26 48 76 127 99 42 17 2 0 0 0 0 0 0 1 14 24 15 31 75 75 88
418 679 784 677 523 546 278 252 287 181 151 77 22 0 5 0 0 0 0 0 0 1 18 45 20 1 0 0 0 0 0 0 0 0 0 0 0 0 0 0 1 0 9
58 301 546 558 457 360 272 200 194 130 90 40 21 16 18 0 0 0 11 30 28 31 18 0 0 0 0 0 0 0 0 0 0 0 0 0 0 0 0 0 0 0 16
0 103 347 501 469 435 372 342 270 178 131 75 48 52 10 0 22 14 0 0 0 0 0 0 0 0 0 0 0 0 0 0 0 0 0 0 0 0 0 0 0 0 0
0 0 174 440 509 527 532 435 318 194 157 21 10 7 11 18 2 0 0 0 0 0 0 0 0 0 0 0 0 0 0 0 0 0 0 0 0 0 0 0 0 0 0
0 0 5 369 481 559 511 338 197 137 71 26 2 6 1 0 0 0 0 0 0 0 0 0 0 0 0 0 0 0 0 0 0 0 0 0 0 0 0 0 0 0 0
0 0 32 465 500 520 377 284 169 49 0 0 0 0 0 0 0 0 0 0 0 0 0 0 0 0 0 0 0 0 0 0 0 0 0 0 0 0 0 0 0 0 0
0 0 171 476 563 436 241 21 0 0 0 0 0 0 0 0 0 0 0 0 0 0 0 0 0 0 0 0 0 0 0 0 0 0 0 0 0 0 0 0 0 0 0
0 0 273 456 393 89 0 0 0 0 0 0 0 0 0 0 0 0 0 0 0 0 0 0 0 0 0 0 0 0 0 0 0 0 0 0 0 0 0 0 0 0 0
0 0 239 242 33 0 0 0 0 0 0 0 0 0 0 0 0 0 0 0 0 0 0 0 0 0 0 0 0 0 0 0 0 0 0 0 0 0 0 0 0 0 0
0 0 1 0 0 0 0 0 0 0 0 0 0 0 0 0 0 0 0 0 0 0 0 0 0 0 0 0 0 0 0 0 0 0 0 0 0 0 0 0 0 0 0
0 0 0 0 0 0 0 0 0 0 0 0 0 0 0 0 0 0 0 0 0 0 0 0 0 0 0 0 0 0 0 0 0 0 0 0 0 0 0 0 0 0 0
0 0 0 0 0 0 0 0 0 0 0 0 0 0 0 0 0 0 0 0 0 0 0 0 0 0 0 0 0 0 0 0 0 0 0 0 0 0 0 0 0 0 0
0 0 0 0 0 0 0 0 0 0 0 0 0 0 0 0 0 0 0 0 0 0 0 0 0 0 0 0 0 0 0 0 0 0 0 0 0 0 0 0 0 0 0
0 0 0 0 0 0 0 0 0 0 0 0 0 0 0 0 0 0 0 0 0 0 0 0 0 0 0 0 0 0 0 0 0 0 0 0 0 0 0 0 0 0 0

GFSSE_con_mlcape_012.txt.gz
CAPE
3 182 1023 548 824 578 395 51 4 0 0 0 0 5 36 65 34 25 2 0 0 0 0 2 10 25 45 54 77 42 4 0 0 0 0 0 0 0 6 3 1 1 0
8 157 492 616 1061 653 428 63 12 0 0 0 0 20 45 59 37 32 11 0 0 0 0 0 0 0 2 15 16 7 14 14 0 0 0 0 0 0 0 4 10 0 0
39 194 744 1072 1058 842 375 100 15 0 0 0 0 48 39 6 32 19 9 0 0 0 0 0 0 0 0 0 0 0 0 1 0 0 0 0 0 0 0 8 16 0 0
112 466 917 1020 1170 954 420 115 15 0 0 0 0 8 12 13 19 16 0 0 0 0 0 0 0 0 0 0 0 0 0 0 3 0 0 0 0 0 0 9 20 16 10
271 830 863 1040 1098 927 475 127 44 0 0 0 0 0 15 15 23 18 4 0 0 0 0 0 0 0 0 0 0 0 0 0 0 0 0 0 0 0 0 9 26 35 11
390 885 941 1080 987 972 558 182 84 13 0 0 0 0 9 20 40 26 28 0 0 0 0 0 0 0 0 0 0 0 20 0 0 0 0 0 0 0 0 0 12 5 13
367 754 821 923 954 1013 571 266 111 39 0 0 0 0 6 20 33 31 54 15 0 0 0 0 0 0 0 0 0 0 5 5 4 0 0 0 0 0 0 0 1 11 18
181 537 755 1037 1105 966 600 306 167 80 28 0 0 0 3 9 2 61 103 47 1 0 0 0 0 5 2 0 6 14 4 0 0 0 0 0 0 0 13 11 2 1 2
233 486 692 1026 1175 1082 753 352 241 130 138 8 0 0 7 7 0 32 114 52 27 19 2 6 17 9 7 21 40 37 18 9 1 0 0 0 0 3 89 119 150 66 10
376 509 717 1030 1171 1035 751 369 260 116 87 42 2 0 2 2 0 0 79 59 10 5 11 21 26 56 62 59 58 55 35 28 6 0 0 0 1 82 253 262 273 304 283
631 610 844 1017 873 882 683 438 304 189 167 89 5 0 1 0 0 0 0 0 0 7 28 51 108 125 57 21 19 1 0 0 0 0 0 0 9 75 71 60 129 185 186
501 764 1036 971 777 802 735 519 379 262 216 91 30 4 0 0 0 0 0 0 2 2 0 10 38 8 0 0 0 0 0 0 0 0 0 0 0 0 0 0 4 3 1
375 724 1008 999 862 791 653 475 364 248 184 126 47 0 0 0 0 0 0 0 0 0 0 0 0 0 0 0 0 0 0 0 0 0 0 0 0 0 0 0 0 20 6
66 522 924 1032 906 797 577 402 325 251 192 101 37 0 1 0 0 0 0 0 0 0 0 0 0 0 0 0 0 0 0 0 0 0 0 0 0 0 0 0 0 0 0
0 9 325 838 874 703 633 357 316 251 149 105 43 9 10 0 0 0 0 0 0 0 0 0 0 0 0 0 0 0 0 0 0 0 0 0 0 0 0 0 0 0 0
0 0 0 292 690 619 523 333 258 226 158 106 57 45 1 3 0 0 0 0 0 0 0 0 0 0 0 0 0 0 0 0 0 0 0 0 0 0 0 0 0 0 0
0 0 0 3 427 585 435 416 369 243 156 67 15 5 1 0 0 0 0 0 0 0 0 0 0 0 0 0 0 0 0 0 0 0 0 0 0 0 0 0 0 0 0
0 0 0 0 283 520 541 443 209 129 19 0 0 0 0 0 0 0 0 0 0 0 0 0 0 0 0 0 0 0 0 0 0 0 0 0 0 0 0 0 0 0 0
0 0 0 56 256 450 373 75 0 0 0 0 0 0 0 0 0 0 0 0 0 0 0 0 0 0 0 0 0 0 0 0 0 0 0 0 0 0 0 0 0 0 0
0 0 18 197 304 160 0 0 0 0 0 0 0 0 0 0 0 0 0 0 0 0 0 0 0 0 0 0 0 0 0 0 0 0 0 0 0 0 0 0 0 0 0
0 9 129 227 69 4 0 0 0 0 0 0 0 0 0 0 0 0 0 0 0 0 0 0 0 0 0 0 0 0 0 0 0 0 0 0 0 0 0 0 0 0 0
0 15 149 111 0 0 0 0 0 0 0 0 0 0 0 0 0 0 0 0 0 0 0 0 0 0 0 0 0 0 0 0 0 0 0 0 0 0 0 0 0 0 0
0 0 37 0 0 0 0 0 0 0 0 0 0 0 0 0 0 0 0 0 0 0 0 0 0 0 0 0 0 0 0 0 0 0 0 0 0 0 0 0 0 0 0
0 0 0 0 0 0 0 0 0 0 0 0 0 0 0 0 0 0 0 0 0 0 0 0 0 0 0 0 0 0 0 0 0 0 0 0 0 0 0 0 0 0 0
0 0 0 0 0 0 0 0 0 0 0 0 0 0 0 0 0 0 0 0 0 0 0 0 0 0 0 0 0 0 0 0 0 0 0 0 0 0 0 0 0 0 0
0 0 0 0 0 0 0 0 0 0 0 0 0 0 0 0 0 0 0 0 0 0 0 0 0 0 0 0 0 0 0 0 0 0 0 0 0 0 0 0 0 0 0

GFSSE_con_mlcape_015.txt.gz
CAPE
24 179 1114 684 959 628 187 38 2 0 0 0 0 0 53 59 46 21 5 0 0 0 0 0 10 34 27 36 50 39 4 0 0 0 0 0 0 0 0 4 0 4 0
59 297 1257 659 902 666 287 65 13 0 0 0 0 0 44 70 64 44 14 0 0 0 0 0 0 0 6 25 15 4 3 0 0 0 0 0 0 0 0 9 12 0 0
104 506 986 988 1044 768 351 102 22 0 0 0 3 33 33 11 27 15 12 0 0 0 0 0 0 0 0 1 0 0 0 0 0 0 0 0 0 0 0 0 15 0 0
153 445 873 1140 1105 895 437 139 22 0 0 0 9 29 3 28 14 1 0 0 0 0 0 0 0 0 0 0 0 0 0 0 0 0 0 0 0 0 0 11 5 11 5
177 634 994 1326 1232 977 608 179 43 0 0 0 0 8 5 22 16 7 0 0 0 0 0 0 0 0 0 0 0 0 0 0 0 0 0 0 0 0 0 0 3 49 24
374 921 1127 1268 1311 907 646 215 92 2 0 0 0 0 15 19 17 24 18 0 0 0 0 0 0 0 0 0 0 2 16 11 3 0 0 0 0 0 0 0 0 0 2
484 1082 1305 1291 1315 1008 715 369 142 67 6 0 0 0 10 29 39 49 34 12 0 0 0 0 0 6 4 2 2 0 0 0 0 0 0 0 0 0 15 13 2 0 12
413 1064 1215 1164 1219 1171 810 456 176 99 44 0 0 0 3 16 1 56 42 38 0 0 0 0 0 4 1 1 5 14 1 0 0 0 0 0 0 1 78 100 93 48 11
476 815 1070 1275 1276 1176 794 467 264 137 100 11 0 0 0 8 0 61 69 33 18 7 0 2 21 16 30 52 59 41 14 10 26 3 0 0 0 20 143 157 196 272 211
384 673 900 1208 1425 1351 1015 528 329 129 189 41 8 0 3 0 0 0 77 74 14 3 14 28 69 91 70 41 34 10 0 0 0 0 0 0 0 102 160 163 163 249 280
524 569 874 1036 1316 1245 1043 723 348 145 113 92 24 0 0 0 0 0 0 0 0 7 21 29 47 2 0 0 0 0 0 0 0 0 0 0 0 0 0 0 0 33 8
551 667 886 1126 1232 1193 1036 766 490 276 282 114 38 18 0 0 0 0 0 0 0 0 0 0 0 0 0 0 0 0 0 0 0 0 0 0 0 0 0 0 0 6 1
371 731 898 1128 1188 1029 988 787 572 375 298 151 75 23 0 0 0 0 0 0 0 0 0 0 0 0 0 0 0 0 0 0 0 0 0 0 0 0 0 5 1 0 0
160 549 875 1082 1029 1017 1039 805 556 358 295 194 116 24 0 0 0 0 2 0 0 0 0 0 0 0 0 0 0 0 0 0 0 0 0 0 0 0 0 0 0 0 0
21 121 643 1027 1042 1073 1030 796 597 357 310 229 108 24 15 0 0 0 0 0 0 0 0 0 0 0 0 0 0 0 0 0 0 0 0 0 0 0 0 0 0 0 0
0 0 32 571 990 1063 1050 779 559 389 325 200 108 62 30 1 0 0 0 0 0 0 0 0 0 0 0 0 0 0 0 0 0 0 0 0 0 0 0 0 0 0 0
0 0 0 1 468 956 1021 791 459 345 245 162 96 46 3 0 0 0 0 0 0 0 0 0 0 0 0 0 0 0 0 0 0 0 0 0 0 0 0 0 0 0 0
0 0 0 0 39 673 862 688 368 243 164 85 8 0 0 0 0 0 0 0 0 0 0 0 0 0 0 0 0 0 0 0 0 0 0 0 0 0 0 0 0 0 0
0 0 0 1 29 379 633 387 201 51 4 0 0 0 0 0 0 0 0 0 0 0 0 0 0 0 0 0 0 0 0 0 0 0 0 0 0 0 0 0 0 0 0
0 0 0 81 149 328 61 0 0 0 0 0 0 0 0 0 0 0 0 0 0 0 0 0 0 0 0 0 0 0 0 0 0 0 0 0 0 0 0 0 0 0 0
0 0 24 135 145 59 21 0 0 0 0 0 0 0 0 0 0 0 0 0 0 0 0 0 0 0 0 0 0 0 0 0 0 0 0 0 0 0 0 0 0 0 0
0 0 141 185 14 38 0 0 0 0 0 0 0 0 0 0 0 0 0 0 0 0 0 0 0 0 0 0 0 0 0 0 0 0 0 0 0 0 0 0 0 0 0
0 0 143 35 0 0 0 0 0 0 0 0 0 0 0 0 0 0 0 0 0 0 0 0 0 0 0 0 0 0 0 0 0 0 0 0 0 0 0 0 0 0 0
0 0 5 0 0 0 0 0 0 0 0 0 0 0 0 0 0 0 0 0 0 0 0 0 0 0 0 0 0 0 0 0 0 0 0 0 0 0 0 0 0 0 0
0 0 0 0 0 0 0 0 0 0 0 0 0 0 0 0 0 0 0 0 0 0 0 0 0 0 0 0 0 0 0 0 0 0 0 0 0 0 0 0 0 0 0
0 0 0 0 0 0 0 0 0 0 0 0 0 0 0 0 0 0 0 0 0 0 0 0 0 0 0 0 0 0 0 0 0 0 0 0 0 0 0 0 0 0 0

GFSSE_con_mlcape_018.txt.gz
CAPE
68 907 1327 880 838 670 264 54 4 0 0 0 0 15 58 51 27 10 0 0 0 0 0 0 3 35 13 29 45 29 2 0 0 0 0 0 0 0 0 0 3 1 0
142 972 1244 1115 1141 591 229 55 12 0 0 0 0 2 62 59 62 26 17 0 0 0 0 0 0 3 16 35 22 22 17 0 0 0 0 0 0 0 0 2 6 2 0
205 920 930 1156 1047 677 323 77 24 2 0 0 1 3 41 26 29 25 3 0 0 0 0 0 0 0 0 4 0 0 0 0 0 0 0 0 0 0 0 0 1 0 0
315 1011 966 1168 1110 776 481 124 28 11 0 0 36 12 7 10 6 0 0 0 0 0 0 0 0 0 0 0 0 0 0 0 0 0 0 0 0 0 0 4 0 23 2
458 940 1130 1259 1174 870 587 157 31 0 0 0 3 2 4 8 0 0 0 0 0 0 0 0 0 0 0 0 0 1 10 0 0 0 0 0 0 0 0 0 7 12 89
439 790 1454 1423 1270 925 659 173 52 0 0 0 0 0 7 13 22 21 3 0 0 0 0 0 0 0 0 0 0 0 13 12 0 7 3 1 0 0 0 0 0 0 2
523 865 1292 1488 1366 1047 676 255 86 18 0 0 0 0 7 38 37 38 17 0 0 0 0 0 1 2 1 0 1 2 0 0 0 7 7 10 12 0 24 47 43 19 8
630 972 1067 1349 1358 1087 784 452 171 84 9 0 0 0 3 15 1 37 29 2 0 0 0 0 0 10 2 13 37 26 9 0 16 32 30 28 6 1 74 147 165 195 168
687 1007 949 1090 1469 1136 928 514 242 111 46 0 0 0 1 3 0 70 90 37 2 5 0 5 19 38 67 91 63 27 5 0 8 14 3 18 1 27 113 201 238 276 302
755 961 949 1007 1083 1267 1080 567 311 127 95 16 0 0 8 0 0 14 54 56 20 0 15 40 90 44 18 0 0 0 0 0 0 0 0 1 0 76 65 25 0 8 111
734 885 1048 971 1148 1341 1109 765 377 175 266 57 17 0 0 0 0 0 0 0 0 9 7 15 0 0 0 0 0 0 0 0 0 0 0 0 0 0 0 0 0 1 10
847 834 1147 1165 1164 1281 1160 1074 515 272 228 146 112 56 0 0 0 0 0 0 0 0 0 0 0 0 0 0 0 0 0 0 0 0 0 0 0 0 0 7 0 0 0
811 1010 1105 1319 1452 1480 1205 1079 745 421 489 319 237 99 0 0 0 0 2 15 73 0 0 0 0 0 0 0 0 0 0 0 0 0 0 0 0 0 7 0 0 0 0
608 1034 1218 1338 1615 1514 1312 1146 850 537 523 446 286 123 2 0 0 1 34 3 0 0 0 0 0 0 0 0 0 0 0 0 0 0 0 0 0 0 0 0 0 0 0
378 719 1152 1341 1483 1520 1482 1303 1044 710 482 487 402 122 35 14 28 40 0 0 0 0 0 0 0 0 0 0 0 0 0 0 0 0 0 0 0 0 0 0 0 0 0
96 228 611 1305 1454 1457 1623 1477 1142 826 515 576 459 112 143 100 111 0 0 0 0 0 0 0 0 0 0 0 0 0 0 0 0 0 0 0 0 0 0 0 0 0 0
0 0 15 489 1275 1373 1637 1568 1177 888 609 563 387 261 212 14 0 0 0 0 0 0 0 0 0 0 0 0 0 0 0 0 0 0 0 0 0 0 0 0 0 0 0
0 0 0 0 262 1135 1303 1532 1285 899 668 648 407 236 0 0 0 0 0 0 0 0 0 0 0 0 0 0 0 0 0 0 0 0 0 0 0 0 0 0 0 0 0
0 0 0 0 7 376 987 1380 1261 952 612 162 29 0 0 0 0 0 0 0 0 0 0 0 0 0 0 0 0 0 0 0 0 0 0 0 0 0 0 0 0 0 0
0 0 0 14 186 488 946 1178 859 245 0 0 0 0 0 0 0 0 0 0 0 0 0 0 0 0 0 0 0 0 0 0 0 0 0 0 0 0 0 0 0 0 0
0 0 0 106 440 587 833 351 0 0 0 0 0 0 0 0 0 0 0 0 0 0 0 0 0 0 0 0 0 0 0 0 0 0 0 0 0 0 0 0 0 0 0
0 0 31 317 450 675 274 126 2 0 0 0 0 0 0 0 0 0 0 0 0 0 0 0 0 0 0 0 0 0 0 0 0 0 0 0 0 0 0 0 0 0 0
0 0 127 412 405 417 244 6 0 0 0 0 0 0 0 0 0 0 0 0 0 0 0 0 0 0 0 0 0 0 0 0 0 0 0 0 0 0 0 0 0 0 0
0 0 214 254 348 253 0 0 0 0 0 0 0 0 0 0 0 0 0 0 0 0 0 0 0 0 0 0 0 0 0 0 0 0 0 0 0 0 0 0 0 0 0
0 0 88 130 178 0 0 0 0 0 0 0 0 0 0 0 0 0 0 0 0 0 0 0 0 0 0 0 0 0 0 0 0 0 0 0 0 0 0 0 0 0 0
0 0 4 102 29 0 0 0 0 0 0 0 0 0 0 0 0 0 0 0 0 0 0 0 0 0 0 0 0 0 0 0 0 0 0 0 0 0 0 0 0 0 0

GFSSE_con_mlcape_021.txt.gz
CAPE
102 883 1312 819 666 480 200 15 0 0 0 0 0 15 35 24 2 0 5 0 0 0 0 0 1 39 26 35 52 22 7 0 0 0 0 0 0 0 0 0 0 3 0
343 1171 1107 1014 880 494 245 12 0 0 0 0 0 14 28 38 18 21 16 0 0 0 0 0 0 0 31 35 33 36 11 0 0 0 0 0 0 0 0 0 2 1 0
695 1330 1055 1109 1047 556 233 29 0 0 0 0 0 17 52 46 24 27 4 0 0 0 0 0 0 0 0 0 0 0 0 0 0 0 0 0 0 0 0 0 0 1 0
620 1115 1168 1222 875 586 333 74 30 0 0 0 19 12 0 7 8 4 0 0 0 0 0 0 0 0 0 0 0 0 0 0 0 0 0 0 0 0 0 0 7 9 26
590 1009 1353 1155 991 745 492 109 44 8 0 49 3 0 5 0 0 0 0 0 0 0 0 0 0 0 0 0 0 0 16 1 0 1 5 3 0 0 0 0 0 2 11
603 1079 1263 1215 1114 846 531 112 38 0 0 0 0 0 0 0 0 0 0 0 0 0 0 0 0 0 0 0 0 0 0 0 0 12 9 10 4 0 0 2 2 0 0
536 1124 1536 1342 1175 947 595 152 41 0 0 0 0 0 5 27 16 13 14 0 0 0 0 0 1 1 2 0 1 2 0 0 0 16 17 16 14 0 24 46 98 122 79
522 916 1513 1502 1273 993 656 292 65 19 0 4 0 0 4 3 0 15 16 0 0 0 0 0 5 7 6 28 53 30 2 0 1 8 4 10 9 2 60 81 200 235 280
579 847 1169 1683 1396 970 698 485 207 83 8 0 5 0 10 0 0 67 36 7 0 0 0 0 43 56 66 27 10 1 0 0 0 9 0 11 5 19 53 75 35 16 59
668 829 930 1296 1621 1210 929 545 288 139 29 0 0 0 12 0 0 51 31 30 11 0 11 46 14 0 0 0 0 0 0 0 0 0 0 0 0 0 4 0 0 2 52
712 843 843 936 1259 1150 1124 700 352 194 82 29 0 0 0 0 0 0 0 0 0 3 6 0 0 0 0 0 0 0 0 0 0 0 0 0 0 0 0 3 3 0 2
764 827 947 920 1115 1189 1144 919 496 258 363 103 70 16 3 0 0 0 0 0 0 0 0 0 0 0 0 0 0 0 0 0 0 0 0 0 0 0 17 0 0 4 0
720 805 1008 1107 1096 1131 1049 1147 761 417 325 211 145 104 0 0 0 0 0 0 2 0 1 0 0 0 0 0 0 0 0 0 0 0 0 0 0 8 3 0 0 0 0
562 830 974 1217 1318 1292 1330 1069 903 534 488 411 303 152 0 0 0 0 4 45 0 0 0 0 0 0 0 0 0 0 0 0 0 0 0 0 0 0 0 0 0 0 0
341 599 1033 1168 1505 1579 1539 1266 1074 809 542 460 432 258 5 0 0 5 6 0 0 0 0 0 0 0 0 0 0 0 0 0 0 0 0 0 0 0 0 0 0 0 0
214 307 729 1085 1372 1598 1570 1445 1247 920 663 591 452 360 35 24 57 24 0 0 0 0 0 0 0 0 0 0 0 0 0 0 0 0 0 0 0 0 0 0 0 0 0
0 40 224 835 1234 1478 1523 1629 1343 1121 853 643 535 360 147 160 38 0 0 0 0 0 0 0 0 0 0 0 0 0 0 0 0 0 0 0 0 0 0 0 0 0 0
0 0 0 75 721 1419 1468 1515 1417 1156 951 721 621 332 309 156 0 0 0 0 0 0 0 0 0 0 0 0 0 0 0 0 0 0 0 0 0 0 0 0 0 0 0
0 0 0 0 35 515 1441 1377 1351 1194 912 724 797 596 166 0 0 0 0 0 0 0 0 0 0 0 0 0 0 0 0 0 0 0 0 0 0 0 0 0 0 0 0
0 0 0 0 0 17 765 1179 1453 1222 969 802 490 4 0 0 0 0 0 0 0 0 0 0 0 0 0 0 0 0 0 0 0 0 0 0 0 0 0 0 0 0 0
0 0 0 0 28 118 436 1255 1304 1053 511 47 0 0 0 0 0 0 0 0 0 0 0 0 0 0 0 0 0 0 0 0 0 0 0 0 0 0 0 0 0 0 0
0 0 0 0 44 382 818 1323 1011 314 0 0 0 0 0 0 0 0 0 0 0 0 0 0 0 0 0 0 0 0 0 0 0 0 0 0 0 0 0 0 0 0 0
0 0 0 0 167 584 985 694 16 0 0 0 0 0 0 0 0 0 0 0 0 0 0 0 0 0 0 0 0 0 0 0 0 0 0 0 0 0 0 0 0 0 0
0 0 0 30 406 646 699 203 0 0 0 0 0 0 0 0 0 0 0 0 0 0 0 0 0 0 0 0 0 0 0 0 0 0 0 0 0 0 0 0 0 0 0
0 0 0 74 505 569 418 4 0 0 0 0 0 0 0 0 0 0 0 0 0 0 0 0 0 0 0 0 0 0 0 0 0 0 0 0 0 0 0 0 0 0 0
0 0 0 214 318 420 156 0 0 0 0 0 0 0 0 0 0 0 0 0 0 0 0 0 0 0 0 0 0 0 0 0 0 0 0 0 0 0 0 0 0 0 0

GFSSE_con_mlcape_024.txt.gz
CAPE
763 771 710 610 503 292 102 9 0 0 0 8 64 44 30 0 0 0 0 0 0 0 0 6 42 49 46 56 58 29 14 0 0 0 0 0 0 0 0 1 0 4 4
900 1054 799 690 613 353 101 0 0 0 0 0 6 30 38 23 22 17 0 0 0 0 0 0 0 15 33 23 30 26 9 0 0 0 0 0 0 0 0 0 0 1 0
1011 1339 916 854 599 405 76 28 0 0 0 0 0 43 54 36 25 5 0 0 0 0 0 0 0 0 2 0 0 0 0 0 0 0 0 0 0 0 0 0 0 0 0
1352 1062 1062 1020 642 383 117 43 0 0 0 0 9 12 15 12 2 0 0 0 0 0 0 0 0 0 0 0 0 0 0 0 0 0 0 0 0 0 0 0 0 10 21
1316 1013 1183 1080 702 471 203 58 5 0 3 42 0 0 0 0 0 0 0 0 0 0 0 0 0 0 0 0 0 0 0 0 0 0 5 0 0 0 0 0 0 0 0
1055 1401 1143 1012 813 593 261 49 10 0 4 0 0 0 0 0 0 0 0 0 0 0 0 0 1 0 0 0 0 0 0 0 0 0 6 1 6 8 5 3 27 28 0
1329 1443 1052 1005 957 688 266 70 4 0 0 5 0 0 0 0 0 2 4 0 0 0 0 0 2 6 0 0 0 0 0 0 0 4 3 7 11 21 34 23 141 177 217
1555 1534 1379 1199 1024 753 352 110 28 0 0 0 0 0 17 0 0 2 2 0 0 0 0 0 1 0 2 7 0 0 0 0 0 4 4 5 20 28 32 39 50 30 68
1098 1587 1424 1304 1064 799 458 176 55 22 9 9 6 0 23 0 58 84 23 0 0 0 0 0 18 13 3 0 0 0 0 0 0 0 0 0 0 0 7 3 0 10 96
725 1317 1519 1384 1173 848 567 291 109 54 0 8 6 9 7 0 30 51 31 16 1 0 4 2 0 0 0 0 0 0 0 0 0 0 0 0 0 0 0 0 27 7 19
748 785 1254 1480 1220 1017 731 442 212 60 6 0 0 0 0 0 0 19 32 0 0 0 0 0 0 0 0 0 0 0 0 0 0 0 0 0 0 0 12 3 5 9 0
686 762 844 1512 1423 1177 976 528 297 183 49 0 0 0 0 0 0 0 0 0 0 0 0 0 0 0 0 0 0 0 0 0 0 0 0 0 0 10 5 4 1 0 0
647 701 785 904 1151 1088 1059 625 420 248 280 86 48 10 0 0 0 0 0 0 0 0 0 0 0 0 0 0 0 0 0 0 0 0 0 0 0 14 0 3 0 0 1
649 694 814 871 1055 1227 1119 921 674 400 406 238 181 112 0 0 0 0 0 1 3 0 0 0 0 0 0 0 0 0 0 0 0 0 0 0 0 0 1 0 0 0 0
443 712 827 1049 1135 1192 1172 1112 786 563 422 335 286 180 0 0 0 0 31 0 0 0 0 0 0 0 0 0 0 0 0 0 0 0 0 0 0 0 0 0 0 0 0
23 386 909 1026 1283 1401 1384 1036 959 789 705 500 413 296 24 0 0 1 0 0 0 0 0 0 0 0 0 0 0 0 0 0 0 0 0 0 0 0 0 0 0 0 0
0 114 496 1055 1268 1516 1450 1218 1112 966 806 603 516 381 154 11 1 0 0 0 0 0 0 0 0 0 0 0 0 0 0 0 0 0 0 0 0 0 0 0 0 0 0
0 0 108 756 1072 1467 1495 1412 1184 1096 886 676 583 502 192 21 0 0 0 0 0 0 0 0 0 0 0 0 0 0 0 0 0 0 0 0 0 0 0 0 0 0 0
0 0 0 216 963 1155 1468 1376 1312 1234 940 715 629 493 310 1 0 0 0 0 0 0 0 0 0 0 0 0 0 0 0 0 0 0 0 0 0 0 0 0 0 0 0
0 0 0 0 126 794 1501 1290 1413 1046 826 781 633 361 28 0 0 0 0 0 0 0 0 0 0 0 0 0 0 0 0 0 0 0 0 0 0 0 0 0 0 0 0
0 0 0 0 0 0 658 1338 1315 962 863 656 270 14 0 0 0 0 0 0 0 0 0 0 0 0 0 0 0 0 0 0 0 0 0 0 0 0 0 0 0 0 0
0 0 0 0 0 0 0 1037 1308 804 387 92 0 0 0 0 0 0 0 0 0 0 0 0 0 0 0 0 0 0 0 0 0 0 0 0 0 0 0 0 0 0 0
0 0 0 0 0 0 43 678 58 0 0 0 0 0 0 0 0 0 0 0 0 0 0 0 0 0 0 0 0 0 0 0 0 0 0 0 0 0 0 0 0 0 0
0 0 0 0 0 0 614 365 390 144 0 0 0 0 0 0 0 0 0 0 0 0 0 0 0 0 0 0 0 0 0 0 0 0 0 0 0 0 0 0 0 0 0
0 0 0 0 0 128 734 244 68 0 0 0 0 0 0 0 0 0 0 0 0 0 0 0 0 0 0 0 0 0 0 0 0 0 0 0 0 0 0 0 0 0 0
0 0 0 0 10 491 598 43 7 0 0 0 0 0 0 0 0 0 0 0 0 0 0 0 0 0 0 0 0 0 0 0 0 0 0 0 0 0 0 0 0 0 0

GFSSE_con_mlcape_027.txt.gz
CAPE
494 602 599 544 331 170 103 54 29 65 203 168 121 17 2 1 1 0 0 0 0 0 4 18 16 43 50 61 50 31 9 0 0 0 0 0 0 0 0 0 4 3 2
582 637 663 627 413 217 61 10 0 0 0 8 18 26 2 4 0 0 0 0 0 0 3 4 20 40 36 31 26 21 0 0 0 0 0 0 0 0 0 0 0 3 0
614 748 773 651 462 150 64 9 0 0 0 0 7 15 31 27 0 0 0 0 0 0 3 1 0 3 0 5 0 0 0 0 0 0 0 0 0 0 0 0 0 0 2
739 799 871 651 476 124 53 18 0 0 0 0 68 122 32 5 0 0 0 0 0 0 0 0 0 0 0 0 0 0 0 0 0 0 0 0 0 0 0 0 0 1 11
849 888 1032 731 461 233 88 23 0 1 5 31 0 1 0 1 0 0 0 0 0 0 0 0 0 0 0 0 0 0 0 0 0 0 0 0 0 11 2 0 0 0 0
820 988 1096 824 548 327 170 48 0 49 75 0 0 0 0 0 0 0 0 0 0 0 0 1 0 0 0 0 0 0 0 0 0 5 2 16 13 28 14 4 63 70 41
974 1085 1084 860 666 408 187 85 0 38 20 0 0 0 0 0 0 1 0 0 0 0 0 0 2 0 0 0 0 0 0 0 0 4 9 8 16 28 23 49 60 65 99
1241 1128 1067 941 756 455 200 41 0 0 50 0 0 19 29 0 0 0 0 0 0 0 0 0 0 0 0 0 0 0 0 0 0 0 3 3 8 10 0 11 0 13 106
1417 1115 1122 1007 780 497 237 48 10 1 35 26 0 45 2 3 38 63 0 0 0 0 0 0 0 0 0 0 0 0 0 0 0 0 0 0 0 0 0 1 18 64 17
1390 1246 1096 1057 841 568 308 100 39 21 15 19 17 28 0 46 155 104 21 0 0 0 0 0 0 0 0 0 0 0 0 0 0 0 0 0 0 0 1 11 12 15 9
1426 1286 1092 1048 843 596 342 166 83 21 20 20 16 15 0 7 98 55 22 21 0 0 0 0 0 0 0 0 0 0 0 0 0 0 0 0 0 19 9 24 8 7 14
989 1285 1180 1137 910 707 524 283 160 33 0 3 5 12 0 0 30 41 23 0 0 0 0 0 0 0 0 0 0 0 0 0 0 0 0 0 1 13 24 11 0 0 13
535 898 1425 1187 1023 892 740 374 201 92 4 0 0 0 0 0 0 0 0 0 0 0 0 0 0 0 0 0 0 0 0 0 0 0 0 0 13 8 12 0 0 0 1
479 538 1061 1424 1175 1073 855 499 205 137 134 49 43 3 0 0 0 0 0 0 0 0 0 0 0 0 0 0 0 0 0 0 0 0 0 0 0 1 1 0 0 0 0
425 505 572 1124 1352 1143 959 625 477 310 272 264 191 114 0 0 0 0 0 0 0 0 0 0 0 0 0 0 0 0 0 0 0 0 0 0 0 0 0 0 0 0 0
124 494 664 662 923 1093 1037 915 718 503 420 388 299 217 0 0 0 0 0 0 0 0 0 0 0 0 0 0 0 0 0 0 0 0 0 0 0 0 0 0 0 0 0
0 226 652 838 890 1126 1127 1067 793 676 550 486 366 185 16 0 0 0 0 0 0 0 0 0 0 0 0 0 0 0 0 0 0 0 0 0 0 0 0 0 0 0 0
0 0 642 937 1166 1257 1298 1090 912 824 625 665 449 349 101 7 0 0 0 0 0 0 0 0 0 0 0 0 0 0 0 0 0 0 0 0 0 0 0 0 0 0 0
0 0 21 865 1104 1331 1415 1415 1060 984 707 696 525 388 94 1 0 0 0 0 0 0 0 0 0 0 0 0 0 0 0 0 0 0 0 0 0 0 0 0 0 0 0
0 0 0 204 977 1392 1433 1422 1199 1029 863 769 660 405 41 0 0 0 0 0 0 0 0 0 0 0 0 0 0 0 0 0 0 0 0 0 0 0 0 0 0 0 0
0 0 0 0 624 1150 1349 1286 1055 1094 994 738 511 29 0 0 0 0 0 0 0 0 0 0 0 0 0 0 0 0 0 0 0 0 0 0 0 0 0 0 0 0 0
0 0 0 0 0 815 1246 1369 933 726 500 328 7 0 0 0 0 0 0 0 0 0 0 0 0 0 0 0 0 0 0 0 0 0 0 0 0 0 0 0 0 0 0
0 0 0 0 0 21 947 540 55 0 0 0 0 0 0 0 0 0 0 0 0 0 0 0 0 0 0 0 0 0 0 0 0 0 0 0 0 0 0 0 0 0 0
0 0 0 0 0 0 2 407 394 488 323 0 0 0 0 0 0 0 0 0 0 0 0 0 0 0 0 0 0 0 0 0 0 0 0 0 0 0 0 0 0 0 0
0 0 0 0 0 0 0 0 318 171 0 0 0 0 0 0 0 0 0 0 0 0 0 0 0 0 0 0 0 0 0 0 0 0 0 0 0 0 0 0 0 0 0
0 0 0 0 0 0 0 0 88 3 0 0 0 0 0 0 0 0 0 0 0 0 0 0 0 0 0 0 0 0 0 0 0 0 0 0 0 0 0 0 0 0 0

GFSSE_con_mlcape_030.txt.gz
CAPE
366 580 621 569 520 464 413 493 509 498 473 290 64 4 3 1 0 0 0 0 0 1 18 9 5 13 58 56 65 25 1 0 0 0 0 0 0 0 0 0 0 0 2
468 635 581 510 392 282 207 152 231 261 249 259 47 7 7 2 0 0 0 0 0 2 11 26 48 71 70 57 27 13 0 0 0 0 0 0 0 0 0 0 0 0 0
489 604 592 506 388 142 55 24 4 12 78 90 45 9 10 0 0 0 0 0 1 2 7 4 3 1 7 0 0 0 0 0 0 0 0 0 0 0 0 0 0 4 3
392 667 594 517 264 102 66 44 15 0 7 38 25 41 14 0 0 0 0 0 0 1 1 0 0 0 0 0 0 0 0 0 0 0 0 0 0 0 0 0 0 0 9
444 680 619 582 256 124 84 20 0 0 3 102 88 66 0 0 0 0 0 0 0 0 0 0 0 0 0 0 0 0 0 0 0 0 0 0 2 12 1 0 0 0 0
481 677 728 649 358 185 74 7 68 42 90 81 79 20 1 0 0 1 0 0 0 0 0 0 0 0 0 0 0 0 0 0 0 4 2 7 10 30 7 1 72 73 54
520 794 797 696 461 263 94 31 146 147 61 6 8 1 0 0 1 0 0 0 0 0 2 0 0 0 0 0 0 0 0 0 0 0 2 17 22 24 15 34 9 8 62
593 880 862 770 569 371 217 33 123 224 54 17 0 0 4 10 8 6 0 0 0 0 2 6 1 0 0 0 0 0 0 0 0 0 0 3 12 7 1 0 1 88 70
869 918 984 826 644 395 255 50 75 205 64 33 40 68 71 39 34 63 34 0 0 0 2 1 0 0 0 0 0 0 0 0 0 0 0 0 0 0 0 2 34 8 2
1164 1018 977 887 696 405 209 69 37 270 106 54 160 95 14 41 100 171 66 27 2 1 47 36 17 0 0 0 0 0 0 0 0 0 0 0 0 1 25 28 27 21 13
1286 1159 984 846 691 434 210 101 42 80 175 77 98 27 11 146 272 180 52 46 1 31 28 0 0 0 0 0 0 0 0 0 0 0 0 0 23 22 40 18 13 22 12
1338 1148 1020 896 692 508 306 158 80 36 51 57 38 24 0 97 144 95 59 25 0 23 3 0 0 0 0 0 0 0 0 0 0 0 0 0 12 28 16 11 9 15 9
1297 1342 1172 976 809 603 415 225 130 26 5 22 23 19 0 1 88 71 41 0 0 0 0 0 0 0 0 0 0 0 0 0 0 0 0 9 2 21 6 3 0 1 2
1115 1255 1236 1072 946 740 594 314 179 43 0 0 0 3 0 0 18 42 5 0 0 0 0 0 0 0 0 0 0 0 0 0 0 0 0 0 0 1 1 0 0 0 0
487 978 1323 1223 1090 926 760 470 224 100 23 1 0 0 0 0 0 0 0 0 0 0 0 0 0 0 0 0 0 0 0 0 0 0 0 0 0 0 0 0 0 0 0
187 422 1115 1365 1234 1079 925 626 331 143 114 101 59 47 0 0 0 0 0 0 0 0 0 0 0 0 0 0 0 0 0 0 0 0 0 0 0 0 0 0 0 0 0
0 117 376 1221 1403 1245 1043 773 505 262 231 238 158 139 38 0 0 0 0 0 0 0 0 0 0 0 0 0 0 0 0 0 0 0 0 0 0 0 0 0 0 0 0
0 0 77 576 1141 1320 1127 947 742 576 427 396 364 250 108 0 0 0 0 0 0 0 0 0 0 0 0 0 0 0 0 0 0 0 0 0 0 0 0 0 0 0 0
0 0 0 223 667 1124 1193 1065 819 732 599 510 486 340 75 0 0 0 0 0 0 0 0 0 0 0 0 0 0 0 0 0 0 0 0 0 0 0 0 0 0 0 0
0 0 0 0 627 962 1003 925 804 713 648 548 491 430 18 0 0 0 0 0 0 0 0 0 0 0 0 0 0 0 0 0 0 0 0 0 0 0 0 0 0 0 0
0 0 0 0 29 918 954 745 665 855 730 624 546 379 0 0 0 0 0 0 0 0 0 0 0 0 0 0 0 0 0 0 0 0 0 0 0 0 0 0 0 0 0
0 0 0 0 0 295 1089 1013 855 836 656 672 403 156 0 0 0 0 0 0 0 0 0 0 0 0 0 0 0 0 0 0 0 0 0 0 0 0 0 0 0 0 0
0 0 0 0 0 0 972 647 160 14 0 38 29 10 0 0 0 0 0 0 0 0 0 0 0 0 0 0 0 0 0 0 0 0 0 0 0 0 0 0 0 0 0
0 0 0 0 0 0 146 617 610 468 248 131 179 0 0 0 0 0 0 0 0 0 0 0 0 0 0 0 0 0 0 0 0 0 0 0 0 0 0 0 0 0 0
0 0 0 0 0 0 0 178 355 448 253 0 0 0 0 0 0 0 0 0 0 0 0 0 0 0 0 0 0 0 0 0 0 0 0 0 0 0 0 0 0 0 0
0 0 0 0 0 0 0 0 43 342 15 0 0 0 0 0 0 0 0 0 0 0 0 0 0 0 0 0 0 0 0 0 0 0 0 0 0 0 0 0 0 0 0

GFSSE_con_mlcape_033.txt.gz
CAPE
206 553 532 523 468 426 651 700 653 510 340 119 4 3 1 0 0 0 0 0 0 0 4 0 5 47 44 45 40 22 0 0 0 0 0 0 0 0 0 0 0 0 0
357 559 403 521 419 372 787 734 572 488 352 160 6 5 4 0 0 0 0 0 1 6 20 57 18 34 49 51 39 14 0 0 0 0 0 0 0 0 0 0 0 0 0
437 481 462 493 464 419 487 547 425 407 364 174 37 12 6 0 0 0 0 0 2 9 10 15 16 25 18 4 0 0 0 0 0 0 0 0 0 0 0 0 0 11 0
451 488 440 458 391 289 138 106 218 271 263 167 53 7 4 0 0 0 0 0 2 10 3 3 3 0 0 0 0 0 0 0 0 0 0 0 0 2 0 0 0 0 2
447 513 453 465 334 141 112 73 60 77 100 100 80 61 1 0 0 0 0 0 1 1 0 0 0 0 0 0 0 0 0 0 0 0 0 0 0 13 2 0 0 0 0
490 530 538 474 325 192 112 32 27 28 98 149 276 42 0 0 0 0 0 0 0 0 0 0 0 0 0 0 0 0 0 0 0 0 0 0 13 34 19 58 47 49 65
499 579 594 496 356 231 70 53 86 84 277 437 254 37 17 5 4 0 0 0 0 0 0 0 0 0 0 0 0 0 0 0 0 0 0 0 21 13 11 0 9 77 98
452 656 695 536 391 272 83 142 198 217 184 210 123 67 34 17 26 23 0 0 0 1 4 4 1 0 0 0 0 0 0 0 0 0 0 0 2 2 0 0 42 24 21
616 657 768 612 473 317 153 114 256 214 118 50 50 28 26 33 44 60 15 0 0 0 22 15 14 13 0 0 0 0 0 0 0 0 0 0 0 0 0 72 24 14 1
677 779 681 685 557 391 286 83 272 235 155 82 48 119 123 112 118 151 71 23 1 18 38 47 61 23 0 0 0 0 0 0 0 0 0 0 0 12 37 33 33 13 10
812 863 817 674 576 388 258 109 147 250 154 137 172 155 76 51 97 231 119 58 4 61 96 68 28 0 0 0 0 0 0 0 0 0 0 6 28 58 26 8 23 11 0
1094 940 973 820 578 414 251 120 59 256 181 110 168 86 24 155 289 253 128 105 26 127 76 5 0 0 0 0 0 0 0 0 0 0 0 19 41 27 9 19 18 11 3
1154 1142 891 783 625 459 275 127 59 57 162 96 72 40 6 124 236 187 113 105 13 99 0 0 0 0 0 0 0 0 0 0 0 0 6 13 26 16 10 4 5 4 2
1253 1253 1131 891 801 552 351 169 82 34 21 54 41 35 0 9 104 106 94 60 0 0 0 0 0 0 0 0 0 0 0 0 0 0 0 0 4 2 0 0 0 0 0
1257 1321 1293 1142 973 688 476 269 142 71 9 3 11 23 12 0 4 49 67 20 0 0 0 0 0 0 0 0 0 0 0 0 0 0 0 0 0 0 0 0 0 0 0
859 1272 1426 1298 1057 816 674 459 236 114 46 0 0 3 12 0 0 27 36 5 0 0 0 0 0 0 0 0 0 0 0 0 0 0 0 0 0 0 0 0 0 0 0
3 348 1281 1359 1164 987 881 663 387 186 95 18 0 0 0 0 0 3 10 0 0 0 0 0 0 0 0 0 0 0 0 0 0 0 0 0 0 0 0 0 0 0 0
0 0 27 1134 1221 1201 1058 805 546 262 124 62 45 25 12 0 0 0 0 0 0 0 0 0 0 0 0 0 0 0 0 0 0 0 0 0 0 0 0 0 0 0 0
0 0 0 33 1001 1218 1168 948 717 537 218 93 123 112 57 12 0 0 0 0 0 0 0 0 0 0 0 0 0 0 0 0 0 0 0 0 0 0 0 0 0 0 0
0 0 0 0 39 829 1178 973 765 581 478 195 236 269 153 33 0 0 0 0 0 0 0 0 0 0 0 0 0 0 0 0 0 0 0 0 0 0 0 0 0 0 0
0 0 0 0 0 62 728 893 779 600 622 438 295 354 171 23 0 0 0 0 0 0 0 0 0 0 0 0 0 0 0 0 0 0 0 0 0 0 0 0 0 0 0
0 0 0 0 0 19 513 798 740 661 618 576 338 247 142 0 0 0 0 0 0 0 0 0 0 0 0 0 0 0 0 0 0 0 0 0 0 0 0 0 0 0 0
0 0 0 0 0 0 175 567 231 94 16 77 148 124 0 0 0 0 0 0 0 0 0 0 0 0 0 0 0 0 0 0 0 0 0 0 0 0 0 0 0 0 0
0 0 0 0 0 0 4 321 296 352 381 226 253 99 0 0 0 0 0 0 0 0 0 0 0 0 0 0 0 0 0 0 0 0 0 0 0 0 0 0 0 0 0
0 0 0 0 0 0 0 21 168 321 363 65 18 7 0 0 0 0 0 0 0 0 0 0 0 0 0 0 0 0 0 0 0 0 0 0 0 0 0 0 0 0 0
0 0 0 0 0 0 0 0 18 106 64 75 9 0 0 0 0 0 0 0 0 0 0 0 0 0 0 0 0 0 0 0 0 0 0 0 0 0 0 0 0 0 0

GFSSE_con_mlcape_036.txt.gz
CAPE
61 594 626 1041 864 740 988 963 874 625 312 124 43 4 0 0 0 0 0 0 0 0 1 2 39 53 50 45 29 0 0 0 0 0 0 0 0 0 0 0 0 0 0
135 687 515 457 466 442 910 855 730 510 178 68 38 5 0 0 0 0 0 0 2 11 35 16 31 48 53 44 26 0 0 0 0 0 0 0 0 0 0 0 0 0 0
337 479 389 362 358 316 908 791 632 509 252 102 45 10 1 0 0 0 0 0 2 21 37 61 57 40 6 0 0 0 0 0 0 0 0 0 0 0 0 0 0 21 0
388 373 335 349 349 516 815 703 514 511 356 135 79 5 5 0 0 0 0 1 8 16 5 0 0 0 0 0 0 0 0 0 0 0 0 0 0 3 0 0 0 0 1
429 387 422 498 486 471 428 447 473 439 386 172 47 26 2 0 0 0 0 1 5 2 0 0 0 0 0 0 0 0 0 0 0 0 0 0 1 14 10 47 9 0 0
423 409 500 503 412 244 152 102 114 181 218 145 132 48 0 0 0 0 0 0 0 0 0 0 0 0 0 0 0 0 0 0 0 0 0 0 17 47 34 19 44 69 96
398 443 539 459 340 234 169 89 69 101 180 225 287 53 4 0 0 0 0 0 0 0 0 0 0 0 1 3 2 0 0 0 0 0 0 0 7 9 0 5 73 68 70
423 531 537 497 320 233 107 82 97 99 255 322 252 71 60 39 23 0 0 0 0 2 3 3 3 5 6 2 0 0 0 0 0 0 0 0 6 0 0 21 13 4 5
533 510 543 453 322 209 114 210 196 198 399 516 242 154 93 67 81 49 4 0 0 17 40 23 28 37 0 0 0 0 0 0 0 0 0 0 0 1 51 39 16 2 3
541 484 495 425 335 208 122 158 245 225 175 223 224 153 100 93 103 146 49 18 10 46 48 39 86 6 0 0 0 0 0 0 0 0 0 0 2 42 41 34 15 3 0
545 528 553 432 361 258 148 79 189 255 161 109 108 127 112 117 141 201 120 59 28 79 139 163 74 0 0 0 0 0 0 0 0 0 0 11 48 28 8 19 12 1 0
530 633 702 626 429 346 257 125 85 250 168 129 123 143 115 86 94 151 182 105 45 107 83 76 6 0 0 0 0 0 0 0 0 0 0 16 37 11 4 17 8 1 0
748 649 818 759 548 413 278 152 41 193 167 121 145 134 64 88 181 203 171 122 60 105 10 0 0 0 0 0 0 0 0 0 0 0 5 13 16 2 0 6 0 0 0
961 911 810 782 675 486 334 165 86 37 165 140 107 119 23 79 190 205 154 102 37 5 0 0 0 0 0 0 0 0 0 0 0 0 0 0 0 0 0 0 0 0 0
1043 991 997 846 733 611 409 224 113 52 36 117 99 70 32 20 92 124 104 79 12 0 0 0 0 0 0 0 0 0 0 0 0 0 0 0 0 0 0 0 0 0 0
1008 1077 985 962 844 665 601 340 183 87 52 28 37 47 30 0 7 48 54 57 1 0 0 0 0 0 0 0 0 0 0 0 0 0 0 0 0 0 0 0 0 0 0
109 844 1089 1166 863 861 814 483 291 161 83 22 1 0 3 0 0 1 26 32 1 0 0 0 0 0 0 0 0 0 0 0 0 0 0 0 0 0 0 0 0 0 0
0 0 662 1208 1160 964 930 671 505 313 155 59 3 0 0 0 0 0 1 16 0 0 0 0 0 0 0 0 0 0 0 0 0 0 0 0 0 0 0 0 0 0 0
0 0 0 264 944 1065 1110 876 681 429 275 132 38 0 0 0 0 0 0 0 0 0 0 0 0 0 0 0 0 0 0 0 0 0 0 0 0 0 0 0 0 0 0
0 0 0 0 29 502 928 954 662 456 352 182 122 54 0 0 0 0 0 0 0 0 0 0 0 0 0 0 0 0 0 0 0 0 0 0 0 0 0 0 0 0 0
0 0 0 0 0 4 588 770 723 616 521 390 279 150 89 8 0 0 0 0 0 0 0 0 0 0 0 0 0 0 0 0 0 0 0 0 0 0 0 0 0 0 0
0 0 0 0 0 0 274 552 703 576 539 522 346 316 167 27 0 0 0 0 0 0 0 0 0 0 0 0 0 0 0 0 0 0 0 0 0 0 0 0 0 0 0
0 0 0 0 0 0 3 227 189 243 87 196 287 350 234 52 2 0 0 0 0 0 0 0 0 0 0 0 0 0 0 0 0 0 0 0 0 0 0 0 0 0 0
0 0 0 0 0 0 0 0 26 61 88 197 430 428 155 65 13 0 0 0 0 0 0 0 0 0 0 0 0 0 0 0 0 0 0 0 0 0 0 0 0 0 0
0 0 0 0 0 0 0 0 0 0 108 175 274 264 74 0 0 0 0 0 0 0 0 0 0 0 0 0 0 0 0 0 0 0 0 0 0 0 0 0 0 0 0
0 0 0 0 0 0 0 0 0 0 35 44 53 152 0 0 0 0 0 0 0 0 0 0 0 0 0 0 0 0 0 0 0 0 0 0 0 0 0 0 0 0 0

GFSSE_con_mlcape_039.txt.gz
CAPE
53 739 1037 1080 814 1015 1159 985 773 626 456 293 117 3 0 0 0 0 0 0 0 0 5 9 55 58 35 20 2 0 0 0 0 0 0 0 0 0 0 0 0 0 3
124 983 817 846 959 964 1079 1026 777 426 189 122 49 2 1 0 0 0 0 0 1 18 0 30 41 39 46 5 0 0 0 0 0 0 0 0 0 0 0 0 0 0 5
362 876 586 530 345 671 967 925 655 277 84 50 39 9 1 0 0 0 0 0 13 26 33 50 49 42 0 0 0 0 0 0 0 0 0 0 0 0 0 0 7 1 0
629 674 339 221 180 594 896 814 637 425 187 97 62 1 0 0 0 0 0 0 8 21 18 6 0 0 0 0 0 0 0 0 0 0 0 0 1 1 0 0 0 0 0
488 409 295 251 245 738 947 803 707 600 296 148 18 0 0 0 0 0 2 4 4 1 0 0 0 0 0 0 1 0 0 0 0 0 0 0 6 26 45 50 27 7 0
428 387 386 283 408 543 595 609 502 512 373 152 39 22 0 0 0 1 2 1 0 0 0 0 0 0 0 0 2 0 0 0 0 0 0 5 25 32 0 62 85 62 94
421 456 460 400 420 296 192 184 293 321 374 151 134 35 0 0 0 0 0 1 0 0 0 0 0 3 5 4 2 0 0 0 0 0 0 7 17 7 1 76 18 9 59
468 526 386 397 363 245 140 111 107 188 159 201 270 58 23 1 0 0 0 0 2 2 2 3 14 26 2 0 0 0 0 0 0 0 0 0 6 0 33 28 6 3 6
516 560 516 473 362 252 122 88 107 126 162 416 251 101 65 47 16 0 0 1 17 30 27 44 75 20 0 0 0 0 0 0 0 0 0 0 0 32 52 23 6 3 3
534 512 494 498 379 237 135 163 144 178 436 476 230 140 87 51 56 37 0 0 24 56 41 52 68 0 0 0 0 0 0 0 0 0 0 0 39 45 31 17 6 1 0
514 540 514 422 347 216 148 188 201 199 196 282 239 179 118 125 124 119 38 21 22 58 75 165 40 0 0 0 0 0 0 0 0 0 0 30 25 11 12 7 5 0 0
441 479 538 487 332 289 159 129 225 282 201 146 155 165 139 136 150 170 137 62 15 93 120 112 1 0 0 0 0 0 0 0 0 0 0 27 19 16 8 0 3 0 0
482 416 489 547 488 377 239 139 95 293 213 153 118 135 130 121 119 150 224 142 95 109 20 1 0 0 0 0 0 0 0 0 0 0 6 13 8 1 0 0 1 0 0
662 549 473 613 686 449 383 224 116 174 217 171 145 114 97 92 111 167 181 153 105 64 0 0 0 0 0 0 0 0 0 0 0 0 3 0 0 0 0 0 0 0 0
679 628 687 650 548 537 361 288 180 85 170 171 138 122 85 71 94 171 160 129 86 3 0 0 0 0 0 0 0 0 0 0 0 0 0 0 0 0 0 0 0 0 0
732 859 773 765 723 623 527 327 272 137 81 134 143 108 76 38 69 117 131 96 62 0 0 0 0 0 0 0 0 0 0 0 0 0 0 0 0 0 0 0 0 0 0
0 588 911 825 711 666 651 522 427 199 100 65 69 90 69 22 21 61 68 64 54 0 0 0 0 0 0 0 0 0 0 0 0 0 0 0 0 0 0 0 0 0 0
0 0 255 913 887 785 761 693 484 441 235 118 65 31 46 31 11 4 19 32 25 0 0 0 0 0 0 0 0 0 0 0 0 0 0 0 0 0 0 0 0 0 0
0 0 0 196 819 949 915 813 602 498 348 266 96 46 19 0 7 0 0 3 1 0 0 0 0 0 0 0 0 0 0 0 0 0 0 0 0 0 0 0 0 0 0
0 0 0 0 76 849 1089 807 642 410 383 339 216 91 35 9 0 0 0 0 0 0 0 0 0 0 0 0 0 0 0 0 0 0 0 0 0 0 0 0 0 0 0
0 0 0 0 0 0 520 741 550 487 534 312 312 229 99 40 0 0 0 0 0 0 0 0 0 0 0 0 0 0 0 0 0 0 0 0 0 0 0 0 0 0 0
0 0 0 0 0 0 0 159 421 470 508 501 302 226 217 90 10 0 0 0 0 0 0 0 0 0 0 0 0 0 0 0 0 0 0 0 0 0 0 0 0 0 0
0 0 0 0 0 0 0 16 278 239 94 287 285 277 259 176 86 59 3 0 0 0 0 0 0 0 0 0 0 0 0 0 0 0 0 0 0 0 0 0 0 0 0
0 0 0 0 0 0 0 0 0 0 16 147 106 314 296 142 91 58 13 0 0 0 0 0 0 0 0 0 0 0 0 0 0 0 0 0 0 0 0 0 0 0 0
0 0 0 0 0 0 0 0 0 0 0 115 164 225 302 37 21 18 18 0 0 0 0 0 0 0 0 0 0 0 0 0 0 0 0 0 0 0 0 0 0 0 0
0 0 0 0 0 0 0 0 0 0 17 36 61 109 144 56 11 1 1 0 0 0 0 0 0 0 0 0 0 0 0 0 0 0 0 0 0 0 0 0 0 0 0

GFSSE_con_mlcape_042.txt.gz
CAPE
475 787 970 838 846 1064 1058 1029 944 787 598 392 187 29 1 0 2 1 0 0 0 0 3 38 70 45 34 6 0 0 0 0 0 0 0 0 0 0 0 0 0 1 0
564 1027 975 902 885 1251 1147 1037 801 613 442 239 34 5 2 0 0 0 0 1 7 0 1 39 45 46 1 0 0 0 0 0 0 0 0 0 0 0 0 0 0 0 0
716 1012 837 943 863 1217 1171 1026 655 396 210 87 11 9 1 0 0 0 0 10 27 5 5 29 47 15 0 0 0 0 0 0 0 0 0 0 0 0 0 0 0 0 0
739 853 726 688 785 1168 1103 918 532 245 54 48 15 4 0 0 0 0 0 19 34 54 28 7 2 0 0 0 0 0 0 0 0 0 3 9 4 0 0 0 0 0 0
694 559 473 281 530 877 1025 861 540 332 120 77 1 0 0 0 0 0 0 6 2 5 4 4 0 0 0 0 0 0 0 0 0 0 8 21 23 15 33 48 39 0 0
653 473 254 246 435 919 921 829 812 558 246 76 0 0 0 0 0 1 2 0 0 0 0 0 0 0 0 0 1 0 0 0 0 0 14 2 19 0 44 76 98 114 69
491 412 307 271 615 743 720 665 745 601 407 94 56 0 0 0 0 1 0 0 0 0 0 0 0 0 1 2 0 0 0 0 1 1 12 14 13 0 52 26 47 31 92
481 405 350 393 434 385 366 413 442 569 437 164 144 23 0 0 0 0 0 0 0 0 1 5 7 7 2 0 0 0 0 0 3 11 9 18 0 6 42 8 1 9 16
578 425 387 409 376 250 146 124 140 271 312 218 185 86 8 0 0 0 0 8 11 13 17 29 43 0 0 0 0 0 0 0 4 1 0 2 1 69 43 13 3 6 2
676 452 301 316 298 159 139 97 87 124 192 281 202 110 67 18 2 0 0 17 33 39 26 128 15 0 0 0 0 0 0 0 0 0 0 0 54 59 28 10 4 4 0
697 539 358 277 196 160 130 118 112 164 289 315 226 138 89 33 50 12 0 0 26 81 56 146 0 0 0 0 0 0 0 0 0 0 0 22 19 19 7 2 2 3 1
541 556 429 314 192 199 130 155 114 127 241 416 305 222 112 47 75 83 35 2 15 88 149 121 0 0 0 0 0 0 0 0 0 0 3 18 21 15 2 0 0 0 0
475 531 510 374 315 268 176 141 149 173 154 133 193 170 75 74 149 147 150 76 0 81 119 35 0 0 0 0 0 0 0 0 0 0 9 16 11 1 1 0 0 0 0
597 494 463 481 447 406 338 243 149 165 181 129 82 69 73 83 114 131 166 140 82 37 80 25 0 0 0 0 0 0 0 0 0 0 8 0 0 0 0 0 0 0 0
638 640 541 470 550 719 544 492 373 179 184 166 126 88 62 64 89 136 163 173 121 53 34 0 0 0 0 0 0 0 0 0 0 0 2 0 0 0 0 0 0 0 0
763 722 636 620 695 618 643 621 609 494 224 207 158 129 110 61 68 145 196 169 161 101 31 0 0 0 0 0 0 0 0 0 0 0 0 1 0 0 0 0 0 0 0
13 283 833 811 844 842 774 677 579 779 535 278 266 169 124 80 65 101 149 200 159 127 37 0 0 0 0 0 0 0 0 0 0 0 0 0 0 0 0 0 0 0 0
0 0 0 424 921 1026 910 757 730 676 726 611 364 262 181 86 56 65 107 132 130 113 31 0 0 0 0 0 0 0 0 0 0 0 0 0 0 0 0 0 0 0 0
0 0 0 0 249 744 995 891 691 933 807 953 745 387 271 165 84 37 41 67 96 80 0 0 0 0 0 0 0 0 0 0 0 0 0 0 0 0 0 0 0 0 0
0 0 0 0 0 132 600 1005 736 700 842 767 935 699 471 269 159 66 29 31 54 56 0 0 0 0 0 0 0 0 0 0 0 0 0 0 0 0 0 0 0 0 0
0 0 0 0 0 0 6 883 745 758 699 521 574 847 745 454 235 99 57 28 24 30 4 0 0 0 0 0 0 0 0 0 0 0 0 0 0 0 0 0 0 0 0
0 0 0 0 0 0 0 36 572 737 705 690 388 304 653 644 378 192 112 54 29 18 3 0 0 0 0 0 0 0 0 0 0 0 0 0 0 0 0 0 0 0 0
0 0 0 0 0 0 0 0 16 386 522 418 355 448 341 645 562 338 152 99 49 0 0 0 0 0 0 0 0 0 0 0 0 0 0 0 0 0 0 0 0 0 0
0 0 0 0 0 0 0 0 0 1 75 84 143 351 565 290 459 513 257 114 31 0 0 0 0 0 0 0 0 0 0 0 0 0 0 0 0 0 0 0 0 0 0
0 0 0 0 0 0 0 0 0 0 0 0 77 261 366 447 192 219 203 230 108 17 0 0 0 0 0 0 0 0 0 0 0 0 0 0 0 0 0 0 0 0 0
0 0 0 0 0 0 0 0 0 0 0 0 37 270 428 394 200 133 115 133 103 77 25 5 0 0 0 0 0 0 0 0 0 0 0 0 0 0 0 0 0 0 0

GFSSE_con_mlcape_045.txt.gz
CAPE
608 854 736 719 945 1083 839 1140 1022 862 699 560 360 162 47 0 0 0 0 0 0 4 5 63 36 14 7 0 0 0 0 0 0 0 0 0 0 0 0 0 1 1 0
779 813 873 665 850 965 1019 1159 778 599 381 221 45 3 0 0 0 0 0 3 0 0 6 48 20 13 0 0 0 0 0 0 0 0 0 0 0 0 0 0 0 0 0
911 993 637 688 843 1058 1152 982 647 545 271 61 16 8 1 0 0 0 6 28 21 0 33 47 30 0 0 0 0 0 0 0 0 0 0 0 0 0 0 0 0 0 0
921 904 810 803 842 1270 1124 809 557 371 152 15 7 4 0 0 0 0 18 39 38 40 39 5 0 0 0 0 0 0 0 0 0 0 3 11 18 18 4 0 0 0 0
872 795 1060 852 889 1158 1038 702 478 196 71 32 0 0 0 0 0 0 15 8 6 4 5 1 0 0 0 0 0 0 0 0 0 2 19 17 11 1 39 97 89 0 0
697 601 493 381 708 1018 855 661 427 158 88 8 0 0 0 0 1 2 5 0 0 2 0 0 0 0 0 0 0 0 0 0 0 8 15 10 1 29 70 98 100 123 113
456 582 358 192 722 751 870 730 619 313 150 23 0 0 0 0 2 6 0 0 0 0 0 0 0 0 1 1 0 0 0 0 7 8 11 15 0 10 25 13 25 50 24
466 481 317 258 600 813 610 687 688 325 198 93 47 0 0 0 0 0 0 0 0 0 0 1 2 1 0 0 0 0 0 0 8 7 4 3 0 39 12 0 0 8 7
450 382 317 395 445 288 321 398 368 458 282 125 86 0 0 0 0 0 0 0 0 0 0 26 17 0 0 0 0 0 0 0 1 0 0 3 9 75 7 0 1 3 2
569 402 348 357 275 243 161 118 151 249 261 183 109 44 0 0 0 0 0 0 1 0 14 74 0 0 0 0 0 0 0 0 0 0 0 0 61 22 5 0 1 4 3
695 460 311 247 219 117 76 77 57 104 170 200 156 76 19 0 0 0 0 0 0 41 29 72 0 0 0 0 0 0 0 0 0 0 9 5 19 15 1 0 0 2 2
719 576 359 222 169 95 80 126 35 30 104 227 201 115 91 14 11 4 0 0 0 56 39 84 0 0 0 0 0 0 0 0 0 0 8 0 8 7 0 0 0 0 0
577 700 474 341 181 134 105 139 97 103 129 244 276 196 131 39 71 55 79 0 0 33 109 72 0 0 0 0 0 0 0 0 0 0 2 0 10 5 0 0 0 0 0
672 577 485 481 341 240 219 123 122 139 143 109 173 167 128 71 95 96 104 56 13 21 91 105 19 0 0 0 0 0 0 0 0 0 0 0 1 0 0 0 0 0 0
665 730 573 528 486 441 383 302 197 175 185 160 88 82 71 69 79 102 113 138 73 36 45 56 21 0 0 0 0 0 0 0 0 0 0 0 0 0 0 0 0 0 0
592 709 756 636 462 550 618 615 667 522 285 268 192 109 56 57 63 92 116 163 126 93 51 43 1 0 0 0 0 0 0 0 0 0 0 0 0 0 0 0 0 0 0
350 499 686 697 669 768 696 679 689 840 679 448 419 246 119 71 58 61 108 169 134 154 93 39 0 0 0 0 0 0 0 0 0 0 0 0 0 0 0 0 0 0 0
0 0 69 625 881 865 924 726 666 664 814 757 601 535 341 173 93 66 94 123 189 190 124 54 1 0 0 0 0 0 0 0 0 0 0 0 0 0 0 0 0 0 0
0 0 0 0 95 686 952 1044 767 649 644 838 1009 748 628 456 232 97 82 107 114 128 117 75 1 0 0 0 0 0 0 0 0 0 0 0 0 0 0 0 0 0 0
0 0 0 0 0 0 120 520 1128 748 733 724 1086 1051 870 665 527 289 123 88 102 107 93 61 1 0 0 0 0 0 0 0 0 0 0 0 0 0 0 0 0 0 0
0 0 0 0 0 0 0 4 534 939 690 674 835 1084 1107 940 725 539 397 179 114 98 125 52 0 0 0 0 0 0 0 0 0 0 0 0 0 0 0 0 0 0 0
0 0 0 0 0 0 0 0 0 838 700 636 522 546 859 1082 927 684 605 478 229 140 134 72 0 0 0 0 0 0 0 0 0 0 0 0 0 0 0 0 0 0 0
0 0 0 0 0 0 0 0 0 0 537 760 784 604 474 661 970 962 675 588 478 246 185 133 20 0 0 0 0 0 0 0 0 0 0 0 0 0 0 0 0 0 0
0 0 0 0 0 0 0 0 0 0 0 308 468 547 554 474 347 820 738 598 593 447 288 195 70 0 0 0 0 0 0 0 0 0 0 0 0 0 0 0 0 0 0
0 0 0 0 0 0 0 0 0 0 0 0 22 82 97 402 628 395 509 586 507 467 413 177 98 10 0 0 0 0 0 0 0 0 0 0 0 0 0 0 0 0 0
0 0 0 0 0 0 0 0 0 0 0 0 0 0 36 325 509 689 381 332 396 370 315 160 128 36 0 0 0 0 0 0 0 0 0 0 0 0 0 0 0 0 0

GFSSE_con_mlcape_048.txt.gz
CAPE
697 410 807 795 1037 1131 1046 1108 1040 852 725 513 370 150 11 1 0 0 0 0 0 1 51 52 22 14 0 0 0 0 0 0 0 0 0 0 0 0 0 0 0 0 0
726 493 809 956 1006 979 1128 994 799 579 319 143 66 7 1 0 0 0 1 1 0 5 49 33 26 0 0 0 0 0 0 0 0 0 0 0 0 0 0 0 0 0 0
739 902 740 790 921 1111 1163 835 497 285 72 17 16 8 0 0 0 0 13 9 0 35 38 42 1 0 0 0 0 0 0 0 0 0 0 0 0 0 0 0 0 0 0
797 690 659 778 895 1105 904 654 499 288 60 11 1 0 0 0 0 13 51 31 25 41 18 0 0 0 0 0 0 0 0 0 0 1 12 18 11 41 34 15 0 0 0
807 661 1017 844 1100 1083 813 587 405 192 38 0 0 0 0 0 0 26 25 13 3 9 6 0 0 0 0 0 0 0 0 0 0 1 0 2 4 58 103 146 46 0 0
755 979 747 784 1091 1075 774 501 248 96 64 0 0 0 0 0 4 13 2 0 0 0 0 0 0 0 0 0 0 0 0 0 0 1 4 5 0 73 89 107 135 150 155
842 757 516 587 978 839 630 391 86 96 37 21 0 0 0 1 6 6 0 0 0 0 0 0 0 0 0 0 0 0 0 0 0 2 0 0 0 10 5 27 7 13 7
620 436 245 461 493 539 616 521 332 186 48 28 0 0 0 1 3 5 0 0 0 0 0 1 1 0 0 0 0 0 0 0 0 0 0 0 1 18 3 0 0 3 2
484 286 122 368 489 507 363 615 532 198 81 37 0 0 0 0 0 0 0 0 0 0 3 12 0 0 0 0 0 0 0 0 0 0 0 0 72 15 3 0 0 5 4
375 298 155 293 274 204 177 228 283 355 122 62 15 0 0 0 0 0 0 0 0 0 32 26 0 0 0 0 0 0 0 0 0 0 0 0 36 12 3 0 0 2 5
423 395 228 298 228 147 121 62 111 175 177 116 53 3 0 0 0 0 0 0 0 0 95 42 0 0 0 0 0 0 0 0 0 0 0 0 13 10 2 0 0 0 3
609 384 313 237 157 82 31 32 5 40 120 140 106 47 19 2 0 0 0 0 0 32 62 58 0 0 0 0 0 0 0 0 0 0 0 0 0 1 0 0 0 0 0
585 598 314 177 116 60 58 63 0 4 42 119 138 90 42 33 3 0 0 0 0 33 22 50 0 0 0 0 0 0 0 0 0 0 0 0 0 3 0 0 0 0 0
377 559 526 276 138 88 93 97 53 45 75 137 167 106 73 50 19 25 35 8 0 0 30 66 6 0 0 0 0 0 0 0 0 0 0 0 0 0 0 0 0 0 0
627 435 484 453 333 199 158 82 72 56 64 64 230 174 148 75 46 64 55 46 23 4 17 100 65 0 0 0 0 0 0 0 0 0 0 0 0 0 0 0 0 0 0
526 592 632 400 484 423 380 313 150 112 112 117 70 39 44 36 43 61 69 94 51 40 12 46 33 0 0 0 0 0 0 0 0 0 0 0 0 0 0 0 0 0 0
358 566 745 613 474 413 392 534 573 602 456 189 210 89 24 12 25 33 43 63 89 68 62 20 13 0 0 0 0 0 0 0 0 0 0 0 0 0 0 0 0 0 0
0 1 546 734 690 569 551 516 524 552 612 711 399 313 154 63 21 19 28 60 101 71 75 29 11 0 0 0 0 0 0 0 0 0 0 0 0 0 0 0 0 0 0
0 0 0 0 418 719 740 779 572 533 524 645 717 611 396 225 112 27 16 38 122 61 77 67 10 0 0 0 0 0 0 0 0 0 0 0 0 0 0 0 0 0 0
0 0 0 0 0 0 154 807 752 610 614 591 560 748 827 541 304 168 71 39 53 87 98 91 36 0 0 0 0 0 0 0 0 0 0 0 0 0 0 0 0 0 0
0 0 0 0 0 0 0 0 314 747 679 627 582 657 912 917 655 411 234 124 79 65 98 93 45 0 0 0 0 0 0 0 0 0 0 0 0 0 0 0 0 0 0
0 0 0 0 0 0 0 0 0 95 486 721 567 460 651 759 806 614 469 258 178 103 87 109 63 3 0 0 0 0 0 0 0 0 0 0 0 0 0 0 0 0 0
0 0 0 0 0 0 0 0 0 0 0 640 585 426 361 449 487 679 677 533 328 189 127 141 99 0 0 0 0 0 0 0 0 0 0 0 0 0 0 0 0 0 0
0 0 0 0 0 0 0 0 0 0 0 0 393 577 563 504 397 421 551 586 552 500 330 173 136 26 0 0 0 0 0 0 0 0 0 0 0 0 0 0 0 0 0
0 0 0 0 0 0 0 0 0 0 0 0 0 0 218 396 455 401 349 316 547 568 542 395 252 159 1 0 0 0 0 0 0 0 0 0 0 0 0 0 0 0 0
0 0 0 0 0 0 0 0 0 0 0 0 0 0 0 3 21 245 423 505 329 308 536 561 452 294 94 0 0 0 0 0 0 0 0 0 0 0 0 0 0 0 0

GFSSE_con_mlcape_051.txt.gz
CAPE
485 755 1134 1493 1360 1186 1120 1137 1060 813 645 487 293 140 37 1 0 0 0 0 0 45 66 46 10 4 3 0 0 0 0 0 0 0 0 0 0 2 2 0 0 0 38
449 876 1188 1418 1186 1212 1206 1011 734 566 415 281 78 14 5 0 0 0 0 0 2 59 25 4 1 2 1 0 0 0 0 0 0 0 0 0 0 0 0 0 0 0 7
419 838 1146 1066 1167 1186 967 755 456 161 8 12 13 10 0 0 0 4 0 0 30 43 37 0 0 0 0 0 0 0 0 0 0 0 0 0 2 0 0 0 0 0 0
398 854 1153 979 1172 1200 883 504 266 30 7 7 0 0 0 0 23 106 5 1 37 26 0 0 0 0 0 0 0 0 0 0 0 8 5 5 27 55 85 0 0 4 52
203 656 1025 973 1087 948 733 447 229 43 6 0 0 0 0 0 29 22 15 15 6 2 0 0 0 0 0 0 0 0 0 0 3 4 3 0 21 82 133 82 29 77 156
489 643 939 1063 1054 880 627 390 204 56 0 0 0 0 0 2 19 10 6 3 2 0 0 0 0 0 0 0 0 0 0 0 1 2 0 0 1 84 92 105 117 114 52
781 698 799 1221 1089 811 562 305 202 51 2 0 0 0 0 4 6 2 0 0 0 0 0 0 0 0 0 0 0 0 0 0 0 0 0 0 0 4 11 8 2 6 13
777 663 683 972 951 686 493 307 267 62 29 0 0 0 1 4 5 1 0 0 0 0 0 0 0 0 0 0 0 0 0 0 0 0 0 0 12 4 5 0 0 1 3
452 376 523 535 601 410 368 316 330 82 52 8 0 0 0 0 3 2 0 0 0 0 0 7 0 0 0 0 0 0 0 0 0 0 0 0 9 7 4 0 0 1 2
256 161 260 375 415 365 372 562 404 116 75 26 10 0 0 0 0 1 0 0 0 15 48 4 0 0 0 0 0 0 0 0 0 0 0 15 25 7 1 0 0 0 4
259 162 147 215 215 164 147 200 273 140 101 37 21 4 0 0 0 0 0 0 19 33 69 13 0 0 0 0 0 0 0 0 0 0 0 21 5 2 0 0 0 0 1
329 231 184 159 98 91 111 110 117 145 119 70 34 10 0 0 0 0 0 0 0 39 106 31 0 0 0 0 0 0 0 0 0 0 2 15 0 0 0 0 0 0 0
393 262 212 246 134 95 65 20 1 35 86 97 67 19 3 1 0 0 0 0 6 32 59 46 0 0 0 0 0 0 0 0 0 0 0 0 0 0 0 0 0 0 0
526 452 300 159 103 29 29 0 0 0 0 32 75 56 24 23 8 5 0 0 0 12 11 17 0 0 0 0 0 0 0 0 0 0 0 0 0 0 0 0 0 0 0
371 484 434 234 34 7 28 0 0 0 0 14 93 72 44 18 10 5 3 2 0 0 2 12 23 1 0 0 0 0 0 0 0 0 0 0 0 0 0 0 0 0 0
570 397 423 415 293 92 25 0 0 0 0 3 109 115 61 28 8 5 16 24 14 7 8 17 44 19 0 0 0 0 0 0 0 0 0 0 0 0 0 0 0 0 0
532 500 441 358 392 342 310 234 117 104 0 0 0 36 100 55 0 0 13 11 18 7 12 7 32 24 0 0 0 0 0 0 0 0 0 0 0 0 0 0 0 0 0
139 360 564 633 427 352 359 346 344 394 452 363 99 87 3 0 0 0 4 15 37 18 2 1 0 0 0 0 0 0 0 0 0 0 0 0 0 0 0 0 0 0 0
0 0 180 690 622 529 360 263 291 359 423 469 453 317 124 98 43 7 0 0 38 56 38 31 23 0 0 0 0 0 0 0 0 0 0 0 0 0 0 0 0 0 0
0 0 0 0 209 447 538 490 464 314 278 326 422 495 532 272 111 61 0 0 15 47 64 50 32 0 0 0 0 0 0 0 0 0 0 0 0 0 0 0 0 0 0
0 0 0 0 0 0 0 126 392 567 487 347 299 412 414 473 382 151 56 35 7 27 60 85 31 33 0 0 0 0 0 0 0 0 0 0 0 0 0 0 0 0 0
0 0 0 0 0 0 0 0 0 29 407 486 516 487 518 305 273 346 191 165 84 23 15 49 44 6 0 0 0 0 0 0 0 0 0 0 0 0 0 0 0 0 0
0 0 0 0 0 0 0 0 0 0 0 0 58 399 535 525 377 226 226 218 203 137 93 36 24 21 28 0 0 0 0 0 0 0 0 0 0 0 0 0 0 0 0
0 0 0 0 0 0 0 0 0 0 0 0 0 161 447 408 365 346 226 123 71 87 202 175 62 11 18 0 0 0 0 0 0 0 0 0 0 0 0 0 0 0 0
0 0 0 0 0 0 0 0 0 0 0 0 0 0 0 0 274 349 384 320 205 69 199 298 242 134 1 3 0 0 0 0 0 0 0 0 0 0 0 0 0 0 0
0 0 0 0 0 0 0 0 0 0 0 0 0 0 0 0 0 55 108 163 211 253 150 163 237 186 124 34 0 0 0 0 0 0 0 0 0 0 0 0 0 0 0

GFSSE_con_mlcape_054.txt.gz
CAPE
845 1048 1492 1336 1286 1230 1172 1100 996 779 632 465 255 126 3 0 0 0 0 0 54 58 35 15 5 4 0 0 0 0 0 0 0 0 0 1 2 9 0 0 0 49 48
782 1120 1472 1398 1328 1243 1195 1120 788 677 489 300 179 21 3 0 0 2 0 23 52 2 1 0 0 1 0 0 0 0 0 0 0 0 0 0 0 0 0 0 0 2 2
642 1215 1499 1448 1324 1261 1015 915 637 460 109 12 7 6 0 0 3 6 3 27 54 4 1 1 0 0 0 0 0 0 0 0 0 0 0 2 0 0 0 0 0 0 0
846 1432 1312 1464 1339 1080 819 621 300 1 0 0 0 0 0 12 160 1 4 46 46 1 0 0 0 0 0 0 0 0 0 0 0 0 0 21 51 69 0 7 22 113 107
799 1174 1064 1360 1295 1073 560 360 51 1 0 0 0 0 0 42 75 13 4 52 0 0 0 0 0 0 0 0 0 0 0 0 0 0 0 2 21 108 35 42 102 151 226
718 1099 1090 1137 1129 887 566 361 89 17 0 0 0 0 0 35 64 62 9 5 3 0 0 0 0 0 0 0 0 0 0 0 0 0 0 0 16 83 100 109 101 51 129
670 964 1128 1090 1020 749 546 327 58 14 0 0 0 0 3 61 41 13 2 2 0 0 0 0 0 0 0 0 0 0 0 0 0 0 0 0 0 5 8 1 6 6 3
476 847 1048 1083 908 705 542 463 133 38 9 0 0 0 3 14 35 1 0 0 0 0 0 0 0 0 0 0 0 0 0 0 0 0 0 0 1 3 4 1 0 0 1
630 740 899 991 776 614 482 464 339 67 18 3 0 0 2 5 6 2 0 0 0 0 0 0 0 0 0 0 0 0 0 0 0 0 0 0 3 6 3 0 0 0 3
597 574 537 745 618 446 336 348 239 109 31 20 7 0 0 0 0 11 0 0 0 2 42 35 0 0 0 0 0 0 0 0 0 0 0 0 18 1 3 0 0 1 3
362 376 420 355 420 317 257 443 247 132 51 34 18 0 0 0 6 12 0 0 24 64 94 47 0 0 0 0 0 0 0 0 0 0 0 39 24 1 0 0 0 0 1
247 250 314 244 192 206 322 441 283 111 63 33 17 1 0 0 0 2 0 1 17 48 80 61 0 0 0 0 0 0 0 0 0 0 0 37 12 0 0 0 0 0 1
215 145 237 196 186 174 122 100 101 99 80 33 17 0 0 0 0 0 0 2 12 34 83 83 8 0 0 0 0 0 0 0 0 0 35 44 26 0 0 0 0 0 0
308 252 187 157 95 63 49 33 31 50 69 70 30 14 0 0 0 0 0 5 6 27 39 33 12 0 0 0 0 0 0 0 0 0 6 25 0 0 0 0 0 0 0
436 378 273 201 116 66 44 0 0 0 0 8 14 17 0 0 0 0 0 2 3 6 11 15 10 1 0 0 0 0 0 0 0 0 0 0 0 0 0 0 0 0 0
418 449 423 158 116 31 36 0 0 0 0 0 0 0 0 0 0 0 0 0 0 0 0 0 0 8 13 0 0 0 0 0 0 0 0 0 0 0 0 0 0 0 0
430 390 458 400 230 5 0 0 0 0 0 0 0 30 63 25 0 0 0 0 0 0 0 0 4 14 25 3 0 0 0 0 0 0 0 0 0 0 0 0 0 0 1
346 510 394 394 400 273 121 18 3 44 23 0 0 0 65 86 1 0 0 0 0 0 0 0 0 0 2 4 0 0 0 0 0 0 0 0 0 0 0 0 0 0 0
0 221 469 474 506 376 310 264 243 169 246 382 153 2 0 4 15 0 0 0 0 0 0 0 0 0 0 0 0 0 0 0 0 0 0 0 0 0 0 0 0 0 0
0 0 0 292 562 580 415 280 257 167 205 234 378 404 298 106 0 0 0 2 0 0 8 8 18 0 0 0 0 0 0 0 0 0 0 0 0 0 0 0 0 0 0
0 0 0 0 0 23 260 324 345 371 314 184 167 230 293 390 392 155 0 0 0 0 6 18 27 27 0 0 0 0 0 0 0 0 0 0 0 0 0 0 0 0 0
0 0 0 0 0 0 0 0 0 191 298 311 213 176 178 176 125 106 69 59 1 0 3 0 12 16 0 0 0 0 0 0 0 0 0 0 0 0 0 0 0 0 0
0 0 0 0 0 0 0 0 0 0 0 0 0 8 54 217 311 239 156 84 62 0 0 0 0 0 31 0 0 0 0 0 0 0 0 0 0 0 0 0 0 0 0
0 0 0 0 0 0 0 0 0 0 0 0 0 0 0 25 119 262 285 182 112 75 36 0 0 0 0 0 0 0 0 0 0 0 0 0 0 0 0 0 0 0 0
0 0 0 0 0 0 0 0 0 0 0 0 0 0 0 0 0 0 2 144 97 30 28 22 21 1 0 8 0 0 0 0 0 0 0 0 0 0 0 0 0 0 0
0 0 0 0 0 0 0 0 0 0 0 0 0 0 0 0 0 0 0 0 38 33 10 30 18 15 0 0 3 0 0 0 0 0 0 0 0 0 0 0 0 0 0

GFSSE_con_mlcape_057.txt.gz
CAPE
501 1016 1277 1235 1155 1125 1106 1066 992 735 621 460 234 29 0 0 0 0 0 30 31 34 24 4 2 3 0 0 0 0 0 0 0 0 0 0 4 0 0 1 31 40 62
732 1298 1200 1186 1202 1193 1168 1093 898 721 488 351 197 2 0 0 0 0 10 63 1 0 0 0 1 1 0 0 0 0 0 0 0 0 0 0 0 0 0 0 1 9 14
769 1398 1279 1151 1274 1216 1177 888 724 560 349 129 6 0 0 1 1 0 32 37 3 2 0 0 0 0 0 0 0 0 0 0 0 0 0 0 0 0 0 0 0 0 0
792 1410 1380 1332 1302 1193 926 714 551 323 43 0 0 0 0 10 2 1 47 85 5 1 0 0 0 0 0 0 0 0 0 0 0 0 0 5 9 0 12 29 115 90 8
884 1320 1397 1389 1327 1000 817 602 155 1 0 0 0 0 11 167 0 3 166 66 0 0 0 0 0 0 0 0 0 0 0 0 0 0 0 0 20 1 39 86 68 165 128
958 1065 1257 1374 1139 884 663 330 56 25 32 0 0 0 76 143 75 0 115 0 0 0 0 0 0 0 0 0 0 0 0 0 0 0 0 21 30 126 124 118 62 62 139
957 1011 1103 1155 1024 841 562 239 66 29 0 0 0 0 146 97 90 99 2 2 0 0 0 0 0 0 0 0 0 0 0 0 0 0 0 0 24 29 22 10 16 2 8
957 1058 1010 981 937 834 542 208 58 21 0 0 0 2 134 97 82 52 47 17 0 0 0 0 0 0 0 0 0 0 0 0 0 0 0 0 0 0 1 0 0 0 0
1007 991 990 844 817 746 591 267 82 37 12 0 0 0 12 38 49 39 55 41 0 0 0 0 0 0 0 0 0 0 0 0 0 0 0 0 2 2 4 0 0 0 0
714 728 676 773 709 616 547 428 160 56 25 9 2 10 16 9 8 36 36 37 25 1 1 12 2 0 0 0 0 0 0 0 0 0 0 0 1 0 0 0 0 1 3
613 616 596 690 659 437 324 401 282 117 34 17 4 2 6 5 10 14 8 14 15 23 55 42 24 0 0 0 0 0 0 0 0 0 0 31 64 3 0 0 0 0 1
571 481 514 594 486 330 253 287 264 135 37 16 2 0 0 0 7 17 10 16 22 45 60 61 16 0 0 0 0 0 0 0 0 0 0 83 74 20 0 0 0 0 0
454 389 449 380 369 270 251 296 233 102 37 9 0 0 0 0 0 1 0 2 11 46 45 77 33 1 0 0 0 0 0 0 0 0 23 91 81 38 0 0 0 0 0
349 317 358 275 186 197 180 273 256 121 43 6 4 0 0 0 0 0 0 0 0 9 19 49 30 7 0 0 0 0 0 0 0 0 15 76 83 39 0 0 0 0 0
374 251 233 253 188 144 99 80 55 55 54 31 0 0 0 0 0 0 0 0 0 0 13 21 16 7 2 0 0 0 0 0 0 0 4 42 60 34 8 0 0 0 0
402 367 292 205 179 95 75 29 7 5 8 8 8 0 0 0 0 0 0 0 0 0 0 4 2 0 0 0 0 0 0 0 0 0 0 1 23 36 20 0 0 0 0
433 395 443 320 182 138 90 56 0 0 0 0 0 0 0 0 0 0 0 0 0 0 0 0 0 0 0 0 0 0 0 0 0 0 0 0 0 11 1 0 0 0 1
231 372 349 455 237 108 128 71 9 0 0 0 0 0 0 0 0 0 0 0 0 0 0 0 0 0 0 0 0 0 0 0 0 0 0 0 0 0 2 0 0 0 1
197 299 459 335 401 210 63 0 0 0 0 0 0 0 0 0 0 0 0 0 0 0 0 0 0 0 0 0 0 0 0 0 0 0 0 0 0 0 0 0 0 0 0
0 0 66 319 384 302 237 107 43 44 48 134 205 127 0 0 0 0 0 0 0 0 0 0 0 0 0 0 0 0 0 0 0 0 0 0 0 0 0 0 0 0 0
0 0 0 0 0 214 373 302 211 257 208 120 135 257 282 240 136 0 0 0 0 0 0 0 0 0 0 0 0 0 0 0 0 0 0 0 0 0 0 0 0 0 0
0 0 0 0 0 0 0 0 126 244 267 253 193 196 137 135 141 135 83 0 0 0 0 0 0 0 0 0 0 0 0 0 0 0 0 0 0 0 0 0 0 0 0
0 0 0 0 0 0 0 0 0 0 0 0 0 0 15 19 51 108 133 109 18 0 0 0 0 0 21 0 0 0 0 0 0 0 0 0 0 0 0 0 0 0 0
0 0 0 0 0 0 0 0 0 0 0 0 0 0 0 0 0 0 13 71 128 50 14 12 0 0 0 0 0 0 0 0 0 0 0 0 0 0 0 0 0 0 0
0 0 0 0 0 0 0 0 0 0 0 0 0 0 0 0 0 0 0 0 0 2 36 36 1 0 0 12 0 0 0 0 0 0 0 0 0 0 0 0 0 0 0
0 0 0 0 0 0 0 0 0 0 0 0 0 0 0 0 0 0 0 0 0 0 0 24 19 0 0 2 3 2 0 0 0 0 0 0 0 0 0 0 0 0 0

GFSSE_con_mlcape_060.txt.gz
CAPE
236 1006 1083 1223 1272 1216 1208 1077 953 782 546 350 136 0 0 0 0 0 16 26 30 4 2 3 3 2 0 0 0 0 0 0 0 0 0 0 0 2 7 34 31 38 42
435 1262 1132 1175 1250 1184 1123 1094 881 685 473 320 95 0 0 0 0 1 81 4 0 0 0 3 5 0 0 0 0 0 0 0 0 0 0 0 0 0 0 0 0 3 5
591 1353 1123 1069 1212 1165 1144 1028 658 642 467 267 29 0 0 1 0 109 97 0 2 0 0 0 1 0 1 0 0 0 0 0 0 0 0 0 0 0 0 0 0 0 0
1024 1193 1047 1231 1257 1219 1049 744 651 537 122 16 0 0 0 1 2 206 84 1 2 0 0 0 0 0 0 0 0 0 0 0 0 0 0 0 0 4 75 131 144 47 0
1208 1174 1180 1251 1299 1144 897 790 476 112 0 0 0 0 64 2 24 144 196 18 0 0 0 0 0 0 0 0 0 0 0 0 0 0 0 0 0 54 107 104 133 159 131
1181 1179 1393 1328 1223 1038 856 489 97 5 0 0 0 0 157 3 36 388 116 6 0 0 0 0 0 0 0 0 0 0 0 0 0 0 0 37 95 177 145 110 54 63 95
1001 1121 1320 1334 1120 925 734 181 73 16 7 0 0 73 284 278 101 330 36 1 0 0 0 0 0 0 0 0 0 0 0 0 0 0 0 0 3 6 31 15 0 0 2
838 1091 928 1041 1021 776 504 228 48 14 0 0 0 100 113 59 81 71 49 16 0 0 0 0 0 0 0 0 0 0 0 0 0 0 0 0 0 0 1 0 0 0 0
1050 912 887 855 886 635 424 186 45 17 0 0 0 35 69 49 68 89 84 65 24 0 0 0 0 0 0 0 0 0 0 0 0 0 0 0 1 1 1 0 0 0 0
986 877 788 783 778 662 430 183 57 30 11 0 0 17 20 23 30 55 51 47 33 10 13 24 12 0 0 0 0 0 0 0 0 0 0 0 33 1 0 0 0 0 0
943 820 757 654 651 542 458 232 105 46 18 8 0 5 22 11 15 28 24 24 25 19 23 29 18 0 0 0 0 0 0 0 0 0 0 15 82 29 0 0 0 0 0
541 534 566 552 511 474 416 371 194 84 28 10 0 0 0 2 8 19 16 22 34 36 46 45 27 4 0 0 0 0 0 0 0 0 3 39 118 70 0 0 0 0 0
432 498 452 614 555 435 317 216 217 113 33 8 0 0 0 0 0 8 3 4 9 33 43 60 35 5 0 0 0 0 0 0 0 0 4 44 134 101 27 0 0 0 0
564 507 460 532 495 340 236 170 187 127 50 11 0 0 0 0 0 0 0 0 0 0 10 12 24 10 0 0 0 0 0 0 0 0 0 17 94 111 46 0 0 0 0
600 421 399 401 311 224 179 182 200 174 82 27 0 0 0 0 0 0 0 0 0 0 0 0 4 6 0 0 0 0 0 0 0 0 0 0 37 78 48 15 0 0 0
526 386 318 342 255 148 126 97 109 116 79 41 15 0 0 0 0 0 0 0 0 0 0 0 0 0 0 0 0 0 0 0 0 0 0 0 3 36 42 26 3 0 0
507 387 335 264 263 191 155 98 50 18 2 32 25 0 0 0 0 0 0 0 0 0 0 0 0 0 0 0 0 0 0 0 0 0 0 0 0 3 32 37 15 2 1
452 507 449 416 305 235 183 111 39 0 0 0 0 0 0 0 0 0 0 0 0 0 0 0 0 0 0 0 0 0 0 0 0 0 0 0 0 0 4 33 10 0 0
247 286 366 386 484 313 121 134 82 18 0 0 0 0 0 0 0 0 0 0 0 0 0 0 0 0 0 0 0 0 0 0 0 0 0 0 0 0 0 0 6 0 0
0 18 149 326 323 306 144 53 64 57 32 0 0 0 0 0 0 0 0 0 0 0 0 0 0 0 0 0 0 0 0 0 0 0 0 0 0 0 0 0 0 0 0
0 0 0 0 64 265 248 235 142 117 38 26 0 101 155 106 0 0 0 0 0 0 0 0 0 0 0 0 0 0 0 0 0 0 0 0 0 0 0 0 0 0 0
0 0 0 0 0 0 19 91 196 208 164 162 113 105 72 88 104 99 74 13 0 0 0 0 0 0 0 0 0 0 0 0 0 0 0 0 0 0 0 0 0 0 0
0 0 0 0 0 0 0 0 0 0 0 0 0 8 0 0 13 15 33 65 58 4 2 0 0 0 0 0 0 0 3 0 0 0 0 0 0 0 0 0 0 0 0
0 0 0 0 0 0 0 0 0 0 0 0 0 0 0 0 0 0 0 0 5 0 28 12 0 0 0 0 0 0 0 0 4 3 0 0 0 0 0 0 0 0 0
0 0 0 0 0 0 0 0 0 0 0 0 0 0 0 0 0 0 0 0 0 0 0 0 0 11 0 0 0 0 0 0 0 0 0 0 0 0 0 0 0 0 0
0 0 0 0 0 0 0 0 0 0 0 0 0 0 0 0 0 0 0 0 0 0 0 0 0 0 0 0 0 0 0 0 0 0 0 0 0 0 0 0 0 0 0

GFSSE_con_mlcape_063.txt.gz
CAPE
222 1017 1038 1442 1256 1247 1028 789 767 505 332 231 80 1 0 0 0 34 56 21 5 4 3 4 0 1 0 0 0 0 0 0 0 0 0 0 4 17 28 20 27 34 29
421 1445 1083 1398 1271 1289 1033 929 729 517 407 255 55 0 0 0 1 134 54 0 0 0 3 3 4 3 1 1 0 1 0 0 0 0 0 0 0 0 0 0 0 2 0
834 1318 1096 1139 1073 1002 1081 863 711 565 336 93 1 0 0 1 170 206 0 3 1 0 1 5 1 3 0 0 0 0 0 0 0 0 0 0 1 28 70 1 0 0 0
1124 1242 1079 921 1002 1138 1132 954 772 489 238 77 0 0 0 40 300 96 2 5 0 0 1 0 0 2 0 0 0 0 0 0 0 0 2 0 3 97 129 172 39 0 54
1223 1163 1168 1189 1240 1241 948 877 441 129 19 0 0 0 0 77 273 262 24 1 0 0 0 0 0 0 0 0 0 0 0 0 0 0 35 2 11 104 128 150 162 174 148
1189 1192 1322 1272 1273 1084 922 568 227 37 0 0 0 8 118 75 305 376 53 0 0 0 0 0 0 0 0 0 0 0 0 0 0 0 7 84 163 139 70 45 1 1 25
1112 1290 1381 1309 1228 977 725 321 162 39 0 0 0 164 28 51 510 166 32 0 0 0 0 0 0 0 0 0 0 0 0 0 0 0 0 0 5 0 3 1 0 0 0
1071 1415 1364 1181 1057 877 459 242 124 21 0 0 21 134 187 299 287 65 34 5 0 0 0 2 0 0 0 0 0 0 0 0 0 0 0 0 0 2 1 0 0 0 0
1062 1153 1116 1093 917 743 380 201 62 6 0 0 41 76 25 46 69 84 55 32 19 0 0 19 0 0 0 0 0 0 0 0 0 0 0 0 0 0 0 0 0 0 0
1066 912 815 923 852 666 373 142 40 7 0 0 16 47 32 30 46 58 51 41 23 0 0 0 0 0 0 0 0 0 0 0 0 0 0 9 30 1 0 0 0 0 0
1052 828 889 879 806 624 400 196 45 23 4 0 0 15 14 23 31 41 27 24 24 12 20 25 17 0 0 0 0 0 0 0 0 0 3 0 48 17 0 0 0 0 0
849 829 692 795 750 679 498 300 121 50 26 9 1 0 5 6 7 13 15 11 24 27 37 43 21 0 0 0 0 0 0 0 0 0 0 5 40 67 5 0 0 0 0
618 646 556 684 686 633 542 418 248 88 36 18 1 0 0 0 0 5 6 7 15 19 36 45 31 7 0 0 0 0 0 0 0 0 0 0 37 109 45 0 0 0 0
480 523 581 616 579 565 446 369 289 191 59 23 2 0 0 0 0 0 0 0 0 0 6 13 16 14 2 0 0 0 0 0 0 0 0 0 13 106 89 21 0 0 0
527 561 546 582 635 521 436 301 264 228 127 44 11 0 0 0 0 0 0 0 0 0 0 0 0 2 0 0 0 0 0 0 0 0 0 0 0 32 87 42 13 0 0
507 640 534 521 540 485 358 272 268 255 228 107 44 7 0 0 0 0 0 0 0 0 0 0 0 0 0 0 0 0 0 0 0 0 0 0 0 0 31 51 24 11 4
367 601 483 477 458 342 287 242 238 258 217 171 86 38 0 0 0 0 0 0 0 0 0 0 0 0 0 0 0 0 0 0 0 0 0 0 0 0 0 38 38 23 9
501 599 438 368 354 380 293 255 208 131 102 69 53 45 25 0 0 0 0 0 0 0 0 0 0 0 0 0 0 0 0 0 0 0 0 0 0 0 0 0 33 48 29
429 493 466 447 489 395 317 249 195 111 45 14 0 0 0 0 0 0 0 0 0 0 0 0 0 0 0 0 0 0 0 0 0 0 0 0 0 0 0 0 0 26 35
10 264 317 371 413 428 307 158 88 85 69 42 33 0 0 0 0 0 0 0 0 0 3 8 0 0 0 0 0 0 0 0 0 0 0 0 0 0 0 0 0 0 2
0 0 11 165 346 360 318 307 229 235 194 147 63 2 0 0 0 0 0 0 0 0 0 0 0 0 0 0 0 0 0 0 0 0 0 0 0 0 0 0 0 0 0
0 0 0 0 0 113 282 256 261 251 182 132 65 46 28 59 56 51 0 0 0 0 0 0 0 0 0 0 0 0 0 0 0 0 0 0 0 0 0 0 0 0 0
0 0 0 0 0 0 0 0 0 0 0 0 17 21 0 0 0 1 2 3 2 0 0 12 1 0 25 0 0 18 6 3 0 0 0 0 0 0 0 0 0 0 0
0 0 0 0 0 0 0 0 0 0 0 0 0 0 0 0 0 0 0 0 0 0 1 0 0 0 2 1 0 0 0 0 2 0 0 0 0 0 0 0 0 0 0
0 0 0 0 0 0 0 0 0 0 0 0 0 0 0 0 0 0 0 0 0 0 0 0 1 0 0 3 0 0 0 0 0 0 0 2 0 0 0 0 0 0 0
0 0 0 0 0 0 0 0 0 0 0 0 0 0 0 0 0 0 0 0 0 0 0 0 1 3 0 0 0 0 1 3 1 0 0 0 0 0 0 0 0 0 0

GFSSE_con_mlcape_066.txt.gz
CAPE
689 1169 1259 1231 1194 946 798 763 686 443 254 188 62 4 0 0 55 148 114 11 8 4 6 5 3 2 1 0 0 0 0 0 0 0 0 0 9 23 29 26 35 11 2
632 1000 1388 1416 1360 1157 803 729 511 342 258 164 18 0 0 53 177 208 2 0 2 7 1 4 4 7 5 4 4 4 3 0 0 0 0 0 0 0 0 0 0 0 0
606 938 1159 1497 1326 1154 940 806 608 469 194 59 0 0 1 159 255 0 5 2 0 1 6 7 8 4 0 0 0 0 0 0 0 0 0 25 74 110 71 0 0 0 99
970 821 898 1224 1156 1144 1010 813 673 405 161 12 8 1 174 386 69 20 5 0 0 1 2 5 5 1 0 0 0 0 0 0 0 4 17 25 21 118 157 41 35 116 160
910 659 940 962 1118 1212 964 905 417 181 54 0 0 1 165 548 250 116 3 0 0 0 0 1 1 0 0 0 0 0 0 0 0 18 20 72 76 104 86 111 90 59 125
784 730 909 999 1306 1172 976 503 181 34 0 0 20 43 134 427 557 173 0 0 0 0 0 0 0 0 0 0 0 0 0 0 0 1 11 56 6 46 13 0 0 0 0
729 809 1013 1211 1248 1065 667 310 121 31 0 3 11 235 92 547 384 86 0 0 0 0 0 0 0 0 0 0 0 0 0 0 0 0 0 1 0 0 0 0 0 0 0
701 941 1018 1297 1097 953 513 254 126 60 0 45 221 114 58 487 178 24 4 0 0 0 0 0 0 0 0 0 0 0 0 0 0 0 0 2 0 0 0 0 0 0 0
799 1026 1211 1285 924 712 368 237 128 11 0 52 175 99 169 97 59 43 31 33 3 0 19 10 0 0 0 0 0 0 0 0 0 0 0 1 0 0 0 0 0 0 0
969 1203 999 1010 768 622 342 192 40 1 0 33 72 34 23 26 49 49 40 40 20 0 7 17 10 0 0 0 0 0 0 0 0 0 0 5 13 1 0 0 0 0 0
1124 1099 1019 934 720 658 513 253 16 0 0 0 43 28 19 42 46 38 29 24 19 5 9 16 7 0 0 0 0 0 0 0 0 0 0 0 15 22 1 0 0 0 0
1110 692 770 979 918 707 569 354 221 53 21 0 0 2 0 1 6 28 27 13 19 19 14 21 10 0 0 0 0 0 0 0 0 0 0 0 5 108 18 0 0 0 0
1009 1000 985 1067 1026 704 599 487 357 214 85 35 3 0 0 0 0 0 0 3 27 11 3 8 21 5 0 0 0 0 0 0 0 0 0 0 0 82 108 9 0 0 0
866 689 685 809 1033 762 687 591 470 308 234 86 45 24 6 0 0 0 0 0 0 0 0 0 0 0 0 0 0 0 0 0 0 0 0 0 0 18 106 88 6 0 0
887 915 912 913 810 821 759 666 519 418 319 268 118 53 25 5 0 0 0 0 0 0 0 0 0 0 0 0 0 0 0 0 0 0 0 0 0 0 34 76 68 17 1
840 986 1111 887 886 996 898 765 497 468 426 414 264 131 50 19 0 0 0 0 0 0 0 0 0 0 0 0 0 0 0 0 0 0 0 0 0 0 0 34 51 7 8
716 778 1058 971 996 968 924 760 611 547 439 421 383 274 104 48 20 0 0 0 0 0 0 0 0 0 0 0 10 0 0 0 0 0 0 0 0 0 0 0 31 41 6
713 614 720 709 808 855 715 676 647 642 592 519 461 382 266 115 58 31 4 0 27 4 0 0 0 5 24 28 27 30 19 16 22 19 13 0 0 0 0 0 0 16 64
683 784 721 650 632 727 756 676 646 616 593 506 402 336 293 224 122 80 61 53 45 56 44 33 45 52 78 122 115 65 50 49 48 42 50 46 10 0 0 0 0 0 0
44 565 691 688 708 755 735 761 689 623 572 558 463 334 188 112 82 118 136 126 94 84 116 161 158 177 172 156 147 22 40 46 42 36 45 36 0 0 0 0 0 0 0
0 0 348 575 653 761 805 761 743 785 694 643 593 548 339 178 79 83 161 241 328 287 283 299 290 251 189 232 51 25 44 14 0 0 0 0 0 0 0 0 0 0 0
0 0 0 5 315 657 799 818 803 833 780 681 627 528 351 268 305 390 397 462 444 343 359 346 268 139 93 143 48 53 16 5 10 0 0 0 0 0 0 0 0 0 0
0 0 0 0 0 2 376 185 109 59 87 197 350 442 245 46 138 103 91 87 89 39 42 62 63 52 56 52 2 58 33 8 10 1 0 0 0 0 0 0 0 0 0
0 0 0 0 0 0 0 1 26 132 171 17 0 0 0 0 0 0 0 0 0 1 1 3 4 4 6 3 1 1 16 12 28 17 10 0 0 0 0 0 0 0 0
0 0 0 0 0 0 0 0 0 0 0 0 0 0 0 0 0 0 0 0 0 0 0 0 0 2 5 7 5 2 1 3 1 3 3 6 0 0 0 0 0 0 0
0 0 0 0 0 0 0 0 0 0 0 0 0 0 0 0 0 0 0 0 0 0 0 0 1 1 3 3 8 8 7 7 8 0 1 0 1 0 1 0 0 0 0

GFSSE_con_mlcape_069.txt.gz
CAPE
922 1260 1246 995 944 596 712 589 484 330 175 178 66 0 0 155 187 124 0 0 1 10 51 5 5 6 2 0 0 0 0 0 0 0 0 0 0 17 13 3 4 0 0
916 1147 1262 1188 1041 954 769 524 416 242 185 103 0 0 16 259 242 0 0 0 7 5 20 5 1 5 4 4 4 3 3 0 0 0 0 17 22 0 0 0 0 5 2
870 1092 1175 1312 1200 996 695 696 473 355 155 19 0 0 365 268 0 1 0 0 4 12 13 4 5 1 0 0 0 0 0 0 0 0 8 30 63 59 0 0 96 150 181
706 982 1176 1367 1216 1092 936 715 466 171 36 16 6 111 390 65 20 4 0 1 5 7 8 3 3 0 0 0 0 0 0 0 0 8 23 26 22 133 172 144 70 136 8
706 749 1409 1387 1339 1097 886 698 418 130 15 4 28 236 489 226 133 5 0 1 2 3 8 4 1 0 0 0 0 0 0 0 0 12 30 13 12 7 13 3 2 2 65
594 717 968 1298 1176 1052 897 536 207 13 0 4 35 137 593 499 234 2 0 0 0 0 2 1 0 0 0 0 0 0 0 0 0 2 6 0 2 2 0 0 0 0 0
519 1099 941 1151 1182 980 662 274 70 2 0 53 128 88 540 602 191 0 0 0 0 0 1 2 0 0 0 0 0 0 0 0 0 0 0 0 0 0 0 0 0 0 0
633 798 1031 1250 1039 785 464 158 72 3 47 102 152 39 418 503 101 42 0 0 0 0 0 0 0 0 0 0 0 0 0 0 0 0 0 0 0 0 0 0 0 0 0
714 623 695 1260 912 568 286 141 76 0 90 270 199 113 162 124 26 41 39 18 0 0 0 0 0 0 0 0 0 0 0 0 0 0 0 8 0 0 0 0 0 0 0
817 637 1117 1080 698 535 252 138 13 0 24 144 99 70 40 38 43 42 24 36 3 0 2 7 0 0 0 0 0 0 0 0 0 0 0 2 2 9 0 0 0 0 0
1006 1028 1331 824 557 413 304 176 0 0 0 34 21 9 9 36 35 11 38 16 8 3 6 6 4 0 0 0 0 0 0 0 0 0 0 0 0 19 0 0 0 0 0
998 1136 840 681 600 548 396 226 104 7 0 0 8 18 11 11 26 34 26 2 7 4 0 7 2 0 0 0 0 0 0 0 0 0 0 0 0 38 19 0 0 0 0
1031 716 668 820 705 615 442 353 240 137 38 0 0 0 0 0 0 0 2 0 3 3 3 0 8 5 0 0 0 0 0 0 0 0 0 0 0 0 74 4 0 0 0
997 728 1078 972 876 627 502 455 337 215 163 42 8 1 0 0 0 0 0 0 0 0 0 0 0 0 0 0 0 0 0 0 0 0 0 0 0 0 6 70 4 0 0
928 788 747 863 982 639 564 498 422 330 248 217 107 32 16 1 0 0 0 0 0 0 0 0 0 0 0 0 0 0 0 0 0 0 0 0 0 0 0 12 9 17 2
908 899 999 885 903 592 710 582 466 339 357 337 245 136 40 17 1 0 0 0 0 0 0 0 0 0 7 11 2 2 0 0 0 0 0 0 0 0 0 0 7 0 8
907 1134 901 960 769 844 846 763 544 336 338 311 240 246 180 65 32 0 0 26 19 0 0 0 0 0 0 1 0 1 3 12 0 0 0 0 0 0 0 0 0 0 0
961 1035 1087 1018 893 827 677 597 439 471 375 379 432 445 344 196 119 60 27 38 89 107 61 48 51 51 41 28 36 39 31 11 24 31 32 36 4 0 0 0 0 0 0
797 872 1067 1157 1023 967 794 701 633 605 615 661 613 578 547 458 339 274 201 170 143 182 196 179 151 148 115 88 69 76 60 119 109 93 78 80 67 42 0 0 0 0 0
464 811 1038 1096 1011 945 937 921 862 822 834 833 722 614 530 489 455 427 400 376 315 243 223 226 176 151 187 204 153 69 157 93 102 114 92 76 59 39 2 0 0 0 0
0 262 838 1023 1012 969 965 932 905 931 952 943 866 800 682 573 437 383 418 456 345 374 397 282 191 244 210 266 44 103 101 116 71 0 0 0 1 0 0 0 0 0 0
0 0 0 620 818 907 946 1001 1061 1098 1155 1034 1002 976 938 788 551 433 410 416 439 522 568 415 258 140 155 170 72 51 7 0 0 39 0 0 0 0 0 0 0 0 0
0 0 0 0 96 539 844 959 880 617 593 629 764 803 725 533 553 429 374 239 186 162 140 133 101 31 23 6 55 39 15 8 10 0 0 0 0 0 0 0 0 0 0
0 0 0 0 0 0 18 518 337 373 476 522 255 192 31 0 0 0 0 0 0 0 3 3 2 2 6 6 24 8 11 28 23 21 21 0 0 0 0 0 0 0 0
0 0 0 0 0 0 0 0 4 47 0 0 0 0 0 0 0 0 0 0 0 0 0 0 0 0 1 4 2 13 11 13 12 18 24 6 7 2 1 2 0 1 0
0 0 0 0 0 0 0 0 0 0 0 0 0 0 0 0 0 0 0 0 0 0 0 0 0 0 2 1 4 4 7 9 0 2 6 11 24 20 0 0 2 0 0

GFSSE_con_mlcape_072.txt.gz
CAPE
1110 854 841 985 859 697 626 558 357 168 128 144 1 0 196 238 55 0 1 4 151 89 13 7 2 8 4 3 2 0 0 0 0 0 5 0 0 0 0 2 2 0 0
1103 1028 844 990 861 803 624 469 233 104 67 0 0 0 275 34 0 0 1 7 21 18 15 12 3 8 4 2 1 0 0 0 0 1 17 9 0 0 0 69 89 147 0
1079 1151 932 1055 1007 825 691 432 235 147 13 0 0 373 175 2 1 0 1 10 20 16 10 3 6 5 1 0 0 0 0 0 5 10 20 15 1 66 102 13 85 2 0
1125 1097 1228 1207 968 863 789 470 128 10 0 0 35 402 25 8 0 0 3 9 12 2 1 6 6 2 1 0 0 0 0 1 1 22 11 0 3 18 35 6 3 84 97
1033 1139 1198 1262 1013 950 723 352 103 0 2 0 227 330 114 81 1 0 3 6 9 3 4 5 2 0 0 0 0 0 0 0 1 0 0 0 0 4 0 0 0 0 3
714 1337 1139 1216 1077 896 634 435 121 0 1 13 229 503 350 124 0 0 0 0 0 4 5 1 0 0 0 0 0 0 0 0 0 0 0 0 0 0 0 0 0 0 0
1297 1145 1106 1242 1024 809 555 149 0 0 12 51 169 610 554 146 0 0 0 0 0 0 0 0 0 0 0 0 0 0 0 0 0 0 0 0 0 0 0 0 0 0 0
1023 1011 1173 1025 860 695 304 28 0 0 86 69 57 336 661 116 7 0 0 0 0 0 0 0 0 0 0 0 0 0 0 0 0 0 0 0 0 0 0 0 0 0 0
747 939 1197 988 658 455 135 47 0 43 159 149 21 169 313 43 15 23 0 0 7 0 0 0 0 0 0 0 0 0 0 0 0 0 6 0 0 0 0 0 0 0 0
641 735 1058 834 543 256 97 30 0 43 138 160 134 139 55 15 20 24 26 9 0 8 0 0 0 0 0 0 0 0 0 0 0 0 0 0 0 0 0 0 0 0 0
678 614 1035 767 561 341 139 9 0 0 42 37 37 18 8 9 13 2 44 6 0 0 0 0 0 0 0 0 0 0 0 0 0 0 0 0 0 0 0 0 0 0 0
675 806 1113 573 384 298 227 7 0 0 0 6 11 0 0 19 15 36 17 4 2 0 0 0 0 0 0 0 0 0 0 0 0 0 0 0 0 0 5 0 0 0 0
795 922 810 619 482 393 278 131 23 0 0 0 0 0 0 0 0 1 0 0 0 0 0 0 0 0 0 0 0 0 0 0 0 0 0 0 0 0 2 17 0 0 0
698 793 702 799 647 511 426 301 263 123 23 0 0 0 0 0 0 0 0 0 0 0 0 0 0 0 0 0 0 0 0 0 0 0 0 0 0 0 0 0 35 0 0
922 792 554 731 738 596 456 282 350 208 163 45 2 0 0 0 0 0 0 0 0 0 0 0 0 0 0 0 0 0 0 0 0 0 0 0 0 0 0 0 1 35 1
970 926 862 784 903 706 504 421 327 236 269 237 144 44 19 6 0 0 0 0 0 0 0 0 0 0 0 0 0 0 0 0 0 0 0 0 0 0 0 0 0 0 3
914 993 853 749 822 730 565 542 380 443 309 288 294 176 80 31 9 0 0 0 0 0 0 0 0 0 0 0 0 0 0 0 0 0 0 0 0 0 0 0 0 0 0
786 1026 969 994 950 717 659 655 526 382 293 293 257 237 229 128 41 12 0 0 31 13 0 0 0 0 0 0 1 0 4 6 2 1 0 0 0 0 0 0 0 0 0
747 1107 992 918 836 627 757 693 547 308 377 288 399 450 407 289 196 162 98 78 90 129 170 135 107 77 16 2 5 5 5 12 5 56 25 24 30 38 8 2 0 0 0
668 939 945 1181 955 922 802 694 610 599 496 586 599 591 566 524 451 366 344 319 255 138 131 131 92 65 42 66 5 21 5 5 44 36 35 62 39 33 7 0 0 0 0
8 787 936 1048 1006 880 904 622 612 716 675 789 738 799 599 493 448 456 425 408 324 272 243 165 118 39 6 111 78 0 0 29 43 53 11 41 0 0 0 0 0 0 0
0 44 528 1085 1053 898 1029 1011 874 753 839 780 785 871 879 773 698 534 397 420 359 387 407 425 370 161 115 44 49 32 15 0 0 0 2 5 0 0 0 0 0 0 0
0 0 0 433 976 980 998 1049 932 718 751 780 858 965 834 605 423 496 403 299 287 250 242 245 153 104 9 7 10 35 18 8 3 0 16 8 0 0 0 0 0 0 0
0 0 0 0 256 334 611 886 890 734 763 603 521 449 147 44 11 3 13 18 32 30 26 10 1 2 4 4 3 5 30 35 32 2 0 2 0 0 0 0 0 0 0
0 0 0 0 0 0 74 488 550 486 193 0 0 0 0 0 0 0 0 0 0 0 0 0 0 0 0 0 0 0 2 4 15 22 10 0 12 17 0 0 0 0 0
0 0 0 0 0 0 0 0 0 4 0 0 0 0 0 0 0 0 0 0 0 0 0 0 0 0 0 0 0 1 2 7 6 2 1 0 15 6 5 0 0 0 0

GFSSE_con_mlcape_075.txt.gz
CAPE
602 1068 1104 1040 714 599 720 587 364 181 98 0 113 231 123 4 1 1 156 108 76 87 10 5 2 2 2 0 0 0 0 0 16 22 0 0 0 54 115 77 1 0 0
720 1143 1127 965 914 768 598 381 141 40 3 0 238 219 0 0 0 3 24 90 50 32 4 4 3 1 0 0 0 0 0 0 0 0 0 0 14 91 91 58 0 0 0
631 962 1132 999 865 670 559 302 150 19 0 2 417 3 2 0 0 2 7 9 5 6 5 6 3 0 0 0 0 12 5 6 5 0 0 5 49 62 12 14 12 74 73
647 810 1001 1045 834 772 591 277 72 1 0 357 194 11 2 0 1 5 10 9 8 5 7 8 2 0 0 0 0 0 0 1 0 0 0 0 0 1 0 0 3 5 3
500 834 1132 998 901 823 442 81 3 0 1 462 139 85 1 0 2 4 7 11 5 2 6 3 0 0 0 0 0 0 0 0 0 0 0 0 0 0 0 0 0 1 2
977 952 1157 987 938 686 342 74 0 8 35 530 293 250 23 0 0 1 2 4 3 3 2 0 0 0 0 0 0 0 0 0 0 0 0 0 0 0 0 0 0 0 1
1129 1078 1160 1003 879 551 378 45 0 11 89 502 530 356 68 0 0 0 0 0 1 1 0 0 0 0 0 0 0 0 0 0 0 0 0 0 0 0 0 0 0 0 0
1127 1172 1177 982 717 502 89 0 0 49 187 348 789 513 96 5 0 0 0 0 0 0 0 0 0 0 0 0 0 0 0 0 0 0 0 0 0 0 0 0 0 0 0
920 1053 1095 797 555 195 11 0 14 209 102 78 343 583 69 2 0 0 0 0 0 0 0 0 0 0 0 0 0 0 0 0 0 0 0 0 0 0 0 0 0 0 0
816 799 776 671 376 76 0 0 49 105 104 41 263 238 47 0 0 0 0 0 0 0 0 0 0 0 0 0 0 0 0 0 0 0 0 0 0 0 0 0 0 0 0
767 781 618 384 200 58 0 0 16 64 82 69 45 53 0 0 0 0 0 0 0 0 0 0 0 0 0 0 0 0 0 0 0 0 0 0 0 0 0 0 0 0 0
616 671 597 363 227 114 20 0 0 14 24 35 17 0 0 0 0 3 8 0 0 0 0 0 0 0 0 0 0 0 0 0 0 0 0 0 0 0 0 0 0 0 0
586 717 734 488 391 230 53 0 0 0 1 1 0 0 0 0 0 7 0 0 0 0 0 0 0 0 0 0 0 0 0 0 0 0 0 0 0 0 0 26 0 0 0
534 622 721 446 294 270 125 67 0 0 0 0 0 0 0 0 1 0 0 0 0 0 0 0 0 0 0 0 0 0 0 0 0 0 0 0 0 0 0 0 55 1 0
428 627 700 675 417 373 244 215 164 27 0 0 0 0 0 0 0 0 0 0 0 0 0 0 0 0 0 0 0 0 0 0 0 0 0 0 0 0 0 0 0 80 32
609 614 562 722 626 542 347 250 265 250 109 0 0 0 0 0 0 0 0 0 0 0 0 0 0 0 0 0 0 0 0 0 0 0 0 0 0 0 0 0 0 14 56
757 709 650 847 830 767 509 365 252 278 224 144 57 53 23 5 0 0 0 0 0 0 0 0 0 0 0 0 0 0 0 0 0 0 0 0 0 0 0 0 0 0 42
740 701 632 784 888 837 710 539 405 407 338 237 214 174 111 45 17 3 0 0 0 0 0 0 0 0 0 0 0 0 3 3 6 7 3 2 0 0 0 0 0 0 5
795 919 878 877 791 864 809 718 598 632 290 210 244 211 201 168 64 30 3 0 2 35 34 0 8 9 3 3 4 10 3 5 7 11 7 22 14 28 14 6 5 1 0
644 864 1025 928 907 732 667 827 696 501 342 416 271 303 345 303 209 171 176 142 133 133 109 73 59 68 32 10 8 7 5 2 0 0 0 30 37 13 38 14 1 0 0
653 811 912 908 852 742 708 730 645 509 557 463 571 648 499 511 451 362 334 354 322 277 227 156 98 93 39 10 8 7 4 0 0 0 0 0 33 0 0 0 0 0 0
283 668 747 820 873 901 761 693 670 542 588 517 486 580 640 630 589 483 467 416 420 329 330 294 265 203 37 28 8 9 5 0 0 0 0 0 4 0 0 0 0 0 0
0 349 702 962 1021 834 773 733 591 606 614 670 683 746 700 595 538 575 516 452 354 288 273 295 228 172 46 1 9 16 13 0 0 0 0 0 0 0 0 0 0 0 0
0 0 142 592 1142 861 834 815 615 563 527 581 604 580 207 104 76 25 45 83 123 114 154 93 21 2 0 0 0 0 4 30 8 4 0 0 1 0 0 0 0 0 0
0 0 0 3 415 547 600 770 724 576 611 333 253 265 53 1 0 0 0 0 0 0 0 0 0 0 0 0 0 0 0 0 0 9 6 0 0 0 0 0 0 0 0
0 0 0 0 0 16 112 444 496 455 144 53 3 3 0 0 0 0 0 0 0 0 0 0 0 0 0 0 0 0 0 0 0 0 6 3 1 2 0 0 0 0 0

GFSSE_con_mlcape_078.txt.gz
CAPE
384 1015 1000 967 695 606 611 560 416 103 0 194 108 32 14 92 143 221 201 106 17 4 3 2 2 1 0 0 0 3 35 14 2 0 0 54 91 103 26 0 0 0 0
727 1066 1004 909 720 778 693 503 170 3 3 272 58 0 0 0 226 248 290 217 1 3 2 2 4 7 5 2 0 1 0 0 0 7 10 15 20 12 2 8 22 90 27
852 1070 1005 893 825 655 479 295 28 0 14 243 1 0 0 0 8 49 71 9 0 4 1 1 2 6 3 12 11 8 0 0 0 0 0 0 0 5 7 5 6 6 15
915 1064 1029 903 769 610 439 186 7 0 185 95 2 0 0 1 7 6 7 4 3 4 2 0 0 0 0 0 0 0 27 18 0 0 0 0 0 0 0 0 4 3 1
876 975 1016 744 695 651 336 97 0 18 427 76 3 0 0 2 6 10 4 4 2 2 3 0 0 0 0 0 0 0 6 0 0 0 0 0 0 0 0 0 0 2 4
742 905 893 748 705 443 87 18 0 253 449 155 37 0 0 2 5 10 2 3 0 3 2 0 0 0 0 0 0 0 0 0 0 0 0 0 0 0 0 0 0 0 1
645 891 879 729 680 321 57 10 30 353 591 391 189 0 0 1 3 6 0 0 2 3 0 0 0 0 0 0 0 0 0 0 0 0 0 0 0 0 0 0 0 0 0
708 979 880 787 559 354 91 11 127 414 700 577 284 38 0 0 0 1 3 3 1 0 0 0 0 0 0 0 0 0 0 0 0 0 0 0 0 0 0 0 0 0 0
1023 965 914 702 538 90 0 0 155 375 590 797 423 66 0 0 0 0 0 0 0 0 0 0 0 0 0 0 0 0 0 0 0 0 0 0 0 0 0 0 0 0 0
929 909 826 555 221 3 0 7 129 246 278 586 425 39 0 0 0 0 0 0 0 0 0 0 0 0 0 0 0 0 0 0 0 0 0 0 0 0 0 0 0 0 0
818 839 614 357 128 2 0 60 80 50 68 240 384 25 0 0 0 0 0 0 0 0 0 0 0 0 0 0 0 0 0 0 0 0 0 0 0 0 0 0 0 0 0
489 636 534 329 117 25 0 16 66 114 30 65 132 5 0 0 0 0 0 0 0 0 0 0 0 0 0 0 0 0 0 0 0 0 0 0 0 0 0 0 0 0 0
267 491 522 291 167 71 0 0 2 62 67 31 48 1 0 0 0 13 4 0 0 0 0 0 0 0 0 0 0 0 0 0 0 0 0 0 0 0 0 2 0 0 0
136 377 493 407 262 175 9 0 0 18 41 31 0 0 0 0 9 17 11 0 0 0 0 0 0 0 0 0 0 0 0 0 0 0 0 0 0 0 0 0 55 3 0
0 152 507 429 347 248 116 41 0 0 0 0 0 0 0 0 2 9 1 0 0 0 0 0 0 0 0 0 0 0 0 0 0 0 0 0 0 0 0 0 0 45 77
102 352 346 405 385 360 269 188 168 37 0 0 0 0 0 0 0 0 0 0 0 0 0 0 0 0 0 0 0 0 0 0 0 0 0 0 0 0 0 0 0 2 51
375 304 157 137 470 510 408 296 307 354 208 19 0 0 0 0 0 0 0 0 0 0 0 0 0 0 0 0 0 0 0 0 0 0 0 0 0 0 0 0 3 14 27
506 513 485 751 595 536 465 518 310 307 288 162 9 5 6 15 3 0 0 0 0 0 0 0 0 0 0 0 0 0 1 4 7 6 15 2 0 0 0 5 7 30 37
572 615 725 749 255 95 464 661 423 362 372 329 178 93 90 67 35 11 0 0 0 8 4 0 0 0 0 1 0 3 4 6 0 1 2 0 0 2 0 1 1 9 3
569 729 630 589 404 455 570 557 670 560 540 311 263 235 198 173 118 87 58 22 23 26 75 85 64 59 37 18 11 9 11 7 4 0 0 0 0 8 0 11 3 0 0
616 587 726 788 776 739 758 801 639 594 550 357 401 315 286 263 207 199 199 227 209 206 145 114 107 64 76 44 29 4 3 0 0 0 0 0 0 0 4 11 2 0 0
487 506 531 834 833 819 702 672 658 562 468 316 399 398 478 424 395 376 340 394 377 341 267 239 279 206 174 115 20 14 3 0 0 0 0 0 0 0 1 0 1 0 0
324 498 592 726 838 875 786 632 556 486 468 466 372 335 460 573 562 493 460 500 457 430 325 253 262 218 122 67 17 27 6 0 0 0 0 0 0 0 0 0 0 0 0
45 295 519 706 748 810 583 584 552 545 469 441 371 345 285 301 319 355 392 399 396 329 304 172 128 84 23 2 0 0 1 25 14 1 0 0 0 0 0 0 0 0 0
0 0 128 248 553 631 568 540 433 324 314 286 297 263 69 12 1 38 8 0 3 0 0 0 0 0 0 0 0 0 0 0 0 8 0 0 0 0 0 0 0 0 0
0 0 0 0 151 389 476 448 436 299 230 137 120 93 28 0 0 0 0 0 0 0 0 0 0 0 0 0 0 0 0 0 0 0 0 0 0 0 0 0 0 0 0

GFSSE_con_mlcape_081.txt.gz
CAPE
301 705 858 930 779 696 615 476 51 81 3 29 99 299 372 379 372 290 112 26 9 3 2 1 1 4 8 10 11 7 4 0 0 12 34 41 2 1 0 0 3 3 0
542 820 866 880 837 665 599 456 18 78 123 68 20 90 408 279 360 349 84 3 5 2 9 4 2 7 7 2 1 0 0 0 49 1 3 4 11 14 27 33 7 28 12
757 913 971 890 734 694 555 322 0 114 236 0 0 0 167 324 373 418 18 0 1 4 9 6 5 2 34 54 0 0 0 0 0 0 0 0 0 1 0 0 3 6 17
827 952 943 783 797 687 456 107 0 292 107 0 0 0 3 128 182 26 0 0 2 3 4 3 4 5 0 0 52 84 38 0 0 0 0 0 0 0 0 2 3 1 7
828 939 877 832 695 550 414 39 0 411 103 0 0 0 2 10 2 4 0 3 1 0 0 0 0 0 0 6 64 23 7 0 0 0 0 0 0 0 0 0 0 1 4
734 851 880 615 636 484 289 15 43 508 84 0 0 2 3 9 6 3 2 2 1 0 0 0 0 0 0 0 12 26 10 0 0 0 0 0 0 0 0 0 0 0 2
542 733 695 605 682 193 102 1 429 434 188 3 0 3 6 3 6 2 1 0 1 0 0 0 0 0 0 0 0 0 2 0 0 0 0 0 0 0 0 0 0 0 0
568 720 688 623 475 94 41 12 432 463 467 115 2 2 4 9 2 5 1 3 2 0 0 0 0 0 0 0 0 0 0 0 0 0 0 0 0 0 0 0 0 0 0
637 651 687 613 404 136 25 39 390 678 648 245 10 0 1 3 5 5 5 3 18 23 6 0 0 0 0 0 0 0 0 0 0 0 0 0 0 0 0 0 0 0 0
455 661 609 485 260 5 0 18 294 606 760 464 84 0 0 0 0 2 3 3 17 13 0 0 0 0 0 0 0 0 0 0 0 0 0 0 0 0 0 0 0 0 0
737 741 529 288 66 0 0 99 197 391 668 539 90 0 0 0 0 0 0 0 0 0 0 0 0 0 0 0 0 0 0 0 0 0 0 0 0 0 0 0 0 0 0
742 780 512 224 73 3 1 123 62 181 183 530 111 15 3 0 0 0 0 0 0 0 0 0 0 0 0 0 0 0 0 0 0 0 0 0 0 0 0 0 0 0 0
605 650 384 259 139 40 0 83 98 108 102 353 123 11 0 0 0 0 0 0 0 0 0 0 0 0 0 0 0 0 0 0 0 0 0 0 0 0 0 0 0 0 0
348 377 351 299 183 142 7 5 111 132 56 60 113 21 0 0 1 9 7 0 0 0 0 0 0 0 0 0 0 0 0 0 0 0 0 0 0 0 0 0 17 0 0
171 50 30 212 244 232 159 20 9 92 118 100 80 47 17 15 20 15 13 0 0 0 0 0 0 0 0 0 0 0 0 0 0 0 0 0 0 0 0 0 0 16 130
11 2 5 16 190 327 202 147 32 0 30 68 72 50 20 11 5 11 0 0 0 0 0 0 0 0 0 0 0 0 0 0 0 0 0 0 0 0 0 0 1 12 34
0 0 35 6 101 269 317 218 136 108 0 0 0 2 24 1 0 11 0 0 0 0 0 0 0 0 0 0 0 0 0 0 0 0 0 1 1 0 0 0 5 30 45
81 37 184 280 403 240 312 308 225 217 228 156 11 0 3 5 0 0 0 0 0 0 0 0 0 0 0 0 0 0 0 3 3 2 0 2 6 4 4 4 3 14 51
224 180 261 301 188 211 380 291 216 278 268 299 194 61 0 0 0 0 0 0 0 0 0 0 0 0 1 1 0 1 2 7 2 2 4 0 2 4 5 0 3 10 18
335 443 338 301 277 320 319 98 0 107 412 298 318 200 43 17 27 14 0 1 0 12 36 41 60 9 13 31 20 10 10 6 0 0 0 0 0 0 0 0 4 4 4
428 463 500 347 360 480 434 129 31 115 456 407 299 272 171 103 97 95 95 73 36 53 88 134 152 99 76 62 71 20 3 3 0 0 0 0 0 0 0 10 6 9 15
418 526 597 579 604 584 321 288 334 426 371 346 379 336 329 259 238 178 135 182 194 218 251 237 193 175 179 144 27 25 4 0 0 0 0 0 0 0 0 0 0 2 0
413 517 611 659 707 500 493 435 326 240 259 290 299 426 360 323 346 293 258 257 303 335 371 323 306 200 100 101 43 27 9 0 0 0 0 0 0 0 0 0 0 0 0
0 336 513 570 547 604 606 517 356 347 279 209 244 235 243 214 208 249 291 236 212 214 240 327 255 190 134 88 0 0 0 5 1 0 0 0 0 0 0 0 0 0 0
0 0 284 395 554 627 592 513 438 391 312 201 100 120 22 5 0 8 62 85 116 44 38 30 15 4 7 11 0 0 0 0 0 0 0 0 0 0 0 0 0 0 0
0 0 0 75 335 567 545 491 491 385 331 214 147 99 1 1 0 0 0 0 0 0 0 0 0 0 0 0 0 0 0 0 0 0 0 0 0 0 0 0 0 0 0

GFSSE_con_mlcape_084.txt.gz
CAPE
147 635 879 919 682 593 554 123 94 0 298 329 571 732 634 561 410 245 56 6 2 2 3 7 16 12 5 5 3 0 3 95 33 0 0 0 9 75 50 24 15 2 0
309 779 897 823 790 670 567 48 231 0 143 277 555 601 626 522 422 221 55 4 3 3 1 5 8 9 4 6 4 3 91 2 0 0 0 0 3 3 1 0 15 7 16
512 803 838 775 699 619 559 28 210 104 81 128 431 624 392 518 349 93 2 3 5 5 4 9 1 5 8 1 1 35 43 0 0 0 0 0 0 0 1 0 3 6 8
666 813 785 735 689 666 479 1 231 242 0 0 149 358 442 490 252 31 3 2 5 5 11 2 1 2 0 106 56 48 8 0 0 0 0 0 0 0 0 2 1 1 5
752 849 754 680 728 578 240 0 306 117 0 0 0 183 329 294 117 22 2 3 3 5 14 61 6 3 61 78 71 27 0 0 0 0 0 0 0 0 0 0 0 2 2
709 805 728 671 509 375 137 0 387 140 1 0 0 0 43 30 5 2 3 3 2 3 10 15 0 20 37 67 49 22 0 0 0 0 0 0 0 0 0 0 0 1 2
654 700 594 388 537 368 46 0 350 59 2 1 3 5 6 6 6 5 4 4 2 1 0 14 0 13 15 12 24 23 0 0 0 0 0 0 0 0 0 0 0 0 1
592 623 404 428 310 54 0 36 289 143 0 1 8 4 6 6 6 6 5 4 4 2 0 0 0 0 0 0 0 0 0 0 0 0 0 0 0 0 0 0 0 0 0
563 423 403 350 53 0 0 186 389 374 94 0 2 8 8 4 5 5 4 4 20 21 13 0 0 0 0 0 0 0 0 0 0 0 0 0 0 0 0 0 0 0 0
487 451 374 243 14 0 0 79 366 435 207 0 0 0 1 3 4 4 2 26 32 18 0 0 0 0 0 0 0 0 0 0 0 0 0 0 0 0 0 0 0 0 0
314 458 349 87 0 0 0 29 355 578 346 76 0 0 0 0 0 1 1 10 14 0 0 0 0 0 0 0 0 0 0 0 0 0 0 0 0 0 0 0 0 0 0
355 280 235 42 0 0 0 4 116 348 644 179 25 0 0 0 0 0 0 0 0 0 0 0 0 0 0 0 0 0 0 0 0 0 0 0 0 0 0 0 0 0 0
537 401 178 30 0 0 0 0 21 117 180 308 51 10 0 0 0 0 0 0 0 0 0 0 0 0 0 0 0 0 0 0 0 0 0 0 0 0 0 0 0 0 0
260 364 226 122 45 0 0 0 2 81 92 197 130 34 0 0 0 0 0 0 0 0 0 0 0 0 0 0 0 0 0 0 0 0 0 0 0 0 0 0 3 17 1
23 256 301 264 160 61 0 0 33 101 102 98 211 68 16 0 0 0 0 0 0 0 0 0 0 0 0 0 0 0 0 0 0 0 0 0 0 0 0 0 0 6 142
68 298 388 321 218 179 105 3 3 56 125 111 91 101 44 19 24 24 11 0 0 0 0 0 0 0 0 0 0 0 0 0 0 0 0 0 0 0 0 0 2 25 35
100 155 166 307 222 132 116 131 31 0 10 84 100 80 65 34 20 12 5 0 0 0 0 0 0 0 0 0 0 0 0 0 0 0 0 0 0 4 2 9 14 19 49
55 34 110 56 42 0 6 84 109 69 17 2 0 5 23 21 9 3 4 1 0 0 0 0 0 0 0 0 0 0 0 0 0 0 0 0 0 7 13 8 7 24 41
55 29 180 178 54 3 3 49 183 149 161 175 62 3 0 0 0 0 0 0 0 0 0 0 0 0 1 4 4 5 0 4 2 2 2 0 0 0 0 6 1 3 19
115 143 169 314 227 146 160 166 268 267 116 179 164 177 104 17 0 0 0 0 0 0 0 0 0 0 13 34 33 25 25 20 3 0 0 0 0 0 0 0 0 0 3
327 227 187 270 263 313 238 266 202 72 21 77 229 229 179 95 34 0 0 0 0 1 22 28 90 150 76 56 43 18 1 0 0 0 0 0 0 0 0 0 0 0 0
430 338 321 351 297 154 172 267 184 151 90 134 171 209 213 142 114 50 36 54 41 50 56 89 158 213 170 167 83 25 0 0 0 0 0 0 0 0 0 0 0 0 0
449 550 599 533 319 142 143 244 107 160 127 86 52 89 197 130 100 74 71 102 110 122 150 169 144 184 175 116 149 11 8 0 0 0 0 0 0 0 0 0 0 0 0
117 489 524 434 370 376 345 249 255 183 166 273 204 146 102 23 60 71 69 92 117 112 76 29 34 100 84 63 37 14 2 7 11 0 0 0 0 0 0 0 0 0 0
0 0 180 440 461 484 386 297 235 192 217 210 164 156 87 38 69 35 39 18 0 1 9 7 7 41 29 35 17 4 0 0 0 0 0 0 0 0 0 0 0 0 0
0 0 0 49 338 391 396 293 273 308 213 132 128 126 67 8 1 11 16 0 0 2 0 0 0 0 0 0 0 0 0 0 0 0 0 0 0 0 0 0 0 0 0

GFSSE_con_mlcape_087.txt.gz
CAPE
260 625 772 750 544 392 213 9 40 335 263 206 559 653 545 434 357 112 8 0 0 1 7 19 94 11 6 1 1 202 115 20 1 0 0 31 67 8 14 6 0 0 0
414 815 778 717 598 606 172 109 92 259 247 318 585 575 636 567 346 61 5 1 1 5 12 14 11 7 5 4 91 135 2 0 0 0 0 0 0 0 0 3 9 16 132
589 887 837 720 688 563 96 275 26 203 295 476 506 564 665 526 324 20 6 3 1 4 9 6 3 6 6 9 53 47 0 0 0 0 0 0 0 1 0 0 0 7 33
773 905 810 680 612 536 56 225 65 125 153 319 483 617 550 369 140 14 2 5 4 9 6 7 3 5 60 47 47 16 0 0 0 0 0 0 0 0 1 1 1 0 3
828 873 787 595 645 480 14 340 255 0 4 167 103 426 448 279 101 3 4 8 8 55 4 5 49 116 119 77 34 0 0 0 0 0 0 0 0 0 0 0 0 0 0
730 823 740 625 571 169 0 315 99 0 0 3 155 187 321 227 71 4 9 6 7 7 43 34 51 87 79 48 30 0 0 0 0 0 0 0 0 0 0 0 0 1 1
692 819 680 592 427 43 0 321 142 1 0 0 12 74 110 16 2 1 4 9 7 6 52 24 26 31 33 50 43 0 0 0 0 0 0 0 0 0 0 0 0 0 0
645 729 677 377 384 15 0 280 75 0 0 0 0 0 4 3 3 2 1 2 5 33 32 20 13 12 10 4 16 0 0 0 0 0 0 0 0 0 0 0 0 0 0
626 541 444 438 243 4 1 213 94 0 0 2 5 0 6 2 2 1 2 4 37 47 40 27 0 0 0 0 0 0 0 0 0 0 0 0 0 0 0 0 0 0 0
563 407 365 157 15 0 49 188 218 3 0 0 6 12 7 1 2 5 2 35 41 32 15 0 0 0 0 0 0 0 0 0 0 0 0 0 0 0 0 0 0 0 0
462 390 215 3 0 0 150 265 265 63 0 0 0 0 4 6 4 1 0 21 25 0 0 0 0 0 0 0 0 0 0 0 0 0 0 0 0 0 0 0 0 0 0
285 365 159 6 0 0 7 252 357 304 24 0 0 0 0 0 0 0 0 0 0 0 0 0 0 0 0 0 0 0 0 0 0 0 0 0 0 0 0 0 0 0 0
282 275 103 0 0 0 0 64 263 380 213 2 0 0 0 0 0 0 0 0 0 0 0 0 0 0 0 0 0 0 0 0 0 0 0 0 0 0 0 0 0 0 0
376 253 113 0 0 0 0 7 100 197 387 48 22 0 0 0 0 0 0 0 0 0 0 0 0 0 0 0 0 0 0 0 0 0 0 0 0 0 0 0 1 41 33
261 181 139 61 1 0 0 0 32 96 123 229 81 27 2 0 0 0 0 0 0 0 0 0 0 0 0 0 0 0 0 0 0 0 0 0 0 0 0 0 7 13 56
137 259 193 119 46 0 7 8 3 32 62 88 111 92 31 10 6 5 7 14 7 0 0 0 0 0 0 0 0 0 0 0 0 0 0 0 0 1 1 5 4 15 41
131 222 230 139 129 76 48 109 95 63 76 51 71 110 99 53 38 38 33 31 21 0 0 0 0 0 0 0 0 0 0 0 0 0 0 0 0 0 0 0 22 16 27
44 71 121 27 159 192 190 140 127 62 14 51 73 108 104 84 50 33 23 12 13 4 0 0 0 0 0 0 0 0 0 0 1 5 0 2 0 0 0 0 0 18 24
56 26 13 88 180 264 243 215 196 112 28 1 8 30 44 66 23 11 1 2 0 0 0 0 0 0 0 0 2 7 8 0 4 1 1 0 0 0 0 0 0 0 4
10 34 54 115 121 122 64 141 159 229 191 142 41 0 0 13 5 0 0 2 0 0 0 0 0 0 0 21 31 25 37 47 44 25 0 0 0 0 0 0 0 0 0
27 28 51 155 111 96 185 35 69 114 251 259 183 139 122 65 23 0 1 1 0 0 0 0 0 14 37 36 75 63 30 18 0 0 0 0 0 0 0 0 0 0 0
104 73 182 210 107 208 59 52 132 134 145 200 181 128 162 157 79 21 2 0 0 0 0 26 60 126 160 141 82 96 0 0 0 0 0 0 0 0 0 0 0 0 0
95 29 19 69 235 347 216 194 150 184 130 103 102 103 81 77 84 24 19 18 18 5 14 29 94 88 67 95 36 24 12 0 0 0 0 0 0 0 0 0 0 0 0
145 268 284 124 81 167 206 175 113 55 66 78 44 27 11 17 5 44 77 75 64 15 2 6 0 0 8 14 5 3 9 31 22 0 0 0 0 0 0 0 0 0 0
10 96 258 171 225 323 242 245 135 170 127 136 94 77 111 32 69 82 100 58 9 7 0 3 0 0 6 20 15 13 16 0 0 0 0 0 0 0 0 0 0 0 0
0 0 0 63 448 412 373 299 274 252 192 133 96 86 74 56 42 71 63 41 8 0 0 0 0 0 1 3 0 0 0 0 0 0 0 0 0 0 0 0 0 0 0

GFSSE_con_mlcape_090.txt.gz
CAPE
283 697 752 607 640 407 80 25 78 71 205 777 788 549 448 439 334 49 0 0 67 57 19 191 11 33 1 257 189 33 3 4 2 0 1 1 3 15 0 0 18 6 0
302 773 801 734 543 400 93 129 328 259 180 710 743 619 570 480 278 27 2 0 7 4 151 16 7 7 6 284 61 4 1 0 0 0 0 0 0 0 0 0 17 1 0
498 810 766 612 567 369 161 322 369 348 426 667 614 671 581 475 153 21 3 4 4 149 53 3 10 7 51 77 0 0 0 0 0 0 0 0 0 0 0 0 0 7 5
571 780 817 629 738 274 279 277 403 442 378 632 584 530 671 438 77 3 5 5 33 34 15 6 9 10 42 36 8 0 0 0 0 0 0 0 0 0 0 0 0 0 8
561 754 706 700 661 197 279 141 358 385 499 373 514 540 486 255 40 6 7 7 12 14 6 21 129 81 52 25 0 0 0 0 0 0 0 0 0 0 0 0 0 0 0
695 743 788 668 601 169 252 289 105 200 371 281 302 372 388 93 7 7 9 9 12 7 8 83 95 99 54 27 0 0 0 0 0 0 0 0 0 0 0 0 0 0 0
716 703 720 621 654 109 443 227 0 9 238 208 278 362 323 87 3 6 7 8 11 8 25 71 79 97 76 48 1 0 0 0 0 0 0 0 0 0 0 0 0 0 0
674 547 686 633 397 57 439 219 0 0 14 282 276 316 198 75 5 2 2 6 11 20 43 49 40 21 25 43 1 0 0 0 0 0 0 0 0 0 0 0 0 0 0
596 550 564 540 132 119 420 173 0 0 0 18 49 17 0 4 4 4 4 4 23 56 36 20 3 2 0 0 0 0 0 0 0 0 0 0 0 0 0 0 0 0 0
594 528 506 455 50 2 442 75 0 0 0 0 0 0 2 1 3 5 1 4 34 54 34 3 0 0 0 0 0 0 0 0 0 0 0 0 0 0 0 0 0 0 0
544 620 558 408 13 2 236 199 0 0 0 0 1 1 1 6 3 3 4 19 51 30 8 0 0 0 0 0 0 0 0 0 0 0 0 0 0 0 0 0 0 0 0
480 533 564 181 6 10 312 277 52 1 0 8 17 3 0 0 0 0 2 33 34 0 0 0 0 0 0 0 0 0 0 0 0 0 0 0 0 0 0 0 0 0 0
282 521 416 73 0 23 228 339 255 59 23 0 0 5 2 1 2 0 0 0 0 0 0 0 0 0 0 0 0 0 0 0 0 0 0 0 0 0 0 0 3 0 0
60 389 392 152 0 14 352 382 419 368 31 20 0 0 0 0 0 0 0 0 0 0 0 0 0 0 0 0 0 0 0 0 0 0 0 0 0 0 0 0 1 21 37
20 179 363 200 60 7 357 371 435 465 190 74 51 0 0 0 0 0 0 0 0 0 0 0 0 0 0 0 0 0 0 0 0 0 0 0 0 0 0 0 12 20 29
7 24 173 272 119 56 99 312 381 433 471 392 213 110 57 21 0 0 0 23 33 9 0 0 0 0 0 0 0 0 0 1 0 0 2 4 0 0 0 0 6 24 30
0 0 122 292 210 120 60 95 285 399 439 451 400 306 158 109 78 73 90 112 74 23 10 0 0 0 0 0 0 0 0 5 6 27 16 8 6 0 0 0 0 18 25
15 20 101 304 255 138 124 141 142 204 260 270 261 267 243 176 162 136 153 110 90 56 21 11 3 3 0 0 0 1 29 46 33 12 7 3 6 3 2 0 0 0 7
0 39 57 441 335 300 257 205 170 241 193 140 191 192 197 176 171 120 102 74 51 58 33 18 13 8 0 0 5 35 53 29 17 23 23 22 7 0 0 0 0 0 0
62 46 66 100 363 381 436 388 327 230 152 158 159 167 166 159 161 120 93 78 54 56 47 15 11 14 7 47 74 47 53 40 69 69 54 23 0 0 0 0 0 0 0
54 53 32 58 137 289 326 412 500 454 300 290 243 171 115 70 46 50 67 87 53 55 87 47 30 13 30 51 55 60 83 69 52 19 15 0 0 0 0 0 0 0 6
43 62 47 66 55 161 258 310 232 258 438 486 430 283 231 295 273 169 116 54 5 0 0 43 60 92 111 119 62 106 61 16 0 0 0 0 0 0 0 0 0 0 0
24 21 59 69 143 328 354 342 130 128 216 341 418 440 345 321 209 158 78 87 27 6 27 70 83 74 129 83 38 51 52 16 0 0 0 0 0 0 0 0 0 0 0
58 47 46 58 63 106 409 137 82 94 119 143 171 144 147 129 113 117 26 9 1 25 33 0 0 0 0 4 1 4 2 6 0 0 0 0 0 0 0 0 0 0 0
78 72 54 23 29 69 87 110 132 214 123 44 106 81 100 110 26 87 55 70 45 18 11 11 0 0 0 0 1 1 0 7 50 32 0 0 0 0 0 0 0 0 0
0 0 41 158 152 188 126 40 131 190 218 97 128 89 105 91 140 134 171 214 121 44 30 3 0 0 0 0 0 0 3 7 0 0 0 0 0 0 0 0 0 0 0

GFSSE_con_mlcape_093.txt.gz
CAPE
596 841 871 605 652 451 244 147 44 10 849 948 762 729 659 553 319 20 40 552 393 427 249 177 239 65 288 147 30 3 4 0 0 0 0 6 5 0 0 45 11 0 0
656 885 811 728 653 394 197 169 123 24 779 726 715 693 639 544 249 1 45 235 223 360 54 49 11 159 135 6 4 2 0 0 0 0 0 0 0 0 0 0 1 3 0
596 924 764 793 543 367 151 261 234 116 626 750 702 677 638 528 207 0 1 4 191 111 11 5 5 295 34 2 0 0 0 0 0 0 0 0 0 0 0 0 15 46 34
760 1011 886 829 555 336 181 524 401 283 582 679 671 743 556 470 94 2 3 52 281 12 7 16 14 17 4 0 0 0 0 0 0 0 0 0 0 0 0 0 0 7 106
901 1051 764 754 697 448 259 518 459 438 580 581 560 456 481 364 33 3 5 140 7 7 7 8 8 37 26 0 0 0 0 0 0 0 0 0 0 0 0 0 0 0 1
756 745 918 704 724 485 312 489 593 490 503 532 517 397 343 201 31 5 4 14 9 6 5 159 61 57 15 0 0 0 0 0 0 0 0 0 0 0 0 0 0 0 0
651 768 967 741 631 532 179 496 529 639 577 422 266 352 234 48 5 8 12 10 6 2 45 70 76 52 32 0 0 0 0 0 0 0 0 0 0 0 0 0 0 0 0
822 776 947 703 636 526 226 256 318 546 455 239 336 263 96 10 4 7 6 7 6 7 64 74 79 70 49 0 0 0 0 0 0 0 0 0 0 0 0 0 0 0 0
759 683 722 738 526 341 396 15 9 308 234 244 260 223 73 4 5 5 5 9 7 53 65 47 27 11 17 20 0 0 0 0 0 0 0 0 0 0 0 0 0 0 0
470 735 625 611 454 28 448 30 0 0 203 199 177 39 5 1 4 6 5 9 45 62 44 15 11 0 0 0 0 0 0 0 0 0 0 0 0 0 0 0 0 0 0
0 0 173 532 182 3 358 98 0 0 3 5 0 0 0 2 4 5 9 5 46 52 27 2 0 0 0 0 0 0 0 0 0 0 0 0 0 0 0 0 0 0 0
0 0 0 523 227 7 277 43 0 0 0 0 1 0 0 2 1 1 4 4 36 29 6 0 0 0 0 0 0 0 0 0 0 0 0 0 0 0 0 0 0 0 0
0 0 0 221 241 9 293 39 0 0 0 0 0 0 0 0 0 0 6 5 12 0 0 0 0 0 0 0 0 0 0 0 0 0 0 0 0 0 0 0 0 0 0
0 0 0 21 69 20 376 86 3 0 0 12 3 0 3 3 0 0 0 0 0 0 0 0 0 0 0 0 0 0 0 0 0 0 0 0 0 0 0 0 14 22 53
0 5 0 157 26 317 318 226 54 16 10 1 2 1 1 0 0 0 0 0 0 0 0 0 0 0 0 0 0 0 0 2 8 10 4 0 0 0 0 0 1 20 39
4 5 25 63 43 216 237 278 243 164 18 15 0 0 0 0 0 0 0 0 0 0 0 0 0 0 0 0 0 0 0 5 7 9 13 6 0 0 0 0 5 19 25
3 0 0 21 125 261 244 285 351 343 107 140 167 32 20 17 0 0 0 39 58 47 7 0 0 0 0 0 0 0 0 4 21 21 19 26 21 2 0 0 0 2 1
4 0 5 58 158 228 199 304 298 350 374 545 518 391 205 145 91 99 98 132 129 67 31 17 13 9 1 0 0 0 2 24 25 18 14 8 6 10 2 0 0 0 0
42 0 1 63 297 206 215 257 231 300 371 432 436 425 454 348 280 156 156 129 104 98 60 24 24 19 14 5 0 5 45 46 15 4 13 17 23 2 0 0 0 0 0
25 0 22 72 251 238 260 289 248 257 204 149 205 232 289 244 226 149 99 108 84 95 91 65 31 24 19 7 22 29 34 29 31 31 30 29 4 1 0 0 0 0 0
56 21 38 57 89 219 246 237 241 233 232 210 252 281 304 315 307 260 233 205 171 170 187 95 82 51 33 47 147 119 45 33 59 36 28 1 0 0 0 0 0 0 0
57 51 15 12 69 123 212 266 237 411 398 371 305 271 332 268 211 241 239 184 141 44 17 4 53 93 62 82 76 96 79 68 31 0 1 0 0 0 0 0 0 0 0
56 35 21 25 91 102 132 206 245 233 233 392 404 293 362 366 402 360 334 235 135 56 25 51 30 54 114 105 40 63 29 19 1 0 8 0 0 0 0 0 0 0 0
31 31 67 27 58 78 163 215 193 67 79 98 122 178 195 180 192 207 306 226 131 71 93 59 32 4 8 28 7 5 0 0 0 0 0 0 0 0 0 0 0 0 0
31 30 1 51 64 86 61 91 65 44 55 92 83 46 159 118 138 171 172 124 127 83 76 19 1 1 3 8 0 0 0 0 0 0 0 0 0 0 0 0 0 0 0
23 40 9 56 34 31 42 46 41 55 87 74 75 30 48 185 272 222 210 131 150 136 43 23 11 12 4 5 3 0 0 9 7 7 5 0 0 0 0 0 0 0 0

GFSSE_con_mlcape_096.txt.gz
CAPE
796 515 916 718 560 285 165 69 411 1096 800 912 935 741 717 553 456 266 104 168 284 340 424 271 333 194 149 5 5 17 4 4 0 0 0 3 18 55 52 4 0 0 19
1035 725 868 780 720 440 269 122 36 853 931 761 879 610 710 503 193 395 692 440 332 235 373 132 357 11 4 2 0 0 0 0 0 0 0 0 0 0 2 6 0 2 155
1070 892 899 902 714 495 340 196 53 316 922 821 793 689 780 481 90 355 452 558 301 12 82 43 283 56 0 0 0 0 0 0 0 0 0 0 0 0 1 5 95 112 124
1049 894 914 961 689 490 322 240 74 210 804 835 766 690 790 478 91 137 149 445 3 1 0 68 50 0 0 0 0 0 0 0 0 0 0 0 0 0 0 0 6 10 5
1095 835 948 952 665 505 431 428 346 213 913 799 668 677 606 405 54 51 171 284 1 4 8 9 0 0 0 0 0 0 0 0 0 0 0 0 0 0 0 0 0 0 0
1147 986 1067 862 649 445 465 427 431 359 724 722 682 562 454 223 54 97 191 7 6 4 10 6 1 0 0 0 0 0 0 0 0 0 0 0 0 0 0 0 0 0 0
1093 1072 971 757 668 441 314 461 495 510 627 597 557 321 288 97 7 5 26 6 4 1 38 49 27 0 0 0 0 0 0 0 0 0 0 0 0 0 0 0 0 0 0
952 995 928 687 644 421 277 482 589 536 515 497 316 151 172 36 5 9 8 3 2 12 110 141 65 38 0 0 0 0 0 0 0 0 0 0 0 0 0 0 0 0 0
922 1045 817 626 530 324 248 280 476 614 460 308 155 145 34 3 4 10 6 4 7 44 89 92 84 80 46 0 0 0 0 0 0 0 0 0 0 0 0 0 0 0 0
19 0 0 607 452 344 186 164 300 350 256 181 189 24 0 4 4 5 5 4 7 55 45 41 24 0 0 0 0 0 0 0 0 0 0 0 0 0 0 0 0 0 0
14 0 0 0 309 285 292 36 36 243 251 226 47 0 0 1 3 3 4 4 8 29 5 0 0 0 0 0 0 0 0 0 0 0 0 0 0 0 0 0 0 0 0
50 1 0 0 0 56 499 57 0 112 141 41 0 0 0 1 2 3 4 8 5 21 0 0 0 0 0 0 0 0 0 0 0 0 0 0 0 0 0 0 0 0 0
45 3 0 0 0 0 362 105 0 0 1 1 0 0 0 0 0 3 0 5 2 0 0 0 0 0 0 0 0 0 0 0 0 0 0 0 0 0 0 0 0 0 0
0 0 0 0 0 0 1 63 0 0 0 0 0 0 0 0 0 0 0 0 0 0 0 0 0 0 0 0 0 0 0 0 0 0 0 0 0 0 0 0 0 9 26
5 0 0 0 0 0 0 43 0 0 0 0 0 0 0 0 0 0 0 0 0 0 0 0 0 0 0 0 0 0 0 0 0 1 0 0 0 0 0 0 0 0 11
47 2 0 0 0 0 0 28 0 0 0 0 0 0 1 0 0 0 0 0 0 0 0 0 0 0 0 0 0 0 0 0 2 6 0 0 0 0 0 0 0 0 14
39 12 0 0 0 14 3 83 54 2 0 0 0 0 0 0 0 0 0 0 0 0 0 0 0 0 0 0 0 0 0 0 1 4 19 8 1 0 1 4 4 2 0
86 56 33 37 2 48 16 75 113 130 20 0 0 0 0 0 0 0 0 1 42 56 23 6 0 0 0 0 0 0 0 4 14 13 3 5 1 4 0 0 0 0 0
36 113 62 0 0 2 13 94 91 160 173 196 102 28 31 17 2 15 39 100 116 77 41 23 15 3 2 0 0 0 0 16 13 3 1 1 6 4 0 0 0 0 0
74 29 52 26 0 0 18 54 76 116 222 236 285 313 200 197 132 125 155 148 116 109 86 47 22 23 12 8 4 0 9 11 11 0 4 11 1 0 0 0 0 0 0
63 29 49 19 57 0 105 90 77 103 62 146 235 320 413 320 279 159 123 134 120 133 144 93 86 55 24 15 16 17 66 23 2 36 4 0 0 0 0 0 0 0 0
16 21 58 9 57 84 180 139 148 119 184 218 258 327 349 330 314 281 279 268 248 208 167 125 103 105 80 55 60 70 43 34 34 7 0 0 0 0 0 0 0 0 0
13 25 24 32 46 100 130 141 183 199 203 298 328 322 327 296 293 312 325 329 254 203 174 147 107 89 77 77 70 77 35 17 0 0 0 0 0 0 0 0 0 0 0
22 21 1 13 58 79 99 72 92 113 105 119 156 155 169 187 231 260 278 286 199 154 133 129 119 95 46 7 10 19 11 7 1 1 0 0 0 0 0 0 0 0 0
42 35 27 38 57 54 76 62 57 43 78 108 126 100 127 86 120 123 160 152 164 112 97 129 100 49 1 0 0 6 1 0 4 0 0 0 0 0 0 0 0 0 0
3 9 2 36 25 26 44 37 42 48 63 63 62 57 65 46 75 129 116 114 102 28 88 70 40 11 0 0 0 4 2 0 1 0 0 0 0 0 0 0 0 0 0

GFSSE_con_mlcape_099.txt.gz
CAPE
389 668 729 492 510 547 867 1222 1152 1024 923 740 506 610 838 837 575 9 0 0 56 415 503 415 338 3 1 34 75 43 7 12 12 0 1 14 61 48 4 0 0 94 170
509 610 579 490 351 384 453 943 1158 994 853 810 564 584 734 694 399 176 259 358 530 399 410 337 34 3 1 1 0 0 0 0 0 0 0 0 12 63 52 0 141 233 160
605 835 685 578 411 334 330 328 917 851 867 798 655 563 649 395 435 491 611 495 383 309 416 109 1 2 0 0 0 0 0 0 0 0 0 0 1 6 26 125 39 146 181
775 911 802 733 462 376 304 167 323 800 877 843 626 671 680 298 518 667 531 181 261 94 412 111 2 0 0 0 0 0 0 0 0 0 0 0 0 0 5 13 12 3 3
855 945 919 748 495 427 319 213 87 639 733 888 683 800 641 274 302 371 336 2 0 17 124 18 0 0 0 0 0 0 0 0 0 0 0 0 0 0 0 0 0 2 5
867 900 1033 863 575 446 486 237 65 432 776 870 749 721 526 219 195 321 161 0 0 0 10 0 0 0 0 0 0 0 0 0 0 0 0 0 0 0 0 0 0 0 0
894 919 1036 855 655 476 497 418 375 353 800 690 622 680 388 171 226 321 0 0 0 3 9 0 0 0 0 0 0 0 0 0 0 0 0 0 0 0 0 0 0 0 0
1037 1078 1160 956 703 411 367 449 399 293 635 561 550 509 268 123 227 90 5 0 0 6 0 2 0 0 0 0 0 0 0 0 0 0 0 0 0 0 0 0 0 0 0
1139 1102 1101 1037 753 325 480 521 542 362 416 484 405 246 147 31 23 7 5 3 9 16 80 25 33 7 0 0 0 0 0 0 0 0 0 0 0 0 0 0 0 0 0
350 489 799 823 677 397 434 438 470 502 350 289 240 148 39 0 2 3 3 3 7 16 39 30 44 39 10 0 0 0 0 0 0 0 0 0 0 0 0 0 0 0 0
91 111 152 273 286 304 239 338 387 448 379 278 178 55 0 0 3 2 1 4 12 7 0 3 0 0 0 0 0 0 0 0 0 0 0 0 0 0 0 0 0 0 0
50 38 24 25 36 74 327 153 236 304 287 244 88 1 0 0 2 2 1 5 6 2 0 0 0 0 0 0 0 0 0 0 0 0 0 0 0 0 0 0 0 0 0
86 31 27 7 0 0 0 34 60 258 240 140 13 0 0 0 0 3 3 7 1 0 0 0 0 0 0 0 0 0 0 0 0 0 0 0 0 0 0 0 0 0 0
114 52 30 13 0 0 0 0 1 126 142 38 3 0 0 0 0 1 3 1 0 0 0 0 0 0 0 0 0 0 0 0 0 0 0 0 0 0 0 0 0 0 16
150 72 25 7 29 3 0 0 0 6 126 22 0 0 0 0 0 0 0 0 0 0 0 0 0 0 0 0 0 0 0 0 0 0 0 0 0 0 0 0 0 0 3
71 26 0 0 4 1 3 16 0 0 1 10 0 0 0 0 0 0 0 0 0 0 0 0 0 0 0 0 0 0 0 0 0 0 0 0 0 0 0 0 0 0 0
74 42 21 0 0 0 1 0 0 2 4 0 0 0 0 0 0 0 0 0 0 0 0 0 0 0 0 0 0 0 0 0 0 0 3 0 0 0 0 0 0 0 0
70 86 54 12 0 0 0 1 22 3 7 16 0 0 0 0 0 0 0 0 0 0 0 0 0 0 0 0 0 0 0 0 0 0 1 5 3 1 0 0 0 0 0
52 102 105 108 30 8 4 34 48 15 1 18 2 0 0 0 0 0 0 0 0 0 0 0 0 0 0 0 0 0 0 0 1 11 0 0 5 5 0 0 0 0 0
7 72 102 107 131 33 19 111 47 46 50 38 57 1 0 0 0 0 0 0 26 50 31 19 15 6 8 7 0 0 0 0 10 2 3 8 4 0 0 0 0 0 0
14 2 78 18 12 19 6 13 41 82 56 84 145 71 50 0 0 0 30 83 113 95 91 58 45 25 25 6 6 22 20 5 4 2 13 5 0 0 0 0 0 0 0
1 0 18 7 0 4 58 38 34 44 53 78 88 184 275 192 129 173 194 132 154 144 118 110 111 108 65 44 73 39 23 14 28 15 0 0 0 0 0 0 0 0 0
0 0 0 30 6 0 17 79 36 8 21 36 59 78 150 236 323 292 238 225 181 152 121 89 112 91 93 138 111 98 21 0 2 0 0 0 0 0 0 0 0 0 0
34 40 8 30 50 3 29 29 3 9 3 23 42 30 52 104 126 162 198 221 206 228 188 125 107 80 58 80 43 72 11 0 0 0 0 0 0 0 0 0 0 0 0
37 20 26 5 57 44 47 42 24 20 41 33 33 52 38 54 109 133 152 129 118 138 125 85 78 72 67 39 33 19 3 1 0 0 1 0 0 0 0 0 0 0 0
18 32 1 43 37 52 60 46 64 43 41 55 71 82 79 77 75 99 100 91 106 109 76 55 49 47 46 60 24 15 9 15 1 0 0 0 0 0 0 0 0 0 0

GFSSE_con_mlcape_102.txt.gz
CAPE
471 859 1061 1098 1263 1309 1246 1200 1035 821 759 750 753 768 447 226 0 0 46 178 243 505 499 337 5 13 11 12 7 32 73 1 4 0 13 45 1 0 15 153 138 130 23
598 975 1069 1011 1171 1320 1320 1221 1083 819 812 760 718 794 916 314 11 0 56 284 535 524 432 114 5 7 80 4 0 0 0 0 0 0 0 7 28 15 172 153 122 141 14
685 955 987 937 933 1152 1324 1253 1145 930 743 480 374 639 915 514 152 207 146 613 513 522 248 5 1 3 3 1 0 0 0 0 0 0 0 0 1 126 55 29 104 94 185
533 894 886 866 768 781 1030 1228 1028 867 866 658 522 639 719 361 444 802 622 489 470 463 26 2 0 0 0 0 0 0 0 0 0 0 0 0 0 12 9 7 4 8 5
344 595 709 797 736 620 508 968 999 907 874 745 582 643 586 656 747 707 490 412 336 370 50 0 0 0 0 0 0 0 0 0 0 0 0 0 0 1 4 2 3 2 1
448 498 676 627 578 529 420 185 913 987 791 792 680 556 473 543 766 579 268 126 220 103 0 0 0 0 0 0 0 0 0 0 0 0 0 0 0 0 0 0 0 0 1
636 685 900 656 448 369 366 224 216 809 869 787 722 712 423 404 478 231 30 0 66 88 0 0 0 0 0 0 0 0 0 0 0 0 0 0 0 0 0 0 0 0 0
744 886 931 867 523 412 330 181 63 476 733 783 778 594 394 297 474 107 0 0 0 0 0 0 0 0 0 0 0 0 0 0 0 0 0 0 0 0 0 0 0 0 0
933 1059 1038 922 707 427 440 339 307 184 809 668 738 565 356 244 416 7 0 0 0 3 0 0 0 0 0 0 0 0 0 0 0 0 0 0 0 0 0 0 0 0 0
846 1011 1039 910 743 372 395 429 425 429 592 476 552 505 234 100 136 11 2 0 24 0 0 0 1 0 0 0 0 0 0 0 0 0 0 0 0 0 0 0 0 0 0
376 672 894 768 578 351 370 473 520 415 371 366 329 294 129 12 9 4 1 1 14 7 5 26 32 12 0 0 0 0 0 0 0 0 0 0 0 0 0 0 0 0 0
36 283 508 519 379 252 505 446 424 496 441 342 275 171 8 0 0 0 0 2 4 3 2 0 0 0 0 0 0 0 0 0 0 0 0 0 0 0 0 0 0 0 0
50 66 23 266 163 106 202 237 312 399 404 324 161 31 0 0 0 0 0 4 3 2 0 0 0 0 0 0 0 0 0 0 0 0 0 0 0 0 0 0 0 0 0
14 60 31 13 33 46 30 34 180 301 346 179 106 1 0 0 0 0 0 3 2 0 0 0 0 0 0 0 0 0 0 0 0 0 0 0 0 0 0 0 0 0 0
0 14 32 18 17 4 24 2 24 153 223 195 36 2 2 0 0 0 2 1 2 0 0 0 0 0 0 0 0 0 0 0 0 0 0 0 0 0 0 0 0 0 0
0 9 9 12 4 4 3 2 1 5 102 96 32 1 0 0 0 0 0 2 2 0 0 0 0 0 0 0 0 0 0 0 0 0 0 0 0 0 0 0 0 0 0
0 6 11 21 13 6 4 14 0 9 20 51 100 37 0 0 0 0 0 24 1 0 0 0 0 0 0 0 0 0 0 0 0 0 0 0 0 0 0 0 0 5 18
0 4 1 1 0 0 26 32 25 17 3 2 30 43 0 2 0 0 0 12 14 0 0 0 0 0 0 0 0 0 0 0 0 0 0 0 0 0 0 0 0 3 0
0 0 0 37 24 0 0 1 15 14 15 13 13 23 2 16 0 0 0 0 1 0 0 0 0 0 0 0 0 0 0 0 0 0 0 0 0 0 0 0 0 0 0
25 66 75 107 31 4 5 3 12 35 0 19 8 1 0 5 13 0 0 8 0 0 0 0 0 0 0 0 0 0 0 0 0 0 0 0 0 2 5 0 0 0 0
142 197 154 105 129 79 41 62 39 46 43 13 0 0 18 12 4 12 20 30 15 0 0 5 20 16 27 30 25 24 11 4 1 20 0 0 0 0 0 0 0 0 0
113 107 114 105 120 103 68 79 119 92 76 24 0 5 1 28 59 0 12 20 0 5 74 61 62 66 60 31 48 37 39 33 36 14 0 0 0 0 0 0 0 0 0
73 54 0 0 27 12 30 79 140 142 129 52 24 23 28 79 99 51 37 29 45 117 142 130 121 134 96 82 41 35 32 14 1 0 5 0 0 0 0 0 0 0 0
85 43 0 0 0 0 6 50 45 60 51 36 15 2 49 113 125 169 127 172 181 153 160 203 199 197 182 128 55 84 47 18 2 0 0 0 0 0 0 0 0 0 0
39 24 5 3 0 0 0 74 30 15 27 7 11 10 51 68 71 102 153 161 153 149 119 84 83 79 63 59 31 27 36 9 0 3 1 0 0 0 0 0 0 0 0
25 27 15 41 2 0 6 45 26 9 1 22 17 17 30 41 54 81 97 66 88 76 76 78 81 79 65 47 33 23 47 29 22 11 0 0 1 0 0 0 0 0 0

GFSSE_con_mlcape_105.txt.gz
CAPE
434 927 1080 1384 1494 1443 1135 909 931 872 868 870 828 724 540 274 12 5 36 53 205 494 234 10 12 14 49 104 136 18 12 10 39 91 26 0 1 118 213 116 99 0 1
545 1018 951 1284 1469 1414 1265 1142 913 740 777 830 731 597 349 47 0 214 91 554 649 545 157 4 12 13 13 12 7 1 5 0 0 0 0 7 5 180 202 71 78 1 1
690 1056 900 1102 1382 1286 1298 1157 954 822 790 764 739 720 376 36 0 382 448 629 573 452 82 4 10 8 4 2 0 0 0 0 0 0 0 7 63 5 109 90 78 154 136
825 969 834 948 1227 1274 1236 1167 922 878 706 562 540 789 512 103 12 304 735 635 525 122 4 1 3 3 1 0 0 0 0 0 0 0 0 0 8 9 6 9 10 11 10
831 936 798 869 1016 1231 1302 1183 980 864 624 394 532 668 593 392 387 554 654 573 298 37 1 0 0 0 0 0 0 0 0 0 0 0 0 0 0 6 2 3 1 3 4
744 830 862 811 835 974 1278 1087 941 892 725 576 607 647 504 659 826 752 506 382 205 0 0 0 0 0 0 0 0 0 0 0 0 0 0 0 0 0 0 0 0 0 1
613 792 945 900 814 639 785 1055 976 911 785 624 606 689 482 706 643 558 422 283 142 2 0 0 0 0 0 0 0 0 0 0 0 0 0 0 0 0 0 0 0 0 0
503 749 1049 1004 752 487 219 262 903 974 775 629 712 536 455 674 561 373 220 161 65 0 0 0 0 0 0 0 0 0 0 0 0 0 0 0 0 0 0 0 0 0 0
680 869 906 935 734 469 311 135 119 781 896 611 650 553 464 326 405 46 8 120 114 0 0 0 0 0 0 0 0 0 0 0 0 0 0 0 0 0 0 0 0 0 0
790 969 840 885 800 652 465 172 62 212 836 673 650 526 421 221 263 12 0 0 0 0 0 0 0 0 0 0 0 0 0 0 0 0 0 0 0 0 0 0 0 0 0
256 691 775 835 680 574 474 366 258 150 432 632 625 473 299 179 165 0 0 0 0 0 0 0 0 0 0 0 0 0 0 0 0 0 0 0 0 0 0 0 0 0 0
24 265 569 642 471 327 503 473 445 525 326 557 423 321 237 108 101 0 0 0 3 0 0 0 0 0 0 0 0 0 0 0 0 0 0 0 0 0 0 0 0 0 0
0 11 51 229 290 268 136 357 412 431 375 366 320 234 149 39 9 0 0 0 19 11 7 0 0 0 0 0 0 0 0 0 0 0 0 0 0 0 0 0 0 0 0
0 0 0 2 44 114 51 59 243 379 327 224 252 171 29 6 1 0 0 0 2 0 4 4 0 0 0 0 0 0 0 0 0 0 0 0 0 0 0 0 0 1 0
0 0 0 2 6 47 71 36 127 234 292 175 143 68 1 0 0 0 0 0 8 2 3 0 0 0 0 0 0 0 0 0 0 0 0 0 0 0 0 0 1 23 6
0 0 0 0 0 0 17 23 62 110 164 186 122 60 16 0 0 0 0 0 0 1 1 0 0 0 0 0 0 0 0 0 0 0 0 0 0 0 0 0 0 28 23
0 0 0 0 0 3 0 1 19 50 94 89 81 47 15 1 2 0 0 0 0 7 1 0 0 0 0 0 0 0 0 0 0 0 0 0 0 0 0 0 4 14 39
0 0 0 0 0 0 3 8 0 14 51 110 104 56 29 17 4 0 0 4 48 28 2 0 0 0 0 0 0 0 0 0 0 0 0 0 0 0 0 0 0 0 26
0 0 0 0 0 0 0 2 11 11 20 50 104 125 86 49 9 4 2 4 32 33 21 16 0 0 0 0 0 0 0 0 0 0 0 0 0 0 0 0 0 0 0
0 0 0 0 0 0 0 0 4 0 0 0 6 52 88 65 59 0 3 31 63 112 39 2 0 0 0 0 0 0 0 0 0 0 0 0 0 0 0 0 0 0 0
0 0 0 0 2 0 0 0 0 0 0 0 0 3 40 96 50 15 1 8 2 17 10 14 0 0 0 0 0 0 0 0 0 0 0 0 0 0 0 0 0 0 0
0 0 29 71 106 59 29 0 0 0 0 9 12 12 11 33 37 2 4 0 0 9 42 11 0 0 0 4 20 18 13 6 0 0 0 0 0 0 0 0 0 0 0
0 66 89 160 146 154 141 101 53 24 5 5 13 23 23 18 35 20 20 18 0 0 25 28 36 23 39 49 50 50 23 6 0 0 3 1 0 0 0 0 0 0 0
8 56 127 123 100 144 137 133 55 46 12 15 19 34 35 6 10 18 5 44 19 27 106 107 75 117 123 111 62 62 49 13 2 1 0 0 0 0 0 0 0 0 0
21 48 82 55 49 66 46 16 75 67 38 50 19 7 8 19 27 33 34 53 57 49 129 127 102 144 140 97 63 43 32 29 0 10 2 0 0 0 0 0 0 0 0
14 35 28 18 0 0 3 4 29 27 12 36 3 18 14 25 38 41 65 85 91 102 110 80 69 92 89 55 46 32 23 25 10 11 6 2 3 0 0 0 0 0 0

GFSSE_con_mlcape_108.txt.gz
CAPE
430 1063 1141 1363 1382 1216 1101 1097 1247 1222 1178 1183 1123 976 668 351 108 0 26 118 417 339 6 9 2 173 17 4 11 36 53 86 114 0 0 44 226 152 199 4 0 0 0
483 1214 1153 1342 1401 1299 1137 1089 1046 1128 1107 1079 981 883 652 258 27 22 21 303 519 222 3 7 14 15 163 100 6 6 7 2 0 0 0 45 81 176 100 33 0 0 0
707 1294 967 1315 1462 1249 1072 1006 972 934 921 922 771 624 312 57 111 126 510 685 517 112 2 12 4 5 7 2 1 4 5 0 0 0 0 0 0 103 152 110 93 96 163
871 1229 791 1374 1508 1278 1062 913 884 858 891 759 603 549 185 43 276 433 769 641 390 119 3 9 2 3 2 0 0 0 0 0 0 0 0 0 0 2 0 1 2 6 3
955 1081 853 1393 1529 1387 1128 932 869 844 779 719 860 666 218 43 459 649 786 452 146 4 3 4 2 1 0 0 0 0 0 0 0 0 0 0 0 2 2 2 2 0 1
937 990 949 1155 1433 1366 1206 1019 939 914 568 635 753 691 367 273 445 1004 617 342 78 1 2 0 0 0 0 0 0 0 0 0 0 0 0 0 0 0 0 0 1 2 1
873 896 992 979 1212 1427 1150 1158 977 861 649 584 656 792 568 624 804 856 440 186 6 0 0 0 0 0 0 0 0 0 0 0 0 0 0 0 0 0 0 0 0 0 0
772 875 1028 998 1113 1256 1359 1191 1055 1021 773 684 658 722 529 660 749 687 482 206 10 0 0 0 0 0 0 0 0 0 0 0 0 0 0 0 0 0 0 0 0 0 0
533 518 796 886 901 973 1189 1217 1115 1024 992 851 686 619 549 300 450 656 447 199 32 0 0 0 0 0 0 0 0 0 0 0 0 0 0 0 0 0 0 0 0 0 0
163 328 478 760 774 795 553 681 991 1054 889 842 788 589 502 308 309 329 245 143 44 0 0 0 0 0 0 0 0 0 0 0 0 0 0 0 0 0 0 0 0 0 0
0 122 380 608 569 653 567 349 251 860 951 845 709 556 441 264 268 76 77 120 59 0 0 0 0 0 0 0 0 0 0 0 0 0 0 0 0 0 0 0 0 0 0
0 0 101 502 426 482 558 388 288 183 631 808 695 526 389 266 161 5 0 42 17 0 0 0 0 0 0 0 0 0 0 0 0 0 0 0 0 0 0 0 0 0 0
0 0 0 135 316 278 115 137 373 401 284 564 513 498 335 295 88 0 0 0 0 0 0 0 0 0 0 0 0 0 0 0 0 0 0 0 0 0 0 0 0 0 0
0 0 0 0 3 105 219 28 29 103 305 175 395 332 248 181 45 0 0 0 1 15 12 3 0 0 0 0 0 0 0 0 0 0 0 0 0 0 0 0 0 0 3
0 0 0 0 1 3 48 43 33 77 75 178 196 219 125 58 17 0 0 0 12 7 9 7 0 0 0 0 0 0 0 0 0 0 0 0 0 0 0 20 41 92 86
0 0 0 0 0 0 18 31 40 32 81 90 116 137 89 48 17 0 0 3 3 2 0 4 0 0 0 0 0 0 0 0 0 0 0 0 0 0 0 0 53 76 102
0 0 0 0 0 0 0 25 55 73 47 27 44 99 97 51 16 0 0 3 1 0 18 0 0 0 0 0 0 0 0 0 0 0 0 0 0 0 0 0 3 73 97
0 0 0 0 0 0 1 0 6 48 72 60 83 49 68 23 21 23 0 0 0 0 3 4 0 0 0 0 0 0 0 0 0 0 0 0 0 0 0 0 0 39 111
0 0 0 0 0 0 0 0 7 50 20 51 70 63 39 18 16 7 3 0 0 1 40 45 25 5 0 0 0 0 0 0 0 0 0 0 0 0 0 0 0 0 33
0 0 0 0 0 0 0 0 0 1 8 12 36 68 65 35 37 23 15 3 3 0 13 25 32 26 6 1 0 0 0 0 0 0 0 0 0 0 0 0 0 0 1
0 0 0 0 0 0 0 1 2 1 0 0 7 34 100 88 75 47 29 24 2 0 0 48 25 37 22 11 3 0 0 0 0 0 0 0 0 0 0 0 0 0 0
0 0 0 0 0 0 0 0 0 0 0 0 0 0 18 61 72 78 25 4 0 0 0 0 0 24 24 9 23 7 14 9 3 3 1 0 0 0 0 0 0 0 0
0 0 0 0 0 0 0 0 0 0 0 0 1 0 0 0 43 91 54 37 13 0 0 0 0 1 44 31 34 66 60 15 40 17 14 2 0 0 0 0 0 0 0
0 0 0 0 0 40 53 50 14 0 0 0 0 1 2 0 0 45 49 26 3 0 0 0 0 3 58 62 47 59 81 52 103 60 7 0 0 1 0 0 0 0 0
0 0 0 9 59 105 132 71 38 27 7 15 2 0 0 0 0 9 38 28 12 0 1 0 0 0 37 73 85 71 110 84 25 60 27 8 0 0 0 0 0 0 0
0 0 5 38 28 65 90 83 45 18 34 47 18 24 24 4 3 6 5 34 36 17 9 16 5 4 65 84 82 63 58 39 53 20 7 1 3 0 0 0 0 0 0

GFSSE_con_mlcape_111.txt.gz
CAPE
520 1338 1376 1279 1245 1045 1164 1295 1406 1418 1397 1118 1179 1047 813 538 119 12 185 459 168 7 5 1 0 144 63 6 8 91 135 132 0 0 50 152 124 224 0 0 0 0 12
520 1377 1277 1334 1360 1016 1092 1190 1209 1316 1233 1147 1014 880 671 372 115 88 204 587 323 3 4 185 317 37 7 10 5 4 6 0 0 0 0 13 102 99 0 0 0 0 0
561 1456 1159 1325 1449 1236 952 1069 1086 1144 1109 1065 977 826 657 299 27 25 294 650 246 7 6 14 72 230 5 2 4 4 3 0 0 0 0 57 130 224 166 81 114 181 194
855 1486 1154 1487 1460 1238 947 817 860 964 1032 971 855 767 434 168 141 156 629 624 222 8 2 3 6 6 0 0 2 2 0 0 0 0 0 2 9 4 1 0 2 9 5
994 1315 1184 1284 1416 1281 1058 926 811 848 834 796 664 517 225 265 293 970 802 431 170 9 5 0 0 2 1 0 0 0 0 0 0 0 0 0 0 1 0 2 1 1 0
1006 1192 918 1074 1445 1350 1125 881 800 840 849 743 828 478 215 240 465 987 561 311 29 0 0 0 1 0 0 0 0 0 0 0 0 0 0 0 0 1 1 1 2 1 0
834 1075 1045 1156 1199 1268 1134 953 903 909 878 879 977 741 271 296 647 783 412 131 5 0 0 2 0 0 0 0 0 0 0 0 0 0 0 0 0 0 0 0 0 0 0
589 1010 1051 968 1008 1094 1131 987 922 1056 728 910 1009 922 671 365 778 589 374 153 10 0 0 0 0 0 0 0 0 0 0 0 0 0 0 0 0 0 0 0 0 0 0
160 691 739 850 771 799 913 971 993 1043 850 801 865 858 791 487 352 811 408 93 0 0 0 0 0 0 0 0 0 0 0 0 0 0 0 0 0 0 0 0 0 0 0
0 77 493 356 713 842 839 860 950 963 947 851 825 709 740 462 381 540 383 179 1 0 0 0 0 0 0 0 0 0 0 0 0 0 0 0 0 0 0 0 0 0 0
0 0 0 324 368 644 685 907 835 756 845 860 832 649 644 597 542 436 319 194 8 0 0 0 0 0 0 0 0 0 0 0 0 0 0 0 0 0 0 0 0 0 0
0 0 0 1 318 396 566 480 524 852 967 862 902 907 761 594 558 536 277 83 16 0 0 0 0 0 0 0 0 0 0 0 0 0 0 0 0 0 0 0 0 0 0
0 0 0 0 1 333 408 164 91 214 432 656 692 689 690 591 472 279 255 212 121 0 0 0 0 0 0 0 0 0 0 0 0 0 0 0 0 0 0 0 0 0 0
0 0 0 0 0 0 91 191 48 19 74 128 612 573 542 513 365 153 61 191 131 40 8 3 7 0 0 0 0 0 0 0 0 0 0 0 0 0 0 0 0 0 0
0 0 0 0 0 0 1 98 191 55 26 46 134 342 483 417 329 158 6 10 54 43 19 4 0 0 0 0 0 0 0 0 0 0 0 0 0 0 0 68 99 147 162
0 0 0 0 0 0 2 30 86 81 91 110 105 180 340 277 264 89 14 8 15 38 28 2 2 2 0 0 0 0 0 0 0 0 0 0 0 0 0 3 115 160 172
0 0 0 0 0 0 0 15 27 58 128 116 77 47 97 175 158 90 31 2 35 57 44 28 0 0 0 0 0 0 0 0 0 0 0 0 0 0 0 0 0 61 152
0 0 0 0 0 0 0 1 13 75 85 100 66 50 39 63 75 59 53 24 3 3 4 12 16 3 0 0 0 0 0 0 0 0 0 0 0 0 0 0 0 6 67
0 0 0 0 0 0 0 0 0 11 115 127 103 82 57 51 53 48 49 29 16 0 0 2 33 2 5 1 0 0 0 0 0 0 0 0 0 0 0 0 0 0 3
0 0 0 0 0 0 0 3 0 3 11 105 113 77 83 63 57 66 36 16 2 1 1 0 16 9 16 19 5 0 0 0 0 0 0 0 0 0 0 0 0 0 0
0 0 0 0 0 0 0 0 1 2 0 28 77 114 74 86 86 79 61 32 15 18 11 3 0 0 4 20 24 2 7 14 0 0 0 0 0 0 0 5 4 10 7
0 0 0 0 0 0 0 0 3 12 2 19 9 25 141 109 102 89 86 35 19 37 19 11 0 0 0 0 25 6 11 14 25 30 6 6 8 1 7 5 24 26 20
0 0 0 0 0 0 0 0 0 0 1 2 2 0 15 68 111 115 92 70 63 23 2 3 0 0 0 0 6 6 11 38 41 46 46 44 47 56 26 25 41 13 0
0 0 0 0 0 0 0 0 0 1 0 0 0 0 0 1 26 88 91 73 64 39 28 5 0 0 0 0 0 12 26 60 98 73 52 61 42 48 46 71 18 2 0
0 0 0 0 0 0 0 3 2 1 0 0 0 0 0 0 0 0 14 44 6 4 0 0 0 0 0 0 0 0 25 72 62 104 104 97 35 16 14 15 0 0 0
0 0 0 0 0 0 0 46 83 67 46 14 0 0 0 0 4 2 0 2 5 5 3 0 0 0 0 0 0 5 19 61 94 83 56 54 53 26 23 9 0 0 0

GFSSE_con_mlcape_114.txt.gz
CAPE
1100 1274 1257 1354 1491 1434 1320 1511 1114 1028 1369 1159 1072 938 932 542 53 113 477 29 32 0 3 0 46 281 36 47 158 252 187 117 78 158 132 281 157 0 0 0 17 26 104
976 1157 1217 1384 1416 1342 1325 1359 1266 1456 1455 1162 1264 1095 845 421 47 242 550 337 48 5 0 0 328 135 10 85 76 81 16 1 29 19 35 80 0 0 0 0 0 0 0
994 1315 1251 1319 1279 1147 1258 1249 1343 1467 1242 1080 1131 1030 739 450 112 209 665 424 76 0 237 311 100 4 7 12 2 6 1 0 0 4 50 169 200 255 203 94 165 286 231
1080 1459 1260 1186 1276 964 1195 1104 1142 1253 1095 1015 933 939 728 437 76 142 749 547 71 44 182 333 271 0 0 3 4 18 0 0 0 0 33 53 21 39 60 52 57 38 6
1249 1552 1120 1192 1164 1047 1030 1077 1070 1047 993 1012 920 919 746 305 145 183 856 390 116 0 13 0 0 0 0 1 4 1 0 0 0 0 2 10 7 0 2 1 0 0 0
1355 1490 1335 1185 1087 1133 965 866 921 1080 1095 958 877 761 477 418 384 923 650 247 117 16 0 0 0 0 0 0 0 0 0 0 0 0 0 0 0 0 2 1 0 0 0
867 1357 1321 935 951 1058 1014 901 905 904 889 852 872 695 432 617 674 1033 498 279 58 13 0 0 0 0 0 0 0 0 0 0 0 0 0 0 0 0 0 0 0 0 0
230 749 1161 1017 886 926 1107 892 850 915 991 914 1024 864 502 501 716 1008 478 151 40 12 0 1 0 0 0 0 0 0 0 0 0 0 0 0 0 0 0 0 0 0 0
0 489 1098 997 893 696 755 780 800 929 940 878 911 930 742 268 558 809 483 161 10 0 0 0 0 0 0 0 0 0 0 0 0 0 0 0 0 0 0 0 0 0 0
0 0 197 816 731 680 791 695 671 758 790 743 893 888 673 447 444 481 325 198 6 0 0 0 0 0 0 27 0 0 0 0 0 0 0 0 0 0 0 0 0 0 0
0 0 0 71 631 510 574 690 717 645 571 549 636 640 558 564 491 470 311 113 0 0 0 0 0 0 0 0 0 0 0 0 0 0 0 0 0 0 0 0 0 0 0
0 0 0 0 17 594 560 603 691 618 674 579 617 638 705 512 533 496 413 148 12 0 0 0 0 0 0 0 0 0 0 0 0 0 0 0 0 1 0 0 0 0 0
0 0 0 0 0 64 671 596 317 248 466 392 418 456 472 410 493 574 509 342 163 0 0 0 0 0 0 0 0 0 0 0 0 0 0 0 0 0 3 0 0 0 0
0 0 0 0 0 0 116 554 437 53 36 257 444 492 489 361 318 372 367 366 212 62 15 0 0 0 0 0 0 0 0 0 0 0 0 0 0 0 3 2 0 0 0
0 0 0 0 0 0 0 78 482 312 96 115 205 235 277 308 282 277 303 328 253 139 55 4 0 0 0 0 0 0 0 0 0 0 0 0 0 0 0 102 108 112 112
0 0 0 0 0 0 0 13 155 477 345 181 206 129 185 136 250 216 194 199 254 153 133 43 0 0 0 0 0 0 0 0 0 0 0 0 0 0 0 0 85 190 167
0 0 0 0 0 0 0 0 96 241 551 421 424 219 123 329 252 293 176 178 127 148 149 63 17 0 0 0 0 0 0 0 0 0 0 0 0 0 0 0 0 19 131
0 0 0 0 0 0 0 0 2 90 287 466 416 344 302 237 361 343 273 153 182 139 177 84 60 26 3 0 0 0 0 0 0 0 0 0 0 0 0 0 0 0 36
0 0 0 0 0 0 0 0 0 23 108 206 341 275 196 137 214 262 458 214 273 205 158 55 65 56 80 8 2 0 0 0 0 0 0 0 0 0 5 15 0 0 0
0 0 0 0 0 0 0 0 0 14 18 162 295 247 145 104 123 204 265 265 241 162 136 35 19 9 57 28 1 0 0 0 0 0 0 0 0 0 23 43 44 27 0
0 0 0 0 0 0 0 0 1 5 7 79 250 339 250 185 94 139 171 111 160 136 150 151 113 104 1 0 1 2 0 1 0 4 8 13 0 16 45 62 50 70 61
0 0 0 0 0 0 0 0 0 4 4 90 167 233 269 256 199 94 149 173 164 145 161 143 109 65 54 9 0 1 0 0 0 0 13 9 27 47 61 58 55 68 89
0 0 0 0 0 0 0 0 8 10 21 58 55 96 326 306 281 183 170 194 189 217 139 92 135 115 29 2 0 0 0 0 0 0 11 41 48 56 79 65 59 58 95
0 0 0 0 0 0 0 0 19 9 6 5 6 134 291 205 295 227 207 199 149 129 93 204 244 220 102 4 2 1 0 0 2 0 0 13 60 93 111 82 55 52 73
1 0 0 0 0 0 0 0 0 7 20 62 134 259 291 248 221 225 262 264 120 106 88 94 86 110 115 67 20 2 7 32 27 8 0 13 50 42 56 40 37 49 50
6 7 0 0 0 0 0 0 0 0 6 93 134 184 150 110 72 58 81 117 174 142 74 32 73 46 54 28 20 15 2 12 39 53 9 15 82 95 80 31 13 14 15

GFSSE_con_mlcape_117.txt.gz
CAPE
953 1320 1251 1445 1443 1747 1813 1648 1336 1310 1327 1165 890 815 812 436 8 42 10 55 0 0 0 34 117 361 171 269 371 343 293 173 157 148 272 15 0 3 6 0 30 4 10
578 1178 1174 1404 1395 1581 1670 1559 1100 969 1292 1200 1135 976 964 340 26 539 290 91 23 1 0 137 382 45 209 215 272 80 81 45 32 36 31 0 0 0 0 0 0 19 174
873 1124 1249 1471 1311 1402 1272 1213 1009 1047 1325 1098 1037 1149 802 345 85 498 851 224 68 2 16 272 180 169 138 71 21 3 41 26 3 27 69 141 222 237 136 111 210 202 168
1008 1433 1310 1388 1318 1313 1209 1269 1218 1251 1361 1147 932 1084 851 500 184 406 954 465 110 91 500 277 48 14 34 0 5 5 1 0 0 10 73 34 52 92 87 56 16 3 1
1137 1473 1512 1301 1063 1252 1138 1202 1336 1416 1099 1012 915 799 801 674 224 228 834 307 265 198 362 326 75 0 0 5 33 0 0 0 0 1 19 23 2 2 0 0 0 0 0
980 1302 1381 1348 992 824 1063 1214 1211 1179 1087 977 894 872 833 575 193 185 737 197 179 2 25 2 1 0 0 20 2 0 0 0 0 2 0 0 0 0 0 0 0 0 0
370 977 1196 1229 1102 955 954 953 1125 966 1005 885 915 932 743 607 448 682 607 215 128 11 0 0 0 0 0 0 0 0 0 0 0 0 0 0 0 0 0 0 0 0 0
0 493 1167 1132 838 923 922 831 717 998 981 848 790 878 679 780 693 849 554 281 61 18 0 0 0 0 0 0 0 0 0 0 0 0 0 0 0 0 0 0 0 0 0
0 0 864 1268 997 727 854 830 788 703 749 787 654 759 704 534 575 916 634 303 54 0 0 0 0 0 0 0 0 0 0 0 0 0 0 0 0 0 0 0 0 0 0
0 0 0 673 1040 1024 919 758 804 725 736 677 775 566 573 361 447 393 374 261 75 0 0 0 0 0 0 0 0 0 0 0 0 0 0 0 0 0 0 0 0 0 0
0 0 0 0 481 781 789 896 719 699 657 636 564 453 514 639 389 320 282 318 86 0 0 0 0 0 0 0 0 0 0 0 0 0 0 0 0 0 0 0 0 0 0
0 0 0 0 0 284 834 617 840 805 776 552 539 560 491 550 538 301 320 252 73 0 0 0 0 0 0 0 0 0 0 0 0 0 0 0 0 0 0 0 0 0 0
0 0 0 0 0 0 443 796 698 659 676 613 527 464 559 331 228 541 457 271 65 0 0 0 2 0 0 0 0 0 0 0 0 0 0 0 0 0 3 0 0 0 0
0 0 0 0 0 0 0 609 741 416 488 356 393 287 268 231 160 324 480 556 411 56 1 0 0 0 0 0 0 0 0 0 0 0 0 0 0 0 0 2 0 0 0
0 0 0 0 0 0 0 11 592 703 151 115 207 260 354 267 153 161 450 466 437 280 19 4 0 0 0 0 0 0 0 0 0 0 0 0 0 0 0 0 28 58 61
0 0 0 0 0 0 0 0 85 576 577 210 178 283 271 241 266 202 120 419 390 318 83 8 0 0 0 0 0 0 0 0 0 0 0 0 0 0 0 0 12 209 196
0 0 0 0 0 0 0 0 0 131 594 568 354 363 262 266 187 130 65 96 339 346 162 74 1 0 0 0 0 0 0 0 0 0 0 0 0 0 0 0 0 1 65
0 0 0 0 0 0 0 0 0 1 140 585 565 578 385 185 173 274 271 299 152 126 160 85 68 0 0 0 0 0 0 0 0 0 0 0 0 0 0 0 0 0 5
0 0 0 0 0 0 0 0 0 0 65 218 510 497 588 452 351 198 218 339 235 97 92 82 79 26 0 0 0 0 0 0 0 0 0 0 0 0 0 0 0 0 0
0 0 0 0 0 0 0 0 0 0 6 108 248 502 635 503 313 269 234 315 334 340 194 215 162 134 63 37 6 0 0 0 0 0 0 0 0 0 0 0 20 4 0
0 0 0 0 0 0 0 0 0 0 3 29 188 419 548 415 301 277 171 99 228 318 179 221 193 142 103 83 35 18 0 0 0 0 0 0 0 0 0 0 28 52 46
0 0 0 0 0 0 0 0 0 0 0 10 122 286 476 444 362 279 258 239 281 267 251 207 198 143 149 136 57 27 1 0 0 0 0 0 0 0 0 1 26 37 61
5 1 0 0 0 0 0 0 0 1 23 12 32 104 311 382 457 413 346 307 266 195 136 247 241 191 160 115 78 46 1 0 0 0 0 0 0 0 0 6 22 49 47
1 12 2 0 0 0 0 0 0 0 11 18 50 127 280 386 512 487 409 398 329 247 224 264 296 260 227 201 177 44 0 8 3 0 0 0 0 0 0 19 40 65 43
1 1 13 2 0 0 0 0 0 0 4 22 35 45 188 412 419 420 470 447 439 323 307 314 280 195 230 214 169 55 2 9 28 44 4 7 1 3 60 92 97 66 46
3 2 2 20 1 0 0 0 0 0 17 19 47 98 190 351 268 313 336 450 393 301 191 180 214 198 197 152 141 108 76 20 12 42 46 27 27 29 53 95 65 40 42